     2              OBSERVATION DATA    GPS                 RINEX VERSION / TYPE
teqc 1997Jul24 19970814                                     PGM / RUN BY / DATE
                                                            COMMENT
Original Marker Name: 0820                                  COMMENT
Campaign Name: HPGN 1991                                    COMMENT
4-Character Station Name: 0820                              COMMENT
6-Character Antenna Code: TRMSST                            COMMENT
Vertical Measurement Point: BPA                             COMMENT
Vertical Offset to Rinex Ref. Point: 0.0000                 COMMENT
Radial Measurement Point: RRP                               COMMENT
Radial Offset to Rinex Ref. Point: 0.0000                   COMMENT
Antenna Height from Field Measurement: 2.2200 m             COMMENT
Original XYZ: -2420584.1574 -4733042.5907 3513112.9887      COMMENT
New XYZ position is based on association with SCEC monument COMMENT
E1D0F9J4+0011. Position of that monument is believed to be  COMMENT
valid to within 1 m horizontally; vertical accuracy         COMMENT
should be no worse than 3-times this value.                 COMMENT
                                                            COMMENT
Revised Rinex header created by UCSD GPS archive for        COMMENT
GSAC on 12-Apr-1999 (1999:102) 04:32:11 GMT                 COMMENT
For assistance contact dagnew@ucsd.edu or hjohnson@ucsd.edu COMMENT
                                                            COMMENT
DASH 1972                                                   MARKER NAME
unknown NATIONAL GEODETIC SURVEY                            OBSERVER / AGENCY
485 TRIMBLE 4000 SST NP 4.30 / SP 4.20                      REC # / TYPE / VERS
16 TR 4000SST L1/L2 GEO                                     ANT # / TYPE
 -2420587.0000 -4733049.0000  3513111.0000                  APPROX POSITION XYZ
        2.2200        0.0000        0.0000                  ANTENNA: DELTA H/E/N
     1     1     0                                          WAVELENGTH FACT L1/2
     3    C1    L1    L2                                    # / TYPES OF OBSERV
     0                                                      INTERVAL
  1991     4    15    20    28    0.000000                  TIME OF FIRST OBS
  1991     4    16     2    29   60.000000                  TIME OF LAST OBS
     0                                                      # OF SATELLITES
                                                            END OF HEADER
 91  4 15 20 28  0.0000000  0  4G18G 2G11G19
  20678025.305          -0.94317
  23857717.5234         -0.99456
  23690226.1644         -0.47156
  20988260.9924         -0.49356
 91  4 15 20 28 15.0000000  0  4G18G 2G11G19
  20679310.4694       6753.23747        -0.43373
  23847029.266      -56160.317 5
  23682591.984      -40111.362 6        -0.01231
  20985704.0864     -13443.57346        -0.09672
 91  4 15 20 28 30.0000000  0  4G18G 2G11G19
  20680606.0704      13557.44647      5301.51263
  23836339.9384    -112335.85746        -0.46371
  23674966.3444     -80187.30546    -31227.90961
  20983140.6484     -26909.83446    -10493.27562
 91  4 15 20 28 45.0000000  0  4G18G 2G11G19
  20681912.8364      20424.16648     10652.17363
  23825649.8524    -168514.87146    -43776.15461
  23667348.8524    -120215.33746    -62418.47061
  20980575.5474     -40386.92246    -20994.89262
 91  4 15 20 29  0.0000000  0  4G18G 2G11G19
  20683232.3984      27366.69447     16061.90463
  23814960.852     -224683.982 6    -87544.08021
  23659742.2894    -160181.94546    -93561.15261
  20978012.0944     -53861.54646    -31494.59262
 91  4 15 20 29 15.0000000  0  4G18G 2G11G19
  20684568.9924      34387.30847     21532.48063
  23804275.313     -280840.804 6   -131302.49021
  23652150.2814    -200084.38646   -124653.84861
  20975449.7114     -67331.31546    -41990.50562
 91  4 15 20 29 30.0000000  0  4G18G 2G11G19
  20685923.5474      41497.41148     27072.78363
  23793590.945     -336973.765 6   -175042.22421
  23644572.359     -239910.922 6   -155687.40021
  20972887.7814     -80784.91746    -52473.82562
 91  4 15 20 29 45.0000000  0  4G18G 2G11G19
  20687292.1334      48693.03048     32679.72163
  23782914.195     -393086.766 6   -218766.47121
  23637006.2114    -279665.19446   -186664.65861
  20970331.2664     -94226.40046    -62947.69862
 91  4 15 20 30  0.0000000  0  4G18G 2G11G19
  20688677.9694      55974.04748     38353.20263
  23772238.508     -449179.460 5   -262474.88921
  23629453.5314    -319346.94946   -217585.38561
  20967774.2424    -107655.85946    -73412.20862
 91  4 15 20 30 15.0000000  0  4G18G 2G11G19
  20690079.2814      63343.46447     44095.56463
  23761569.2034    -505248.92346   -306165.17661
  23621916.000     -358952.861 6   -248447.01721
  20965222.6334    -121070.38046    -83865.06962
 91  4 15 20 30 30.0000000  0  4G18G 2G11G19
  20691499.953       70804.281 7     49909.14523
  23750901.227     -561291.793 5   -349834.75721
  23614395.0474    -398479.37846   -279246.78461
  20962672.0864    -134466.75146    -94303.79162
 91  4 15 20 30 45.0000000  0  4G18G 2G11G19
  20692935.328       78348.037 8     55787.35023
  23740243.477     -617316.277 6   -393490.01321
  23606888.0394    -437934.66446   -309991.05161
  20960125.4534    -147853.44546   -104734.98062
 91  4 15 20 31  0.0000000  0  4G18G 2G11G19
  20694387.633       85979.482 7     61733.88523
  23729584.563     -673317.520 5   -437127.16121
  23599394.211     -477313.531 6   -340675.77521
  20957580.9614    -161225.52746   -115154.77862
 91  4 15 20 31 15.0000000  0  4G18G 2G11G19
  20695856.820       93695.795 8     67746.54723
  23718933.0164    -729298.03346   -480748.13861
  23591914.719     -516618.391 6   -371302.82821
  20955039.0164    -174585.83846   -125565.40162
 91  4 15 20 31 30.0000000  0  4G18G 2G11G19
  20697341.180      101501.080 8     73828.54423
  23708284.617     -785253.567 5   -524349.68521
  23584450.195     -555844.867 6   -401868.80521
  20952502.1024    -187930.25146   -135963.64462
 91  4 15 20 31 45.0000000  0  4G18G 2G11G19
  20698843.9224     109398.24448     79982.13863
  23697642.4304    -841181.24146   -567929.47761
  23577000.7274    -594989.71646   -432371.16861
  20949964.0864    -201255.92146   -146347.27662
 91  4 15 20 32  0.0000000  0  4G18G 2G11G19
  20700365.8444     117394.83948     86213.21263
  23687007.828     -897073.079 5   -611481.39921
  23569570.0554    -634044.72646   -462803.53961
  20947434.9694    -214555.07846   -156710.25562
 91  4 15 20 32 15.0000000  0  4G18G 2G11G19
  20701906.4534     125483.86048     92516.30763
  23676376.6724    -952936.17646   -655010.88061
  23562152.695     -673016.790 6   -493171.26721
  20944905.4224    -227835.05046   -167058.27662
 91  4 15 20 32 30.0000000  0  4G18G 2G11G19
  20703461.1724     133663.02648     98889.63963
  23665750.4454   -1008772.43545   -698519.47561
  23554751.7664    -711907.69146   -523475.74661
  20942383.3984    -241098.21646   -177393.20662
 91  4 15 20 32 45.0000000  0  4G18G 2G11G19
  20705034.344      141929.934 7    105331.34523
  23655131.695    -1064584.200 6   -742008.96321
  23547365.023     -750719.740 6   -553718.78821
  20939860.3914    -254346.84846   -187716.81062
 91  4 15 20 33  0.0000000  0  4G18G 2G11G19
  20706626.000      150290.446 7    111845.98523
  23644513.070    -1120365.220 5   -785474.50121
  23539996.0634    -789446.37646   -583895.27461
  20937347.8204    -267574.83646   -198024.32562
 91  4 15 20 33 15.0000000  0  4G18G 2G11G19
  20708234.2664     158739.54748    118429.66263
  23633905.8524   -1176120.45246   -828919.95261
  23532643.3674    -828092.29346   -614008.86561
  20934830.0634    -280787.33946   -208319.78062
 91  4 15 20 33 30.0000000  0  4G18G 2G11G19
  20709858.7424     167278.46548    125083.32163
  23623299.6254   -1231848.22845   -872344.02061
  23525303.078     -866655.749 6   -644058.20021
  20932318.3204    -293982.85746   -218601.99762
 91  4 15 20 33 45.0000000  0  4G18G 2G11G19
  20711502.313      175911.049 8    131809.96723
  23612702.9694   -1287544.81746   -915743.73861
  23517981.6094    -905132.80046   -674040.19961
  20929812.6024    -307157.71546   -228868.11562
 91  4 15 20 34  0.0000000  0  4G18G 2G11G19
  20713163.5164     184645.37447    138615.89663
  23602113.852    -1343201.815 6   -959112.67721
  23510678.1024    -943514.87446   -703948.19361
  20927311.6174    -320303.76946   -239111.78862
 91  4 15 20 34 15.0000000  0  4G18G 2G11G19
  20714848.6954     193501.11247    145516.42663
  23591531.3754   -1398799.40546  -1002435.26561
  23503395.930     -981781.893 6   -733766.53421
  20924817.8284    -333401.25246   -249317.61162
 91  4 15 20 34 30.0000000  0  4G18G 2G11G19
  20716551.273      202447.106 7    152487.28623
  23580958.484    -1454368.392 6  -1045735.59921
  23496130.328    -1019964.488 6   -763519.10321
  20922328.5474    -346481.19946   -259509.77562
 91  4 15 20 34 45.0000000  0  4G18G 2G11G19
  20718272.258      211487.731 8    159531.88323
  23570387.141    -1509904.482 6  -1089010.29221
  23488879.6334   -1058058.09646   -793202.31161
  20919843.8914    -359539.25146   -269684.87762
 91  4 15 20 35  0.0000000  0  4G18G 2G11G19
  20720012.016      220630.612 8    166656.15823
  23559827.8984   -1565399.69546  -1132253.12761
  23481649.945    -1096054.507 6   -822809.78921
  20917363.7664    -372567.60046   -279836.83162
 91  4 15 20 35 15.0000000  0  4G18G 2G11G19
  20721769.633      229869.591 8    173855.31723
  23549273.4844   -1620859.84546  -1175468.65861
  23474437.3444   -1133959.51846   -852346.03861
  20914889.9614    -385572.44846   -289970.47662
 91  4 15 20 35 30.0000000  0  4G18G 2G11G19
  20723545.0864     239203.71847    181128.62463
  23538726.828    -1676286.230 6  -1218657.84921
  23467241.1564   -1171774.05546   -881811.78661
  20912418.2814    -398554.91846   -300086.68262
 91  4 15 20 35 45.0000000  0  4G18G 2G11G19
  20725339.8834     248632.69848    188475.84263
  23528182.7194   -1731678.73046  -1261820.64361
  23460061.680    -1209497.962 6   -911206.92321
  20909953.8524    -411515.26646   -310185.65262
 91  4 15 20 36  0.0000000  0  4G18G 2G11G19
  20727152.0234     258150.40548    195892.19563
  23517650.4924   -1787043.07946  -1304961.54761
  23452898.281    -1247136.921 6   -940535.85121
  20907491.3364    -424459.57146   -320272.11762
 91  4 15 20 36 15.0000000  0  4G18G 2G11G19
  20728981.188      267760.562 8    203380.58823
  23507119.180    -1842374.980 6  -1348077.10421
  23445754.719    -1284686.519 6   -969795.16821
  20905031.2894    -437383.66646   -330342.83862
 91  4 15 20 36 30.0000000  0  4G18G 2G11G19
  20730827.2974     277464.39048    210941.97563
  23496596.445    -1897673.296 6  -1391166.52621
  23438626.0164   -1322145.28846   -998983.70061
  20902574.5314    -450286.56946   -340397.04462
 91  4 15 20 36 45.0000000  0  4G18G 2G11G19
  20732690.7424     287258.19748    218573.46963
  23486080.0164   -1952941.82146  -1434232.73861
  23431513.297    -1359516.699 6  -1028104.16421
  20900121.6414    -463172.03546   -350437.66362
 91  4 15 20 37  0.0000000  0  4G18G 2G11G19
  20734571.5784     297143.15048    226275.99663
  23475566.4304   -2008178.93346  -1477274.45461
  23424420.4384   -1396799.15446  -1057155.31761
  20897674.3594    -476038.75146   -360463.66863
 91  4 15 20 37 15.0000000  0  4G18G 2G11G19
  20736471.2734     307123.35548    234052.74463
  23465064.188    -2063380.383 6  -1520288.41021
  23417343.0864   -1433987.99246  -1086133.52061
  20895231.2194    -488882.42946   -370471.72662
 91  4 15 20 37 30.0000000  0  4G18G 2G11G19
  20738389.547      317201.085 8    241905.47823
  23454566.234    -2118543.859 6  -1563272.76021
  23410285.125    -1471080.702 6  -1115036.79521
  20892790.7194    -501700.89546   -380460.14062
 91  4 15 20 37 45.0000000  0  4G18G 2G11G19
  20740324.813      327373.398 8    249831.90323
  23444076.0704   -2173671.85046  -1606229.45461
  23403241.516    -1508079.874 6  -1143867.20921
  20890356.5004    -514496.98246   -390431.11362
 91  4 15 20 38  0.0000000  0  4G18G 2G11G19
  20742277.844      337636.040 8    257828.71823
  23433590.9774   -2228768.61246  -1649161.85061
  23396218.250    -1544989.301 6  -1172627.68621
  20887925.6484    -527274.96046   -400387.97462
 91  4 15 20 38 15.0000000  0  4G18G 2G11G19
  20744247.977      347997.981 8    265902.90523
  23423113.0634   -2283825.15946  -1692062.86761
  23389215.6254   -1581799.73846  -1201311.02561
  20885498.7584    -540025.74946   -410323.64862
 91  4 15 20 38 30.0000000  0  4G18G 2G11G19
  20746238.859      358456.557 8    274052.39723
  23412644.2974   -2338843.70346  -1734934.31161
  23382227.516    -1618513.479 6  -1229919.02421
  20883075.1484    -552752.06946   -420240.26562
 91  4 15 20 38 45.0000000  0  4G18G 2G11G19
  20748248.172      369012.361 8    282277.65523
  23402180.9224   -2393823.29746  -1777775.38061
  23375259.578    -1655129.446 6  -1258450.83821
  20880661.1484    -565453.02646   -430137.10862
 91  4 15 20 39  0.0000000  0  4G18G 2G11G19
  20750275.117      379662.733 8    290576.59823
  23391725.898    -2448766.454 6  -1820588.05521
  23368311.227    -1691649.927 6  -1286908.24521
  20878245.6804    -578131.15646   -440016.17262
 91  4 15 20 39 15.0000000  0  4G18G 2G11G19
  20752320.484      390404.999 8    298947.14923
  23381275.930    -2503675.845 6  -1863374.43621
  23361379.164    -1728077.220 6  -1315293.03621
  20875838.2664    -590789.27646   -449879.63762
 91  4 15 20 39 30.0000000  0  4G18G 2G11G19
  20754381.4304     401244.29448    307393.31563
  23370833.656    -2558545.796 6  -1906130.06921
  23354464.891    -1764405.462 6  -1343600.64221
  20873434.0234    -603421.98046   -459723.30162
 91  4 15 20 39 45.0000000  0  4G18G 2G11G19
  20756461.9224     412177.12948    315912.36763
  23360400.6954   -2613379.87746  -1948857.76361
  23347568.563    -1800638.301 6  -1371833.91121
  20871034.5864    -616033.05246   -469550.11062
 91  4 15 20 40  0.0000000  0  4G18G 2G11G19
  20758560.4534     423204.14748    324504.81563
  23349973.594    -2668177.237 6  -1991556.84121
  23340693.094    -1836774.629 6  -1399991.96921
  20868638.3914    -628621.61446   -479359.37262
 91  4 15 20 40 15.0000000  0  4G18G 2G11G19
  20760677.492      434327.300 8    333172.16123
  23339551.734    -2722935.799 6  -2034225.67821
  23333836.6094   -1872812.05346  -1428072.95861
  20866248.4614    -641185.62446   -489149.51062
 91  4 15 20 40 30.0000000  0  4G18G 2G11G19
  20762813.469      445546.792 8    341914.57423
  23329140.2344   -2777654.76946  -2076863.68961
  23326998.6644   -1908749.79946  -1456076.27861
  20863861.4064    -653724.43846   -498920.01162
 91  4 15 20 40 45.0000000  0  4G18G 2G11G19
  20764965.125      456858.542 7    350728.87023
  23318733.633    -2832338.350 6  -2119474.10821
  23320177.477    -1944591.776 6  -1484004.98721
  20861480.3364    -666242.49746   -508674.34062
 91  4 15 20 41  0.0000000  0  4G18G 2G11G19
  20767135.828      468267.071 7    359618.57723
  23308335.8204   -2886981.68846  -2162053.16761
  23313377.000    -1980333.045 6  -1511855.21621
  20859101.6804    -678735.24346   -518408.94962
 91  4 15 20 41 15.0000000  0  4G18G 2G11G19
  20769325.141      479769.601 7    368581.53523
  23297944.141    -2941587.193 6  -2204602.75621
  23306593.672    -2015975.862 6  -1539628.73721
  20856730.1024    -691205.12646   -528125.73562
 91  4 15 20 41 30.0000000  0  4G18G 2G11G19
  20771531.930      491368.048 7    377619.22923
  23287561.1564   -2996152.95546  -2247121.36861
  23299830.8054   -2051518.10746  -1567323.87761
  20854361.3054    -703650.25346   -537823.23762
 91  4 15 20 41 45.0000000  0  4G18G 2G11G19
  20773758.273      503063.284 7    386732.34923
  23277185.641    -3050677.933 6  -2289608.20221
  23293084.055    -2086958.405 6  -1594939.58321
  20851998.8284    -716069.53346   -547500.59362
 91  4 15 20 42  0.0000000  0  4G18G 2G11G19
  20776000.906      514851.350 7    395917.80723
  23266816.531    -3105165.694 6  -2332066.05921
  23286358.8284   -2122300.30646  -1622478.61161
  20849640.2114    -728467.00346   -557160.95962
 91  4 15 20 42 15.0000000  0  4G18G 2G11G19
  20778263.211      526738.435 7    405180.42823
  23256456.164    -3159610.278 6  -2374490.24721
  23279653.805    -2157537.722 6  -1649936.23721
  20847285.8054    -740836.84746   -566799.80362
 91  4 15 20 42 30.0000000  0  4G18G 2G11G19
  20780546.203      538727.810 7    414522.74923
  23246104.102    -3214007.892 6  -2416877.85421
  23272970.266    -2192666.704 6  -1677309.35621
  20844936.3674    -753175.51846   -576414.34662
 91  4 15 20 42 45.0000000  0  4G18G 2G11G19
  20782844.305      550815.799 7    423941.91723
  23235759.8054   -3268361.73846  -2459231.32761
  23266305.0944   -2227690.34646  -1704600.40161
  20842594.6564    -765486.37346   -586007.21062
 91  4 15 20 43  0.0000000  0  4G18G 2G11G19
  20785163.859      562999.027 7    433435.28823
  23225423.6174   -3322675.20746  -2501553.36361
  23259659.961    -2262611.669 6  -1731811.72221
  20840255.5784    -777772.62646   -595580.91562
 91  4 15 20 43 15.0000000  0  4G18G 2G11G19
  20787500.133      575279.351 7    443004.32023
  23215097.906    -3376946.218 6  -2543842.29721
  23253033.398    -2297428.477 6  -1758941.59121
  20837923.7664    -790032.24146   -605133.85962
 91  4 15 20 43 30.0000000  0  4G18G 2G11G19
  20789855.961      587657.230 7    452649.37123
  23204777.0164   -3431173.95746  -2586097.52261
  23246428.594    -2332139.898 6  -1785989.35721
  20835595.3984    -802264.69346   -614665.63962
 91  4 15 20 43 45.0000000  0  4G18G 2G11G19
  20792229.508      600133.501 7    462371.08123
  23194467.133    -3485357.552 6  -2628318.34721
  23239842.797    -2366744.733 6  -1812954.06221
  20833274.8054    -814469.20846   -624175.64762
 91  4 15 20 44  0.0000000  0  4G18G 2G11G19
  20794623.664      612708.341 7    472169.60223
  23184165.8284   -3539496.69746  -2670504.53561
  23233277.9844   -2401242.39046  -1839835.25461
  20830958.5474    -826645.45546   -633663.63362
 91  4 15 20 44 15.0000000  0  4G18G 2G11G19
  20797034.328      625376.882 7    482041.14723
  23173869.5784   -3593596.12846  -2712659.79261
  23226734.969    -2435637.597 6  -1866636.60521
  20828645.1334    -838798.35646   -643133.42362
 91  4 15 20 44 30.0000000  0  4G18G 2G11G19
  20799464.992      638145.162 7    491990.40223
  23163584.1644   -3647649.42846  -2754779.08561
  23220210.750    -2469923.790 6  -1893353.02021
  20826338.2584    -850921.74046   -652580.21562
 91  4 15 20 44 45.0000000  0  4G18G 2G11G19
  20801912.266      651012.695 7    502017.00423
  23153305.3284   -3701656.55646  -2796862.40661
  23213704.2274   -2504100.89146  -1919984.43761
  20824036.3594    -863015.88446   -662004.22262
 91  4 15 20 45  0.0000000  0  4G18G 2G11G19
  20804379.664      663977.295 7    512119.23923
  23143038.430    -3755619.600 6  -2838911.37821
  23207221.344    -2538170.730 6  -1946532.25721
  20821741.7814    -875082.82446   -671407.03462
 91  4 15 20 45 15.0000000  0  4G18G 2G11G19
  20806867.195      677046.642 7    522303.09523
  23132778.7814   -3809531.05246  -2880920.15361
  23200761.086    -2572125.573 6  -1972990.47521
  20819449.5164    -887114.93746   -680782.70862
 91  4 15 20 45 30.0000000  0  4G18G 2G11G19
  20809371.961      690209.353 7    532559.70023
  23122528.4384   -3863401.91046  -2922897.28561
  23194316.711    -2605976.284 6  -1999367.54921
  20817167.9774    -899123.53746   -690140.05762
 91  4 15 20 45 45.0000000  0  4G18G 2G11G19
  20811893.594      703468.565 7    542891.50423
  23112284.8754   -3917228.69546  -2964840.07961
  23187896.055    -2639719.201 6  -2025660.63021
  20814883.4144    -911105.16046   -699476.38662
 91  4 15 20 46  0.0000000  0  4G18G 2G11G19
  20814434.953      716822.781 7    553297.33523
  23102049.961    -3971012.580 6  -3006749.44021
  23181496.742    -2673355.459 6  -2051870.59421
  20812607.9384    -923061.30746   -708792.86862
 91  4 15 20 46 15.0000000  0  4G18G 2G11G19
  20816994.602      730274.701 7    563779.30423
  23091823.7344   -4024750.86046  -3048623.27161
  23175117.6954   -2706882.19746  -2077995.23461
  20810339.0864    -934989.34046   -718087.43762
 91  4 15 20 46 30.0000000  0  4G18G 2G11G19
  20819574.109      743826.021 7    574338.72223
  23081604.7734   -4078441.48646  -3090459.97461
  23168757.2504   -2740297.35146  -2104032.92661
  20808077.5944    -946887.45746   -727358.69862
 91  4 15 20 46 45.0000000  0  4G18G 2G11G19
  20822171.547      757477.208 7    584975.95523
  23071395.6484   -4132083.96246  -3132259.14961
  23162420.0474   -2773600.05346  -2129982.98561
  20805817.8364    -958755.03746   -736606.16662
 91  4 15 20 47  0.0000000  0  4G18G 2G11G19
  20824788.813      771225.212 7    595688.63023
  23061196.8984   -4185681.10546  -3174023.00761
  23156103.758    -2806792.888 6  -2155847.43121
  20803563.4694    -970594.85746   -745832.00162
 91  4 15 20 47 15.0000000  0  4G18G 2G11G19
  20827424.5944     785076.34647    606481.66163
  23051009.5944   -4239226.22146  -3215746.31561
  23149810.1094   -2839869.02046  -2181620.94261
  20801318.2274    -982400.49646   -755031.20062
 91  4 15 20 47 30.0000000  0  4G18G 2G11G19
  20830078.0084     799024.37547    617350.19963
  23040827.9844   -4292725.28546  -3257433.75061
  23143535.430    -2872834.322 6  -2207308.09621
  20799077.5314    -994178.02746   -764208.49662
 91  4 15 20 47 45.0000000  0  4G18G 2G11G19
  20832750.430      813069.613 7    628294.48323
  23030656.0704   -4346177.98046  -3299085.05861
  23137285.1884   -2905688.31946  -2232908.51161
  20796840.4774   -1005927.20946   -773363.70862
 91  4 15 20 48  0.0000000  0  4G18G 2G11G19
  20835443.883      827215.758 7    639317.40223
  23020494.3754   -4399580.04246  -3340696.90261
  23131055.3444   -2938426.64546  -2258418.80061
  20794610.0704   -1017644.12246   -782493.77162
 91  4 15 20 48 15.0000000  0  4G18G 2G11G19
  20838153.7734     841461.99647    650418.30663
  23010341.0554   -4452932.17046  -3382269.83561
  23124843.9614   -2971049.85546  -2283839.39461
  20792387.5004   -1029329.45146   -791599.22462
 91  4 15 20 48 30.0000000  0  4G18G 2G11G19
  20840884.430      855808.900 7    661597.65823
  23000198.602    -4506233.791 6  -3423803.42721
  23118659.5944   -3003557.17146  -2309169.67661
  20790169.7974   -1040982.74246   -800679.71262
 91  4 15 20 48 45.0000000  0  4G18G 2G11G19
  20843632.977      870258.482 7    672857.01823
  22990065.0164   -4559482.43146  -3465295.72361
  23112494.313    -3035945.936 6  -2334407.57521
  20787959.4304   -1052601.45246   -809733.25162
 91  4 15 20 49  0.0000000  0  4G18G 2G11G19
  20846402.922      884812.981 7    684198.13323
  22979942.984    -4612676.101 6  -3506745.20121
  23106355.8914   -3068213.99446  -2359551.40161
  20785754.0164   -1064183.68747   -818758.37162
 91  4 15 20 49 15.0000000  0  4G18G 2G11G19
  20849191.352      899465.421 7    695615.55923
  22969828.9844   -4665821.01946  -3548156.68261
  23100237.242    -3100367.491 6  -2384605.97621
  20783557.0704   -1075735.87746   -827760.07662
 91  4 15 20 49 30.0000000  0  4G18G 2G11G19
  20851998.9614     914223.05047    707114.95163
  22959727.195    -4718909.932 6  -3589524.52421
  23094142.922    -3132398.955 6  -2409565.45421
  20781365.5944   -1087250.96847   -836732.87962
 91  4 15 20 49 45.0000000  0  5G18G 2G11G19G16
  20854827.9924     929082.58947    718693.75663
  22949633.5084   -4771946.02446  -3630851.19861
  23088070.781    -3164311.435 6  -2434432.22921
  20779181.5164   -1098732.29446   -845679.36362
  24158678.7034         -0.81755
 91  4 15 20 50  0.0000000  0  5G18G 2G11G19G16
  20857673.8594     944039.53247    730348.45663
  22939551.063    -4824933.536 6  -3672140.03621
  23082018.3594   -3196109.04746  -2459209.49061
  20777001.1724   -1110183.93346   -854602.72162
  24151986.9924     -35178.79545
 91  4 15 20 50 15.0000000  0  5G18G 2G11G19G16
  20860539.4144     959098.76847    742082.86263
  22929479.4534   -4877867.12446  -3713386.83861
  23075990.602    -3227786.338 6  -2483892.99121
  20774828.8284   -1121600.76746   -863498.94862
  24145311.2504     -70241.52045
 91  4 15 20 50 30.0000000  0  5G18G 2G11G19G16
  20863424.8444     974257.22647    753894.58663
  22919414.211    -4930749.691 6  -3754593.89921
  23069984.8364   -3259346.00246  -2508484.83561
  20772664.7974   -1132985.66846   -872370.29962
  24138660.4534    -105191.76445
 91  4 15 20 50 45.0000000  0  5G18G 2G11G19G16
  20866328.5394     989518.83047    765786.68063
  22909363.164    -4983577.034 6  -3795757.92621
  23064001.6564   -3290783.96746  -2532981.85561
  20770503.4224   -1144334.80746   -881213.78662
  24132035.5084    -140025.86545
 91  4 15 20 51  0.0000000  0  5G18G 2G11G19G16
  20869252.8754    1004879.06747    777755.63363
  22899319.422    -5036353.338 6  -3836882.18221
  23058042.633    -3322103.989 6  -2557386.97821
  20768348.9064   -1155652.54946   -890032.80562
  24125427.2664    -174747.61745        -0.44171
 91  4 15 20 51 15.0000000  0  5G18G 2G11G19G16
  20872192.9224    1020336.71447    789800.47863
  22889285.930    -5089079.780 6  -3877967.59221
  23052104.2814   -3353307.27646  -2581701.13761
  20766201.7114   -1166940.12046   -898828.31262
  24118841.289     -209358.306 5    -26969.81321
 91  4 15 20 51 30.0000000  0  5G18G 2G11G19G16
  20875154.1884    1035896.09447    801924.60563
  22879261.344    -5141751.987 6  -3919010.74021
  23046189.5474   -3384389.11846  -2605920.64861
  20764058.9774   -1178193.08646   -907596.85462
  24112274.4844    -243853.43944    -53849.14161
 91  4 15 20 51 44.9990000  0  5G18G 2G11G19G16
  20878134.0264    1051555.66447    814126.80563
  22869248.894    -5194366.560 6  -3960008.96721
  23040298.847    -3415347.304 6  -2630043.81021
  20761924.2764   -1189410.81946   -916337.94462
  24105728.6674    -278230.55444    -80636.49461
 91  4 15 20 51 59.9990000  0  5G18G 2G11G19G16
  20881133.8474    1067317.63347    826408.78963
  22859246.5504   -5246930.27746  -4000967.58061
  23034431.5034   -3446185.70646  -2654073.64761
  20759795.4484   -1200594.67446   -925052.63062
  24099212.7374    -312493.86544   -107335.19161
 91  4 15 20 52 14.9990000  0  5G18G 2G11G19G16
  20884151.9874    1083178.29547    838767.68563
  22849255.081    -5299441.797 6  -4041885.51721
  23028582.659    -3476904.385 6  -2678010.19821
  20757675.3234   -1211746.27146   -933742.18362
  24092713.6904    -346643.51044   -133945.27061
 91  4 15 20 52 29.9990000  0  5G18G 2G11G19G16
  20887189.5974    1099139.89347    851205.22463
  22839272.214    -5351898.835 6  -4082760.99921
  23022761.323    -3507500.796 6  -2701851.48621
  20755558.7374   -1222863.22946   -942404.75062
  24086237.222     -380676.986 4   -160464.87921
 91  4 15 20 52 44.9990000  0  5G18G 2G11G19G16
  20890245.5344    1115203.17647    863722.00663
  22829303.0734   -5404300.40746  -4123593.27461
  23016964.378    -3537973.841 6  -2725596.62521
  20753450.9254   -1233944.92146   -951039.82662
  24079781.4404    -414593.58044   -186893.36461
 91  4 15 20 52 59.9990000  0  5G18G 2G11G19G16
  20893321.7764    1131370.99247    876320.23763
  22819339.237    -5456643.449 6  -4164379.92221
  23011188.925    -3568320.524 6  -2749243.30921
  20751348.2224   -1244988.47547   -959645.19562
  24073355.1124    -448389.87144   -213228.14861
 91  4 15 20 53 14.9990000  0  5G18G 2G11G19G16
  20896418.2924    1147635.88547    888994.11163
  22809388.4954   -5508935.00146  -4205126.46061
  23005436.831    -3598547.697 6  -2772796.86821
  20749253.4094   -1256000.94746   -968226.33962
  24066942.7614    -482073.22344   -239474.89961
 91  4 15 20 53 29.9990000  0  5G18G 2G11G19G16
  20899532.0894    1163998.90647    901744.44463
  22799447.8704   -5561173.73246  -4245831.83961
  22999707.2374   -3628654.01746  -2796256.25361
  20747164.5424   -1266981.20646   -976782.38062
  24060556.9094    -515642.35745   -265632.65461
 91  4 15 20 53 44.9990000  0  5G18G 2G11G19G16
  20902665.2454    1180467.70047    914577.20663
  22789518.1754   -5613351.80846  -4286489.95161
  22994002.597    -3658631.208 6  -2819615.01621
  20745082.7224   -1277921.18246   -985307.03562
  24054187.667     -549089.164 4   -291695.07621
 91  4 15 20 53 59.9990000  0  5G18G 2G11G19G16
  20905818.542     1197038.777 7    927489.65923
  22779601.605    -5665472.820 6  -4327103.59121
  22988322.487    -3688482.606 6  -2842875.76621
  20743006.5034   -1288824.50846   -993803.12962
  24047849.6054    -582417.36345   -317665.09761
 91  4 15 20 54 14.9990000  0  5G18G 2G11G19G16
  20908991.1204    1213706.25547    940477.23663
  22769692.7144   -5717542.32546  -4367677.10661
  22982664.269    -3718213.681 6  -2866042.75621
  20740939.2614   -1299696.95646  -1002275.16562
  24041529.4564    -615632.20545   -343546.80861
 91  4 15 20 54 29.9990000  0  5G18G 2G11G19G16
  20912181.5734    1230476.34947    953544.77363
  22759795.6284   -5769553.71246  -4408205.33961
  22977030.8314   -3747817.85746  -2889110.85961
  20738877.0114   -1310532.12446  -1010718.15162
  24035231.3394    -648727.28045   -369335.18261
 91  4 15 20 54 44.9990000  0  5G18G 2G11G19G16
  20915393.1204    1247345.51847    966689.51163
  22749906.073    -5821510.349 6  -4448690.89721
  22971421.542    -3777298.376 6  -2912082.61221
  20736821.7224   -1321333.35846  -1019134.69362
  24028955.456     -681705.858 5   -395032.77721
 91  4 15 20 54 59.9990000  0  5G18G 2G11G19G16
  20918620.4724    1264312.50247    979910.47163
  22740029.9484   -5873413.16946  -4489134.53261
  22965833.987    -3806656.059 6  -2934958.65221
  20734772.0504   -1332101.70646  -1027525.61062
  24022699.9014    -714568.93445   -420640.38261
 91  4 15 20 55 14.9990000  0  5G18G 2G11G19G16
  20921868.1514    1281377.11247    993207.50463
  22730165.073    -5925262.086 6  -4529536.15921
  22960271.026    -3835890.665 6  -2957738.78821
  20732729.7694   -1342837.12846  -1035890.87262
  24016470.198     -747316.574 5   -446158.03221
 91  4 15 20 55 29.9990000  0  5G18G 2G11G19G16
  20925134.120     1298542.181 7   1006582.80923
  22720310.1284   -5977054.28646  -4569893.60161
  22954731.894    -3864999.271 6  -2980420.75021
  20730691.5734   -1353536.79346  -1044228.27662
  24010260.237     -779945.688 5   -471583.32221
 91  4 15 20 55 44.9990000  0  5G18G 2G11G19G16
  20928420.120     1315804.857 7   1020034.17123
  22710463.9014   -6028792.37446  -4610208.86861
  22949217.081    -3893984.244 6  -3003006.35721
  20728664.0504   -1364203.41046  -1052539.92262
  24004074.0264    -812458.60945   -496918.06461
 91  4 15 20 55 59.9990000  0  5G18G 2G11G19G16
  20931724.245     1333169.913 7   1033565.31323
  22700627.909    -6080471.163 6  -4650477.93321
  22943725.495    -3922840.406 6  -3025491.59821
  20726640.0114   -1374832.02646  -1060821.96262
  23997911.9254    -844850.66245   -522158.63761
 91  4 15 20 56 14.9990000  0  5G18G 2G11G19G16
  20935049.589     1350637.267 7   1047176.16423
  22690805.4804   -6132090.49046  -4690700.65761
  22938256.886    -3951567.441 6  -3047876.22421
  20724624.7144   -1385422.61446  -1069074.36462
  23991768.6514    -877121.47145   -547304.72661
 91  4 15 20 56 29.9990000  0  5G18G 2G11G19G16
  20938391.940     1368203.896 7   1060864.37323
  22680992.5034   -6183653.23146  -4730879.30161
  22932815.503    -3980168.227 6  -3070162.47921
  20722618.9094   -1395978.01746  -1077299.35162
  23985649.347     -909273.971 5   -572358.61321
 91  4 15 20 56 44.9990000  0  5G18G 2G11G19G16
  20941752.987     1385870.427 7   1074630.42423
  22671192.2924   -6235158.32546  -4771013.01061
  22927396.6834   -4008641.44346  -3092349.33261
  20720615.1904   -1406497.27346  -1085496.16862
  23979554.2844    -941306.86745   -597319.30161
 91  4 15 20 56 59.9990000  0  5G18G 2G11G19G16
  20945133.589     1403634.928 7   1088472.81923
  22661403.1904   -6286607.60046  -4811103.23961
  22922002.667    -4036988.658 6  -3114437.99421
  20718621.2694   -1416982.09246  -1093666.15862
  23973483.581     -973221.957 5   -622188.20521
 91  4 15 20 57 14.9990000  0  5G18G 2G11G19G16
  20948533.1594    1421498.18947   1102392.17163
  22651622.9174   -6337999.97946  -4851149.11661
  22916632.042    -4065208.810 6  -3136427.65021
  20716630.8784   -1427431.60846  -1101808.63562
  23967428.7764   -1005018.30745   -646964.57661
 91  4 15 20 57 29.9990000  0  5G18G 2G11G19G16
  20951950.394     1439461.039 7   1116389.12523
  22641853.9334   -6389334.65846  -4891150.04561
  22911285.526    -4093300.976 6  -3158317.56721
  20714650.0654   -1437845.26046  -1109923.16462
  23961406.1674   -1036695.19845   -671647.87761
 91  4 15 20 57 44.9990000  0  5G18G 2G11G19G16
  20955389.440     1457524.781 7   1130464.69923
  22632095.5504   -6440609.94446  -4931104.68561
  22905966.050    -4121263.254 6  -3180106.29121
  20712675.3784   -1448221.39446  -1118008.45962
  23955399.2224   -1068250.99045   -696236.79061
 91  4 15 20 57 59.9990000  0  5G18G 2G11G19G16
  20958846.128     1475689.602 7   1144619.02823
  22622349.948    -6491825.166 6  -4971012.54121
  22900670.253    -4149094.960 6  -3201793.25921
  20710710.8624   -1458559.44546  -1126064.09262
  23949414.987    -1099684.872 5   -720730.72421
 91  4 15 20 58 14.9990000  0  5G18G 2G11G19G16
  20962321.503     1493954.921 7   1158851.67523
  22612613.7304   -6542980.80646  -5010873.95461
  22895397.9334   -4176796.42346  -3223378.74661
  20708747.6054   -1468859.74246  -1134090.29162
  23943458.917    -1130997.174 5   -745129.93721
 91  4 15 20 58 29.9990000  0  5G18G 2G11G19G16
  20965816.394     1512319.405 7   1173161.58623
  22602891.0974   -6594078.17046  -5050689.96461
  22890150.6204   -4204368.83946  -3244863.68261
  20706794.0264   -1479123.75746  -1142088.22462
  23937520.2694   -1162189.21744   -769435.41661
 91  4 15 20 58 44.9990000  0  5G18G 2G11G19G16
  20969329.3314    1530781.14747   1187547.28963
  22593179.3944   -6645118.44846  -5090461.49061
  22884929.425    -4231813.443 6  -3266249.01121
  20704849.1444   -1489353.11246  -1150059.15162
  23931609.042    -1193262.464 4   -793648.34021
 91  4 15 20 58 59.9990000  0  5G18G 2G11G19G16
  20972862.4644    1549343.60647   1202011.47663
  22583477.3784   -6696098.19046  -5130185.84661
  22879729.651    -4259126.439 6  -3287531.79021
  20702908.5264   -1499544.15146  -1158000.21862
  23925720.1904   -1224213.09744   -817765.70461
 91  4 15 20 59 14.9990000  0  5G18G 2G11G19G16
  20976413.8944    1568006.31447   1216553.77363
  22573787.417    -6747017.926 6  -5169863.45321
  22874558.878    -4286308.179 6  -3308712.30021
  20700977.1594   -1509697.13646  -1165911.63662
  23919854.011    -1255041.737 4   -841788.01121
 91  4 15 20 59 29.9990000  0  5G18G 2G11G19G16
  20979983.8784    1586767.92547   1231173.14163
  22564108.948    -6797878.514 6  -5209494.96721
  22869412.972    -4313359.511 6  -3329791.18221
  20699050.5424   -1519813.27346  -1173794.34062
  23914008.534    -1285749.184 5   -865715.88121
 91  4 15 20 59 44.9990000  0  5G18G 2G11G19G16
  20983574.308     1605630.115 7   1245870.88123
  22554441.2454   -6848677.91046  -5249078.78761
  22864289.558    -4340278.529 6  -3350766.96521
  20697134.0584   -1529890.67446  -1181646.86462
  23908190.9564   -1316333.74544   -889548.03261
 91  4 15 20 59 59.9990000  0  5G18G 2G11G19G16
  20987181.456     1624592.242 7   1260646.48823
  22544787.339    -6899416.607 6  -5288615.32521
  22859191.9404   -4367065.43446  -3371639.81261
  20695224.0654   -1539929.67446  -1189469.46162
  23902391.8784   -1346795.86645   -913284.73961
 91  4 15 21  0 14.9990000  0  5G18G 2G11G19G16
  20990808.761     1643654.425 7   1275500.06523
  22535142.925    -6950094.564 6  -5328104.52621
  22854117.0264   -4393719.74646  -3392409.34361
  20693320.8474   -1549930.21646  -1197262.09362
  23896620.8944   -1377135.13345   -936925.72361
 91  4 15 21  0 29.9990000  0  5G18G 2G11G19G16
  20994454.636     1662814.573 7   1290429.97623
  22525512.894    -7000713.492 6  -5367547.73821
  22849071.3704   -4420243.28646  -3413076.97461
  20691424.3784   -1559894.28546  -1205026.30562
  23890869.8084   -1407353.78145   -960472.72261
 91  4 15 21  0 44.9990000  0  5G18G 2G11G19G16
  20998118.980     1682067.396 7   1305432.10123
  22515888.472    -7051278.182 6  -5406948.68421
  22844047.909    -4446640.690 6  -3433646.30621
  20689533.0974   -1569826.83446  -1212765.95362
  23885139.3154   -1437456.18445   -983929.14661
 91  4 15 21  0 59.9990000  0  5G18G 2G11G19G16
  21001801.6984    1701422.42047   1320513.86663
  22506278.8474   -7101778.75046  -5446299.65661
  22839050.2454   -4472902.10546  -3454109.68061
  20687652.3154   -1579717.95946  -1220473.32362
  23879435.7374   -1467432.55645  -1007287.34761
 91  4 15 21  1 14.9990000  0  5G18G 2G11G19G16
  21005504.644     1720878.621 7   1335674.46723
  22496679.2534   -7152216.38346  -5485601.59261
  22834081.269    -4499028.515 6  -3474467.85721
  20685777.6444   -1589568.85446  -1228149.34962
  23873755.167    -1497283.943 5  -1030548.13421
 91  4 15 21  1 29.9990000  0  5G18G 2G11G19G16
  21009227.175     1740433.341 7   1350911.83323
  22487094.1054   -7202593.11646  -5524856.07461
  22829132.2924   -4525021.93946  -3494722.40461
  20683909.3624   -1599381.71446  -1235795.73162
  23868102.3154   -1527012.53845  -1053713.26461
 91  4 15 21  1 44.9990000  0  5G18G 2G11G19G16
  21012965.355     1760082.982 7   1366223.16423
  22477518.597    -7252912.663 6  -5564066.00021
  22824212.6204   -4550886.09146  -3514876.22661
  20682048.5894   -1609160.39646  -1243415.48362
  23862464.9724   -1556622.19245  -1076785.72061
 91  4 15 21  1 59.9990000  0  5G18G 2G11G19G16
  21016721.972     1779826.780 7   1381607.86823
  22467953.0814   -7303175.54246  -5603231.76161
  22819313.6904   -4576621.26946  -3534929.53661
  20680194.0034   -1618905.41446  -1251009.00562
  23856852.7844   -1586113.21645  -1099765.73261
 91  4 15 21  2 14.9990000  0  6G18G 2G11G19G16G 6
  21020497.589     1799668.988 7   1397069.25223
  22458399.948    -7353376.960 6  -5642349.63821
  22814441.2144   -4602222.42146  -3554878.42661
  20678348.4874   -1628611.82746  -1258572.44562
  23851261.6594   -1615481.14245  -1122649.80761
  24198076.9334         -0.50154
 91  4 15 21  2 29.9990000  0  6G18G 2G11G19G16G 6
  21024292.073     1819610.720 7   1412608.18723
  22448859.378    -7403515.498 6  -5681418.51421
  22809596.4174   -4627688.20846  -3574721.84061
  20676505.7534   -1638278.36446  -1266104.81362
  23845697.105    -1644724.249 5  -1145436.63821
  24189582.2844     -44623.75844
 91  4 15 21  2 44.9990000  0  6G18G 2G11G19G16G 6
  21028106.683     1839650.618 7   1428223.61923
  22439330.409    -7453592.195 6  -5720439.20621
  22804773.284    -4653019.474 6  -3594460.41121
  20674675.1284   -1647906.06146  -1273606.91162
  23840158.6284   -1673843.56345  -1168126.99861
  24181095.0504     -89243.17644
 91  4 15 21  2 59.9990000  0  6G18G 2G11G19G16G 6
  21031939.269     1859788.505 7   1443915.40323
  22429812.2764   -7503607.21746  -5759411.82961
  22799979.4804   -4678216.33346  -3614094.26961
  20672849.5344   -1657495.41146  -1281079.13262
  23834642.5344   -1702839.31045  -1190721.07961
  24172600.6834    -133859.12344
 91  4 15 21  3 14.9990000  0  6G18G 2G11G19G16G 6
  21035790.136     1880026.315 7   1459685.04923
  22420307.183    -7553558.546 6  -5798334.83521
  22795209.7614   -4703276.72146  -3633621.77961
  20671035.9254   -1667044.28846  -1288519.81362
  23829146.5894   -1731709.37245  -1213217.22961
  24164115.5194    -178469.63444
 91  4 15 21  3 29.9990000  0  6G18G 2G11G19G16G 6
  21039659.558     1900364.002 7   1475532.52123
  22410811.487    -7603445.848 6  -5837207.94421
  22790469.5114   -4728200.10546  -3653042.53361
  20669223.2064   -1676552.32446  -1295928.66562
  23823675.1674   -1760453.73445  -1235615.42261
  24155623.9874    -223074.38844
 91  4 15 21  3 44.9990000  0  6G18G 2G11G19G16G 6
  21043548.565     1920803.129 7   1491459.03523
  22401334.0734   -7653267.53146  -5876029.92061
  22785750.151    -4752984.825 6  -3672355.25621
  20667425.1054   -1686017.93846  -1303304.47062
  23818231.831    -1789070.654 5  -1257914.30321
  24147140.4564    -267672.16444
 91  4 15 21  3 59.9990000  0  6G18G 2G11G19G16G 6
  21047454.925     1941336.825 7   1507459.23923
  22391864.042    -7703029.633 6  -5914805.47021
  22781059.0584   -4777636.74846  -3691564.47761
  20665631.9334   -1695447.25346  -1310651.98662
  23812811.0894   -1817566.16945  -1280118.57961
  24138653.386     -312269.015 4
 91  4 15 21  4 14.9990000  0  6G18G 2G11G19G16G 6
  21051382.433     1961966.662 7   1523534.35623
  22382405.034    -7752730.854 6  -5953533.58121
  22776394.0814   -4802154.60546  -3710669.23161
  20663843.2614   -1704839.21646  -1317970.39562
  23807409.9874   -1845938.81745  -1302227.13561
  24130167.5734    -356863.90444
 91  4 15 21  4 29.9990000  0  6G18G 2G11G19G16G 6
  21055326.526     1982695.079 7   1539686.28823
  22372958.909    -7802368.417 6  -5992212.08921
  22771756.2224   -4826535.42446  -3729667.20461
  20662061.8314   -1714191.00446  -1325257.50162
  23802033.6754   -1874185.99645  -1324237.92561
  24121684.308     -401454.149 4        -0.10631
 91  4 15 21  4 44.9990000  0  6G18G 2G11G19G16G 6
  21059288.792     2003519.599 7   1555913.11423
  22363526.0264   -7851944.37446  -6030842.58961
  22767140.409    -4850781.274 6  -3748560.02021
  20660290.4014   -1723504.81946  -1332515.01362
  23796683.386    -1902309.918 5  -1346152.66721
  24113194.5584    -446041.99344    -34743.78661
 91  4 15 21  4 59.9990000  0  6G18G 2G11G19G16G 6
  21063270.995     2024439.738 7   1572214.44123
  22354105.003    -7901458.917 6  -6069425.24821
  22762553.456    -4874892.351 6  -3767347.83221
  20658524.3154   -1732780.93446  -1339743.15062
  23791350.5654   -1930310.96545  -1367971.68461
  24104714.331     -490627.815 4    -69485.84821
 91  4 15 21  5 14.9990000  0  6G18G 2G11G19G16G 6
  21067270.831     2045457.780 7   1588592.05623
  22344693.9724   -7950909.63146  -6107958.15161
  22757990.6594   -4898866.06846  -3786028.57961
  20656767.0264   -1742016.85246  -1346939.96662
  23786048.237    -1958186.259 5  -1389692.69321
  24096225.745     -535209.177 4   -104224.44421
 91  4 15 21  5 29.9990000  0  6G18G 2G11G19G16G 6
  21071287.815     2066570.431 7   1605043.39123
  22335295.120    -8000299.490 6  -6146443.64621
  22753455.3394   -4922705.33446  -3804604.56061
  20655016.1444   -1751215.73146  -1354107.92162
  23780769.7224   -1985938.96245  -1411318.18761
  24087744.2454    -579789.51744   -138962.29061
 91  4 15 21  5 44.9990000  0  6G18G 2G11G19G16G 6
  21075325.581     2087780.971 7   1621571.00423
  22325908.183    -8049625.194 6  -6184879.14621
  22748945.5194   -4946406.58246  -3823073.00361
  20653274.4874   -1760374.06646  -1361244.27962
  23775510.2144   -2013565.91345  -1432845.68961
  24079263.300     -624365.318 4   -173696.53821
 91  4 15 21  5 59.9990000  0  6G18G 2G11G19G16G 6
  21079378.737     2109087.938 7   1638173.75523
  22316533.8004   -8098887.62246  -6223265.33961
  22744461.573    -4969970.660 6  -3841434.57221
  20651538.0814   -1769492.83946  -1368349.81262
  23770277.300    -2041067.988 5  -1454275.90721
  24070781.972     -668937.798 4   -208428.21021
 91  4 15 21  6 14.9990000  0  6G18G 2G11G19G16G 6
  21083451.159     2130489.617 7   1654850.30523
  22307169.323    -8148088.327 6  -6261603.43921
  22740000.292    -4993399.048 6  -3859690.41721
  20649811.4174   -1778573.79146  -1375425.87962
  23765067.386    -2068446.549 5  -1475609.87121
  24062295.0734    -713508.51543   -243158.53861
 91  4 15 21  6 29.9990000  0  6G18G 2G11G19G16G 6
  21087541.878     2151984.442 7   1671599.43923
  22297820.183    -8197228.772 6  -6299894.57921
  22735569.456    -5016693.198 6  -3877841.63721
  20648088.7374   -1787618.26646  -1382473.51462
  23759880.776    -2095703.193 5  -1496848.82921
  24053816.761     -758079.185 3   -277888.79021
 91  4 15 21  6 44.9990000  0  6G18G 2G11G19G16G 6
  21091650.987     2173576.517 7   1688424.34823
  22288481.019    -8246304.655 6  -6338135.41721
  22731164.620    -5039848.689 6  -3895884.82321
  20646375.9724   -1796621.98046  -1389489.38962
  23754717.105    -2122833.376 5  -1517989.24421
  24045333.831     -802645.601 3   -312615.74321
 91  4 15 21  6 59.9990000  0  6G18G 2G11G19G16G 6
  21095779.597     2195265.278 7   1705324.59723
  22279153.2924   -8295316.29146  -6376326.18261
  22726783.464    -5062865.544 6  -3913819.98621
  20644671.9334   -1805585.26846  -1396473.76762
  23749578.6754   -2149837.55545  -1539031.47561
  24036853.050     -847208.186 3   -347339.70121
 91  4 15 21  7 14.9990000  0  6G18G 2G11G19G16G 6
  21099925.214     2217051.319 7   1722300.64723
  22269840.3314   -8344262.82446  -6414466.22761
  22722429.776    -5085742.974 6  -3931646.50421
  20642972.9874   -1814507.45446  -1403426.11462
  23744463.417    -2176715.000 5  -1559974.94421
  24028379.3314    -891766.18143   -382060.06661
 91  4 15 21  7 29.9990000  0  6G18G 2G11G19G16G 6
  21104089.308     2238931.080 7   1739349.72823
  22260536.6444   -8393147.31146  -6452557.91861
  22718098.1444   -5108484.16646  -3949366.85561
  20641280.9874   -1823391.75646  -1410348.93962
  23739373.4874   -2203469.05145  -1580822.30561
  24019896.175     -936323.023 3   -416779.52921
 91  4 15 21  7 44.9990000  0  6G18G 2G11G19G16G 6
  21108270.683     2260909.976 7   1756476.05823
  22251247.378    -8441964.101 6  -6490596.86122
  22713802.175    -5131083.332 6  -3966976.54121
  20639601.4094   -1832232.49246  -1417237.82162
  23734306.2224   -2230094.16245  -1601569.13561
  24011416.753     -980873.207 3   -451493.83121
 91  4 15 21  7 59.9990000  0  6G18G 2G11G19G16G 6
  21112470.612     2282987.617 7   1773679.33223
  22241970.2844   -8490713.49346  -6528583.28562
  22709529.3474   -5153540.40546  -3984475.52961
  20637924.6054   -1841029.79546  -1424092.85862
  23729263.2064   -2256590.31045  -1622215.50361
  24002941.4724   -1025416.92043   -486203.08761
 91  4 15 21  8 14.9990000  0  6G18G 2G11G19G16G 6
  21116692.245     2305163.216 7   1790958.94023
  22232706.300    -8539396.047 6  -6566517.62822
  22705280.933    -5175856.000 6  -4001864.25521
  20636261.4804   -1849784.47246  -1430914.67762
  23724247.1594   -2282958.01645  -1642761.76361
  23994466.198    -1069954.943 3   -520907.90621
 91  4 15 21  8 29.9990000  0  6G18G 2G11G19G16G 6
  21120929.073     2327434.511 7   1808313.11123
  22223455.730    -8588013.606 6  -6604401.33322
  22701060.495    -5198032.050 6  -4019144.24521
  20634601.4644   -1858498.45346  -1437704.78362
  23719253.105    -2309199.525 5  -1663209.72321
  23985992.620    -1114489.333 4   -555609.88521
 91  4 15 21  8 44.9990000  0  6G18G 2G11G19G16G 6
  21125185.386     2349799.939 7   1825740.63823
  22214214.636    -8636567.645 6  -6642235.53122
  22696867.636    -5220069.763 6  -4036316.44121
  20632952.0194   -1867173.14146  -1444464.27662
  23714281.4334   -2335315.86045  -1683560.13161
  23977519.823    -1159021.499 4   -590310.12121
 91  4 15 21  8 59.9990000  0  6G18G 2G11G19G16G 6
  21129458.855     2372258.392 7   1843240.64723
  22204987.4644   -8685058.98346  -6680020.87462
  22692698.667    -5241969.910 6  -4053381.45021
  20631309.3784   -1875809.32246  -1451193.76862
  23709336.878    -2361307.758 5  -1703813.56721
  23969043.628    -1203552.522 4   -625009.47121
 91  4 15 21  9 14.9990000  0  6G18G 2G11G19G16G 6
  21133751.948     2394810.527 7   1860813.66523
  22195770.8394   -8733486.47046  -6717756.46362
  22688558.980    -5263731.369 6  -4070338.38421
  20629672.1834   -1884406.00946  -1457892.47662
  23704416.2924   -2387174.58545  -1723969.55561
  23960571.7374   -1248081.39945   -659707.14561
 91  4 15 21  9 29.9990000  0  6G18G 2G11G19G16G 6
  21138061.792     2417456.592 7   1878459.87123
  22186569.2304   -8781849.67046  -6755441.95862
  22684445.073    -5285353.605 6  -4087186.83121
  20628044.0654   -1892962.70746  -1464560.02962
  23699517.058    -2412915.917 5  -1744027.75221
  23952099.3474   -1292607.67845   -694402.78761
 91  4 15 21  9 44.9990000  0  6G18G 2G11G19G16G 6
  21142387.019     2440199.258 7   1896181.34523
  22177377.940    -8830145.749 6  -6793075.16021
  22680357.480    -5306833.694 6  -4103924.51121
  20626424.9564   -1901476.67246  -1471194.28462
  23694643.253    -2438528.874 5  -1763985.91721
  23943625.6364   -1337128.98945   -729094.55161
 91  4 15 21  9 59.9990000  0  6G18G 2G11G19G16G 6
  21146735.855     2463042.851 7   1913981.46223
  22168201.589    -8878370.447 6  -6830652.74221
  22676296.4334   -5328167.07346  -4120547.88661
  20624814.0424   -1909943.49346  -1477791.80362
  23689796.472    -2464009.080 5  -1783840.64721
  23935156.2224   -1381640.96045   -763779.04661
 91  4 15 21 10 14.9990000  0  6G18G 2G11G19G16G 6
  21151101.331     2485983.321 7   1931857.07623
  22159036.581    -8926527.280 6  -6868177.44221
  22672265.7304   -5349357.39946  -4137059.79661
  20623207.9644   -1918366.78746  -1484355.40562
  23684969.5894   -2489359.82145  -1803594.49561
  23926684.6754   -1426147.36345   -798459.19661
 91  4 15 21 10 29.9990000  0  6G18G 2G11G19G16G 6
  21155484.526     2509014.564 7   1949803.41923
  22149884.331    -8974622.153 6  -6905653.85921
  22668259.292    -5370410.568 6  -4153464.81521
  20621617.9804   -1926752.66046  -1490889.84962
  23680170.7924   -2514587.40745  -1823252.35161
  23918216.5504   -1470654.21945   -833139.73761
 91  4 15 21 10 44.9990000  0  6G18G 2G11G19G16G 6
  21159885.034     2532139.279 7   1967822.59323
  22140744.042    -9022652.161 6  -6943079.73222
  22664277.362    -5391323.299 6  -4169760.40221
  20620024.9644   -1935097.93746  -1497392.65962
  23675393.9564   -2539688.79045  -1842811.88061
  23909748.269    -1515158.567 5   -867818.30121
 91  4 15 21 10 59.9990000  0  6G18G 2G11G19G16G 6
  21164302.597     2555360.290 7   1985916.80023
  22131617.495    -9070613.965 6  -6980452.46321
  22660326.8554   -5412092.41046  -4185944.08561
  20618445.1514   -1943399.64246  -1503861.52162
  23670641.065    -2564661.219 5  -1862270.93121
  23901277.909    -1559657.372 5   -902492.53421
 91  4 15 21 11 14.9990000  0  6G18G 2G11G19G16G 6
  21168739.808     2578675.442 7   2004084.36923
  22122502.8154   -9118509.44546  -7017773.51162
  22656401.823    -5432719.805 6  -4202017.33821
  20616872.3864   -1951659.70446  -1510297.92862
  23665911.6284   -2589506.52845  -1881630.90261
  23892812.769    -1604152.727 5   -937164.08921
 91  4 15 21 11 29.9990000  0  6G18G 2G11G19G16G 6
  21173194.9174    2602086.83447   2022326.92863
  22113402.065    -9166336.489 6  -7055041.23022
  22652503.7144   -5453203.16646  -4217978.36361
  20615312.4094   -1959875.81946  -1516700.09562
  23661211.034    -2614222.059 5  -1900889.77021
  23884347.1204   -1648642.62845   -971831.43461
 91  4 15 21 11 44.9990000  0  6G18G 2G11G19G16G 6
  21177668.620     2625592.358 7   2040642.83323
  22104313.175    -9214096.806 6  -7092256.95622
  22648632.183    -5473544.320 6  -4233828.57621
  20613755.8394   -1968049.89646  -1523069.50562
  23656531.659    -2638809.669 5  -1920048.96221
  23875882.019    -1693128.854 4  -1006495.89121
 91  4 15 21 11 59.9990000  0  6G18G 2G11G19G16G 6
  21182159.308     2649189.996 7   2059030.51723
  22095237.831    -9261792.014 6  -7129421.95122
  22644788.839    -5493744.901 6  -4249569.24421
  20612205.5114   -1976183.70546  -1529407.53862
  23651877.2374   -2663271.32445  -1939110.00461
  23867414.784    -1737613.275 4  -1041158.98521
 91  4 15 21 12 14.9990000  0  6G18G 2G11G19G16G 6
  21186666.940     2672881.843 7   2077491.61123
  22086174.925    -9309420.100 6  -7166534.63822
  22640973.3624   -5513802.53846  -4265198.52861
  20610667.5034   -1984274.90746  -1535712.37162
  23647244.355    -2687604.759 5  -1958071.12721
  23858949.589    -1782093.881 3  -1075819.05421
 91  4 15 21 12 29.9990000  0  6G18G 2G11G19G16G 6
  21191194.862     2696669.711 7   2096027.52523
  22077123.737    -9356979.044 6  -7203593.44422
  22637182.5264   -5533715.26546  -4280714.90361
  20609135.4564   -1992321.53646  -1541982.46862
  23642639.3314   -2711808.30845  -1976931.05261
  23850485.3084   -1826568.71343  -1110474.64861
 91  4 15 21 12 44.9990000  0  6G18G 2G11G19G16G 6
  21195738.409     2720553.186 7   2114637.93523
  22068087.315    -9404468.608 6  -7240598.19222
  22633420.3084   -5553482.86946  -4296118.19161
  20607613.1364   -2000323.47646  -1548217.74662
  23638059.4334   -2735881.77445  -1995689.58661
  23842026.925    -1871037.842 3  -1145125.78221
 91  4 15 21 12 59.9990000  0  6G18G 2G11G19G16G 6
  21200301.6514    2744528.79547   2133320.13963
  22059063.636    -9451892.341 6  -7277551.64622
  22629685.3624   -5573108.70746  -4311411.01661
  20606097.2304   -2008284.26046  -1554420.95262
  23633504.4954   -2759828.52345  -2014349.43561
  23833564.847    -1915504.674 3  -1179775.14721
 91  4 15 21 13 14.9990000  0  6G18G 2G11G19G16G 6
  21204882.6444    2768596.38147   2152074.01963
  22050051.901    -9499249.945 6  -7314453.57422
  22625978.230    -5592592.440 6  -4326593.10821
  20604591.6594   -2016203.58146  -1560591.84962
  23628968.667    -2783648.106 5  -2032910.14421
  23825099.472    -1959969.076 3  -1214422.57621
 91  4 15 21 13 29.9990000  0  6G18G 2G11G19G16G 6
  21209479.5814    2792758.44847   2170901.51263
  22041050.8154   -9546538.90446  -7351302.01362
  22622298.183    -5611931.422 6  -4341662.41221
  20603093.1984   -2024078.88246  -1566728.44462
  23624460.3394   -2807338.22145  -2051370.00061
  23816640.4094   -2004428.57243  -1249066.18861
 91  4 15 21 13 44.9990000  0  6G18G 2G11G19G16G 6
  21214096.1124    2817014.80647   2189802.47662
  22032067.3474   -9593759.02046  -7388096.81462
  22618644.6754   -5631125.44646  -4356618.75661
  20601602.7304   -2031910.19046  -1572830.76062
  23619977.9644   -2830898.59745  -2069728.74061
  23808181.0734   -2048883.18943  -1283706.01061
 91  4 15 21 13 59.9990000  0  6G18G 2G11G19G16G 6
  21218726.6364    2841361.25747   2208773.64563
  22023093.1444   -9640914.33646  -7424841.12062
  22615019.7064   -5650178.52146  -4371465.26461
  20600120.9334   -2039701.43346  -1578901.85762
  23615521.4014   -2854333.58745  -2087989.79961
  23799724.7374   -2093337.14544  -1318345.29961
 91  4 15 21 14 14.9990000  0  6G18G 2G11G19G16G 6
  21223378.3314    2865801.48747   2227817.88762
  22014131.9644   -9688000.53846  -7461531.57162
  22611419.917    -5669086.403 6  -4386198.63221
  20598647.1674   -2047448.27346  -1584938.35262
  23611084.9874   -2877638.90245  -2106149.80061
  23791263.7534   -2137786.28744  -1352980.83761
 91  4 15 21 14 29.9990000  0  6G18G 2G11G19G16G 6
  21228046.3704    2890332.16947   2246932.61863
  22005184.7534   -9735020.91446  -7498170.73362
  22607850.6984   -5687852.22846  -4400821.31661
  20597179.3084   -2055153.99246  -1590942.81462
  23606673.214    -2900817.975 5  -2124211.41721
  23782804.120    -2182233.897 5  -1387615.20621
 91  4 15 21 14 44.9990000  0  6G18G 2G11G19G16G 6
  21232733.2534    2914955.92847   2266119.87362
  21996250.0264   -9781972.52946  -7534756.31162
  22604307.9404   -5706472.99746  -4415330.97761
  20595722.0654   -2062815.90946  -1596913.13962
  23602287.433    -2923867.905 5  -2142172.42221
  23774347.401    -2226677.324 5  -1422246.30021
 91  4 15 21 14 59.9990000  0  6G18G 2G11G19G16G 6
  21237437.2454    2939674.38647   2285380.91463
  21987329.3084   -9828853.10046  -7571286.53262
  22600792.386    -5724946.602 6  -4429725.96521
  20594273.6514   -2070431.76946  -1602847.57862
  23597925.0424   -2946786.13745  -2160030.79961
  23765892.870    -2271114.477 5  -1456872.48521
 91  4 15 21 15 14.9990000  0  6G18G 2G11G19G16G 6
  21242159.6204    2964486.96947   2304715.30263
  21978420.870    -9875663.705 6  -7607762.22422
  22597303.0894   -5743273.75746  -4444006.82861
  20592832.4644   -2078002.46246  -1608746.82162
  23593588.9564   -2969573.86645  -2177787.52161
  23757435.9174   -2315546.21445  -1491494.47061
 91  4 15 21 15 29.9990000  0  6G18G 2G11G19G16G 6
  21246898.0034    2989393.33647   2324122.76462
  21969527.440    -9922404.111 6  -7644183.21422
  22593844.9404   -5761454.29946  -4458173.46061
  20591402.3704   -2085527.92246  -1614610.82262
  23589277.0504   -2992231.07545  -2195442.47361
  23748984.2064   -2359972.70245  -1526112.35961
 91  4 15 21 15 44.9990000  0  6G18G 2G11G19G16G 6
  21251655.7614    3014391.97447   2343602.13562
  21960644.3624   -9969075.48246  -7680550.41962
  22590414.315    -5779489.316 6  -4472226.68021
  20589977.3474   -2093009.17946  -1620440.37362
  23584988.690    -3014758.983 5  -2212996.71321
  23740528.8944   -2404395.06645  -1560727.05161
 91  4 15 21 15 59.9990000  0  6G18G 2G11G19G16G 6
  21256430.3624    3039480.91147   2363151.86662
  21951776.089   -10015679.769 6  -7716865.34522
  22587008.8394   -5797380.69846  -4486167.98161
  20588560.5344   -2100448.36046  -1626237.14362
  23580727.128    -3037159.682 5  -2230451.81121
  23732076.9094   -2448815.40045  -1595340.14461
 91  4 15 21 16 14.9990000  0  6G18G 2G11G19G16G 6
  21261221.6904    3064659.40247   2382771.38563
  21942920.3474  -10062217.49746  -7753128.41062
  22583632.276    -5815128.958 6  -4499997.77421
  20587152.7844   -2107845.90146  -1632001.46062
  23576488.1834   -3059433.57545  -2247808.11661
  23723626.0894   -2493234.29845  -1629952.11861
 91  4 15 21 16 29.9990000  0  6G18G 2G11G19G16G 6
  21266030.9014    3089933.24747   2402465.20062
  21934078.8624  -10108682.21246  -7789334.58562
  22580283.6904   -5832727.69446  -4513711.03461
  20585752.6364   -2115195.33146  -1637728.29762
  23572275.4564   -3081574.16445  -2265060.53661
  23715170.948    -2537645.455 5  -1664558.07221
 91  4 15 21 16 44.9990000  0  6G18G 2G11G19G16G 6
  21270857.5974    3115298.04147   2422229.88563
  21925248.8234  -10155078.26046  -7825487.25462
  22576959.2844   -5850180.99946  -4527310.97661
  20584364.7224   -2122500.88646  -1643420.93862
  23568087.042    -3103585.695 5  -2282212.37921
  23706722.0974   -2582053.33445  -1699161.45561
 91  4 15 21 16 59.9990000  0  6G18G 2G11G19G16G 6
  21275702.073     3140751.789 7   2442063.88922
  21916434.003   -10201407.211 6  -7861587.63422
  22573665.269    -5867490.572 6  -4540798.91821
  20582981.7534   -2129764.46346  -1649080.87462
  23563923.198    -3125470.265 5  -2299265.32921
  23698274.292    -2626459.734 4  -1733763.68921
 91  4 15 21 17 14.9990000  0  6G18G 2G11G19G16G 6
  21280561.5424    3166298.35247   2461970.21662
  21907630.2764  -10247665.15546  -7897632.68862
  22570400.6284   -5884652.42846  -4554171.75961
  20581609.5734   -2136982.01846  -1654704.94762
  23559784.6124   -3147223.92045  -2316216.22661
  23689820.9014   -2670860.77644  -1768361.73961
 91  4 15 21 17 29.9990000  0  6G18G 2G11G19G16G 6
  21285441.4804    3191935.38847   2481947.04362
  21898840.6284  -10293854.26046  -7933624.10362
  22567162.5894   -5901668.58246  -4567431.07061
  20580242.3084   -2144155.60946  -1660294.76162
  23555667.3864   -3168848.85945  -2333066.84561
  23681369.6444   -2715258.61243  -1802957.29561
 91  4 15 21 17 44.9990000  0  6G18G 2G11G19G16G 6
  21290337.9564    3217663.68247   2501994.97862
  21890066.089   -10339973.251 6  -7969560.88022
  22563952.9334   -5918537.83646  -4580575.91061
  20578888.2924   -2151283.96646  -1665849.32962
  23551578.0654   -3190343.75145  -2349816.12661
  23672927.784    -2759652.206 3  -1837549.54521
 91  4 15 21 17 59.9990000  0  6G18G 2G11G19G16G 6
  21295248.8004    3243480.31047   2522111.74362
  21881302.097   -10386024.970 6  -8005445.23622
  22560770.9874   -5935262.94746  -4593608.43861
  20577537.8154   -2158369.91446  -1671370.85062
  23547511.7764   -3211711.28545  -2366466.18561
  23664473.5584   -2804044.46243  -1872140.73461
 91  4 15 21 18 14.9990000  0  6G18G 2G11G19G16G 6
  21300179.2064    3269384.83947   2542297.00162
  21872550.300   -10432009.149 6  -8041276.96122
  22557615.9254   -5951843.75046  -4606528.51261
  20576197.6204   -2165413.40546  -1676859.28962
  23543470.605    -3232951.542 5  -2383017.04921
  23656029.323    -2848435.275 3  -1906730.82121
 91  4 15 21 18 29.9990000  0  6G18G 2G11G19G16G 6
  21305126.1674    3295378.55747   2562551.75662
  21863814.003   -10477924.537 6  -8077055.08322
  22554487.5894   -5968278.93746  -4619335.11461
  20574865.2144   -2172413.00546  -1682313.52962
  23539452.0894   -3254063.40145  -2399467.88061
  23647582.175    -2892823.456 3  -1941318.87121
 91  4 15 21 18 44.9990000  0  6G18G 2G11G19G16G 6
  21310089.0424    3321461.97047   2582876.40562
  21855089.214   -10523770.532 6  -8112779.13522
  22551386.6904   -5984567.82546  -4632027.72761
  20573542.3234   -2179368.14146  -1687733.11962
  23535460.995    -3275046.314 5  -2415818.22021
  23639135.456    -2937208.519 4  -1975904.49321
 91  4 15 21 18 59.9990000  0  6G18G 2G11G19G16G 6
  21315070.6204    3347633.53747   2603269.74562
  21846378.315   -10569548.169 6  -8148449.91822
  22548314.9644   -6000711.44746  -4644607.13161
  20572225.9954   -2186279.91946  -1693118.92662
  23531491.0194   -3295901.22845  -2432068.83961
  23630687.542    -2981591.562 4  -2010488.53721
 91  4 15 21 19 14.9990000  0  6G18G 2G11G19G16G 6
  21320068.0264    3373898.93547   2623736.20062
  21837682.519   -10615251.536 6  -8184062.83222
  22545272.7694   -6016704.08046  -4657068.89361
  20570921.6594   -2193142.48546  -1698466.38662
  23527544.4564   -3316622.54845  -2448215.32261
  23622245.519    -3025966.895 5  -2045066.59321
 91  4 15 21 19 29.9990000  0  6G18G 2G11G19G16G 6
  21325082.839     3400251.954 7   2644270.93722
  21828996.690   -10660886.692 6  -8219622.58822
  22542258.300    -6032551.523 6  -4669417.52421
  20569625.2144   -2199961.76846  -1703780.11762
  23523629.995    -3337216.217 5  -2464262.38521
  23613803.878    -3070340.576 5  -2079643.32721
 91  4 15 21 19 44.9990000  0  6G18G 2G11G19G16G 6
  21330115.6594    3426694.58647   2664875.49762
  21820326.894   -10706451.713 6  -8255127.70022
  22539271.269    -6048251.486 6  -4681651.23221
  20568334.9954   -2206735.66846  -1709058.48462
  23519734.0114   -3357680.04945  -2480208.21261
  23605363.3234   -3114710.51845  -2114217.18561
 91  4 15 21 19 59.9990000  0  6G18G 2G11G19G16G 6
  21335161.9874    3453221.80847   2685545.96562
  21811667.9874  -10751951.15946  -8290581.71762
  22536309.1904   -6063808.70546  -4693773.70361
  20567052.3864   -2213468.97546  -1714305.22462
  23515863.440    -3378018.747 5  -2496056.59121
  23596913.7304   -3159081.67945  -2148791.95361
 91  4 15 21 20 14.9990000  0  6G18G 2G11G19G16G 6
  21340228.9404    3479841.15447   2706288.22262
  21803024.4334  -10797376.90646  -8325978.30262
  22533376.1514   -6079215.12946  -4705778.68161
  20565781.2614   -2220153.68846  -1719514.09962
  23512019.5974   -3398224.87545  -2511801.63961
  23588474.8394   -3203446.04145  -2183361.45961
 91  4 15 21 20 29.9990000  0  6G18G 2G11G19G16G 6
  21345310.9724    3506549.12747   2727099.53762
  21794392.5584  -10842732.38146  -8361320.13562
  22530473.2694   -6094474.30846  -4717668.91261
  20564517.1284   -2226793.13946  -1724687.70462
  23508201.003    -3418301.703 5  -2527445.91921
  23580031.3704   -3247807.21945  -2217928.46361
 91  4 15 21 20 44.9990000  0  6G18G 2G11G19G16G 6
  21350409.1054    3533345.99947   2747980.12762
  21785775.331   -10888016.657 6  -8396606.48622
  22527597.1514   -6109585.16246  -4729443.57461
  20563262.8704   -2233386.41046  -1729825.32362
  23504403.8314   -3438248.12945  -2542988.61461
  23571589.1124   -3292164.28145  -2252492.28261
 91  4 15 21 20 59.9990000  0  6G18G 2G11G19G16G 6
  21355526.3394    3560233.25247   2768931.13862
  21777171.581   -10933228.545 6  -8431836.42922
  22524750.4954   -6124546.47546  -4741101.71661
  20562017.3084   -2239932.30446  -1734926.02562
  23500632.3624   -3458063.26845  -2558429.03061
  23563153.714    -3336516.168 5  -2287052.05821
 91  4 15 21 21 14.9990000  0  6G18G 2G11G19G16G 6
  21360659.183     3587203.726 7   2789947.00722
  21768581.628   -10978374.836 6  -8467015.25522
  22521932.636    -6139364.951 6  -4752648.54721
  20560779.9404   -2246437.61046  -1739995.10162
  23496884.503    -3477753.698 5  -2573772.22521
  23554708.339    -3380869.687 5  -2321613.09821
 91  4 15 21 21 29.9990000  0  6G18G 2G11G19G16G 6
  21365807.1904    3614262.09247   2811031.35962
  21760001.8474  -11023450.60246  -8502139.13262
  22519138.714    -6154035.647 6  -4764080.24021
  20559553.9724   -2252897.11546  -1745028.48762
  23493164.339    -3497314.731 5  -2589014.61621
  23546272.503    -3425220.002 5  -2356171.61921
 91  4 15 21 21 44.9980000  0  6G18G 2G11G19G16G 6
  21370972.2094    3641404.61547   2832181.28962
  21751439.248   -11068454.385 6  -8537206.91322
  22516374.2254   -6168559.25446  -4775397.29961
  20558330.8814   -2259312.18046  -1750027.24462
  23489466.623    -3516746.598 5  -2604156.34621
  23537828.545    -3469565.816 4  -2390726.64821
 91  4 15 21 21 59.9980000  0  6G18G 2G11G19G16G 6
  21376153.6934    3668634.78447   2853399.51362
  21742886.5224  -11113391.86346  -8572223.02862
  22513638.068    -6182937.392 6  -4786601.00221
  20557118.4824   -2265683.28246  -1754991.74662
  23485793.4754   -3536051.70845  -2619199.30461
  23529396.061    -3513912.929 4  -2425282.67621
 91  4 15 21 22 14.9980000  0  6G18G 2G11G19G16G 6
  21381353.7644    3695952.73347   2874686.13062
  21734349.037   -11158257.908 6  -8607183.48522
  22510931.6934   -6197166.84346  -4797688.85261
  20555914.0064   -2272007.83146  -1759919.97862
  23482144.186    -3555226.721 5  -2634140.89721
  23520954.9674   -3558256.31544  -2459835.80861
 91  4 15 21 22 29.9980000  0  6G18G 2G11G19G16G 6
  21386567.6544    3723356.35947   2896039.51762
  21725823.9204  -11203054.44446  -8642089.77962
  22508251.5224   -6211249.58446  -4808662.38261
  20554720.7324   -2278287.73146  -1764813.40862
  23478518.6234   -3574274.04045  -2648982.96861
  23512513.1394   -3602597.88643  -2494387.53161
 91  4 15 21 22 44.9980000  0  6G18G 2G11G19G16G 6
  21391798.1624    3750846.43347   2917460.25762
  21717314.8734  -11247780.53946  -8676941.18762
  22505599.670    -6225184.662 6  -4819520.87321
  20553532.3814   -2284522.15546  -1769671.40762
  23474919.381    -3593192.396 5  -2663724.55021
  23504076.154    -3646936.958 4  -2528937.31821
 91  4 15 21 22 59.9980000  0  6G18G 2G11G19G16G 6
  21397048.1934    3778424.93547   2938949.90862
  21708816.537   -11292434.073 7  -8711736.04822
  22502975.943    -6238969.912 6  -4830262.60121
  20552357.5454   -2290708.89646  -1774492.25162
  23471346.1004   -3611979.68845  -2678364.01661
  23495644.287    -3691271.357 4  -2563483.46421
 91  4 15 21 23 14.9980000  0  6G18G 2G11G19G16G 6
  21402313.2724    3806090.79447   2960507.62262
  21700332.8034  -11337015.47246  -8746474.70662
  22500380.545    -6252605.776 6  -4840887.92621
  20551186.0374   -2296848.35646  -1779276.24962
  23467794.8114   -3630636.30645  -2692901.64661
  23487204.709    -3735601.551 5  -2598026.34921
 91  4 15 21 23 29.9980000  0  6G18G 2G11G19G16G 6
  21407594.7174    3833843.98847   2982133.39562
  21691864.2874  -11381524.67246  -8781157.10462
  22497815.084    -6266092.076 6  -4851396.71821
  20550026.7564   -2302940.39346  -1784023.29862
  23464266.7174   -3649162.52945  -2707337.68561
  23478771.8894   -3779927.57145  -2632565.96861
 91  4 15 21 23 44.9980000  0  6G18G 2G11G19G16G 6
  21412892.2564    3861681.89547   3003825.17362
  21683405.803   -11425964.128 6
  22495276.7324   -6279431.26046  -4861790.85561
  20548878.1624   -2308987.60746  -1788735.42162
  23460765.3654   -3667561.10345  -2721674.25661
  23470335.3424   -3824251.98545
 91  4 15 21 23 59.9980000  0  6G18G 2G11G19G16G 6
  21418204.3574    3889601.99647   3025581.00362
  21674961.5924  -11470335.84147
  22492765.170    -6292625.321 6  -4872071.91721
  20547733.717    -2314991.856 6  -1793414.06222
  23457289.7954   -3685833.68745  -2735912.67261
  23461902.7014   -3868576.91445
 91  4 15 21 24 14.9980000  0  6G18G 2G11G19G16G 6
  21423533.9124    3917606.46147   3047402.57462
  21666532.3974  -11514637.57546
  22490283.4514   -6305672.05746  -4882238.17361
  20546600.3974   -2320950.96346  -1798057.52862
  23453838.1314   -3703978.19645  -2750051.26461
  23453468.0144   -3912900.15345
 91  4 15 21 24 29.9980000  0  6G18G 2G11G19G16G 6
  21428880.1934    3945699.04447   3069292.80062
  21658116.9904  -11558865.35247  -8919344.26262
  22487828.9204   -6318567.50946  -4892286.54661
  20545473.8504   -2326860.91046  -1802662.68862
  23450406.7564   -3721990.80545  -2764087.09161
  23445031.5924   -3957217.78545  -2770713.66661
 91  4 15 21 24 44.9980000  0  6G18G 2G11G19G16G 6
  21434241.3974    3973878.57447   3091250.78362
  21649713.0144  -11603020.11346  -8953750.48162
  22485404.982    -6331312.557 6  -4902217.73821
  20544361.9124   -2332722.57546  -1807230.22662
  23447005.2094   -3739872.42945  -2778020.84161
  23436600.178    -4001530.859 5  -2805243.21921
 91  4 15 21 24 59.9980000  0  6G18G 2G11G19G16G 6
  21439620.5374    4002139.29847   3113272.02862
  21641324.0294  -11647107.39747  -8988104.12362
  22483006.498    -6343912.811 6  -4912036.08921
  20543250.9284   -2338541.50546  -1811764.46162
  23443627.9754   -3757628.50945  -2791856.78361
  23428168.209    -4045845.091 5  -2839773.65921
 91  4 15 21 25 14.9980000  0  6G18G 2G11G19G16G 6
  21445015.5534    4030489.67247   3135363.13662
  21632947.8114  -11691118.27247  -9022398.22162
  22480638.756    -6356359.286 6  -4921734.62821
  20542154.7874   -2344308.80246  -1816258.46962
  23440271.225    -3775250.534 5  -2805588.25121
  23419737.506    -4090151.634 5  -2874298.09121
 91  4 15 21 25 29.9980000  0  6G18G 2G11G19G16G 6
  21450426.9984    4058921.34847   3157517.59162
  21624585.756   -11735060.881 7  -9056639.12922
  22478298.061    -6368660.137 6  -4931319.68221
  20541066.0374   -2350032.58846  -1820718.56562
  23436945.6394   -3792746.76145  -2819221.70561
  23411301.279    -4134458.637 5  -2908822.88521
 91  4 15 21 25 44.9980000  0  6G18G 2G11G19G16G 6
  21455852.1314    4087435.28047   3179736.14262
  21616239.3894  -11778933.91547  -9090825.82362
  22475985.451    -6380814.113 6  -4940790.30221
  20539985.4514   -2355711.52946  -1825143.71962
  23433637.9984   -3810116.27345  -2832756.41661
  23402872.318    -4178764.879 5  -2943347.05621
 91  4 15 21 25 59.9980000  0  6G18G 2G11G19G16G 6
  21461293.5924    4116035.92247   3202022.26062
  21607903.8264  -11822732.56047  -9124954.54462
  22473701.232    -6392816.380 6  -4950142.70621
  20538913.5224   -2361340.80646  -1829530.17562
  23430357.9434   -3827353.67845  -2846188.18061
  23394440.2954   -4223065.71145  -2977867.02861
 91  4 15 21 26 14.9980000  0  6G18G 2G11G19G16G 6
  21466752.9824    4144725.22247   3224377.46762
  21599584.5534  -11866454.52747  -9159023.51462
  22471443.600    -6404664.694 6  -4959375.12721
  20537853.0684   -2366918.10846  -1833876.12962
  23427104.600    -3844457.363 5  -2859515.74821
  23386012.850    -4267358.961 5  -3012381.09421
 91  4 15 21 26 29.9980000  0  6G18G 2G11G19G16G 6
  21472227.8894    4173501.29447   3246800.27762
  21591277.7324  -11910101.72447  -9193034.22262
  22469219.990    -6416360.945 6  -4968489.07021
  20536800.2644   -2372445.18846  -1838182.94562
  23423873.6704   -3861429.00745  -2872740.44361
  23377586.7324   -4311646.48545  -3046890.70161
 91  4 15 21 26 44.9980000  0  6G18G 2G11G19G16G 6
  21477718.6864    4202356.70247   3269284.91962
  21582985.0374  -11953681.42747  -9226992.33362
  22467021.350    -6427912.402 6  -4977490.18421
  20535756.5294   -2377929.28346  -1842456.27262
  23420666.8114   -3878275.92145  -2885867.93761
  23369158.5144   -4355935.63545  -3081401.57761
 91  4 15 21 26 59.9980000  0  6G18G 2G11G19G16G 6
  21483227.0374    4231296.84047   3291835.58262
  21574705.4514  -11997187.75847  -9260893.27462
  22464850.998    -6439313.296 6  -4986373.97521
  20534720.9434   -2383364.77146  -1846691.72262
  23417487.7014   -3894992.33045  -2898893.75361
  23360730.381    -4400220.634 5  -3115909.22321
 91  4 15 21 27 14.9980000  0  6G18G 2G11G19G16G 6
  21488749.3034    4260316.91647   3314448.52562
  21566438.7564  -12040625.56247  -9294740.82262
  22462710.592    -6450568.234 6  -4995144.03521
  20533697.8424   -2388756.15146  -1850892.79762
  23414332.232    -3911583.156 5  -2911821.72321
  23352301.7014   -4444506.32245  -3150417.40261
 91  4 15 21 27 29.9980000  0  6G18G 2G11G19G16G 6
  21494288.0924    4289417.99647   3337124.59462
  21558187.0144  -12083993.41947  -9328533.86662
  22460595.443    -6461675.882 6  -5003799.32021
  20532681.8814   -2394102.02346  -1855058.41562
  23411197.4824   -3928047.17645  -2924650.85161
  23343879.9824   -4488791.34145  -3184925.06661
 91  4 15 21 27 44.9980000  0  6G18G 2G11G19G16G 6
  21499842.4514    4318605.28147   3359867.83562
  21549949.5764  -12127285.60947  -9362267.95062
  22458510.842    -6472630.575 6  -5012335.41721
  20531671.7094   -2399396.68246  -1859184.13062
  23408090.7954   -3944378.54644  -2937376.61961
  23335447.264    -4533070.067 5  -3219427.82321
 91  4 15 21 27 59.9980000  0  6G18G 2G11G19G16G 6
  21505411.912     4347870.190 7   3382671.55822
  21541721.8424  -12170510.49247  -9395949.58762
  22456455.795    -6483440.636 6  -5020758.82321
  20530674.0224   -2404648.53046  -1863276.47962
  23405008.850    -3960586.000 5  -2950005.83421
  23327023.522    -4577351.030 5  -3253932.32321
 91  4 15 21 28 14.9980000  0  6G18G 2G11G19G16G 6
  21510998.2954    4377222.73947   3405543.57362
  21533512.2254  -12213657.66847  -9429570.67362
  22454426.584    -6494095.811 6  -5029061.53921
  20529683.6784   -2409847.29846  -1867327.47062
  23401946.326    -3976659.226 4  -2962530.44721
  23318601.4364   -4621623.96145  -3288430.56661
 91  4 15 21 28 29.9980000  0  6G18G 2G11G19G16G 6
  21516597.131     4406658.350 7   3428480.31122
  21525315.8264  -12256731.71547  -9463134.77662
  22452428.701    -6504600.583 6  -5037247.05321
  20528701.5224   -2414997.30346  -1871340.46462
  23398914.1784   -3992602.88045  -2974954.10161
  23310173.561    -4665893.439 5  -3322926.12521
 91  4 15 21 28 44.9980000  0  6G18G 2G11G19G16G 6
  21522215.600     4436172.627 7   3451478.34422
  21517131.9514  -12299736.89147  -9496645.21462
  22450456.107    -6514959.128 6  -5045318.63721
  20527731.1154   -2420102.60246  -1875318.62562
  23395904.0454   -4008421.07045  -2987280.00161
  23301749.2644   -4710163.52345  -3357422.17361
 91  4 15 21 28 59.9980000  0  6G18G 2G11G19G16G 6
  21527847.389     4465767.683 7   3474539.32422
  21508961.2094  -12342670.45647  -9530099.85162
  22448513.420    -6525168.982 6  -5053274.34821
  20526769.3974   -2425160.89746  -1879260.15562
  23392914.7644   -4024111.44845  -2999506.30561
  23293324.1864   -4754431.88345  -3391916.85461
 91  4 15 21 29 14.9980000  0  6G18G 2G11G19G16G 6
  21533492.818     4495441.940 7   3497662.01321
  21500804.2014  -12385534.01547  -9563499.93862
  22446599.115    -6535231.612 6  -5061115.33421
  20525817.0224   -2430173.46646  -1883166.06362
  23389957.2794   -4039675.57645  -3011634.23861
  23284900.537    -4798700.052 5  -3426411.40121
 91  4 15 21 29 29.9980000  0  6G18G 2G11G19G16G 6
  21539155.889     4525196.426 7   3520847.22022
  21492662.2564  -12428325.97747  -9596844.23462
  22444712.748    -6545145.467 6  -5068840.39521
  20524868.4044   -2435138.64146  -1887035.02962
  23387021.568    -4055111.808 5  -3023662.49621
  23276478.4124   -4842966.53645  -3460904.63661
 91  4 15 21 29 44.9980000  0  6G18G 2G11G19G16G 6
  21544832.686     4555032.257 7   3544095.80722
  21484530.990   -12471045.297 7  -9630131.93322
  22442854.881    -6554909.384 6  -5076448.62621
  20523934.4044   -2440055.34846  -1890866.24162
  23384104.1544   -4070419.39145  -3035590.51061
  23268054.4824   -4887230.21745  -3495395.65561
 91  4 15 21 29 59.9980000  0  6G18G 2G11G19G16G 6
  21550525.576     4584952.322 7   3567410.03822
  21476417.9204  -12513688.30747  -9663360.16662
  22441024.748    -6564519.959 6  -5083937.36821
  20523009.1004   -2444920.13546  -1894656.98762
  23381221.0144   -4085595.19545  -3047415.83961
  23259632.3974   -4931487.83945  -3529881.99661
 91  4 15 21 30 14.9980000  0  6G18G 2G11G19G16G 6
  21556234.295     4614947.413 7   3590782.72822
  21468315.9904  -12556264.25147  -9696536.14262
  22439223.740    -6573986.380 6  -5091313.78121
  20522092.6864   -2449742.07046  -1898414.34062
  23378352.240    -4100648.139 5  -3059145.43221
  23251208.873    -4975748.446 5  -3564370.64621
 91  4 15 21 30 29.9980000  0  6G18G 2G11G19G16G 6
  21561958.693     4645022.423 7   3614217.69222
  21460229.0684  -12598767.86647  -9729655.75462
  22437451.584    -6583303.372 6  -5098573.76021
  20521182.693    -2454515.810 6  -1902134.14822
  23375512.0144   -4115572.94545  -3070775.18161
  23242789.662    -5020006.863 5  -3598857.61221
 91  4 15 21 30 44.9980000  0  6G18G 2G11G19G16G 6
  21567697.654     4675180.853 7   3637717.65522
  21452153.9434  -12641195.72647  -9762716.33662
  22435708.287    -6592467.577 6  -5105714.68321
  20520284.5844   -2459237.87446  -1905813.68562
  23372701.756    -4130366.102 5  -3082302.34321
  23234366.8574   -5064259.74445  -3633340.25061
 91  4 15 21 30 59.9980000  0  6G18G 2G11G19G16G 6
  21573450.201     4705417.915 7   3661278.89922
  21444093.5844  -12683552.13547  -9795721.24762
  22433993.209    -6601483.091 6  -5112739.73921
  20519393.6314   -2463912.26746  -1909456.07762
  23369906.9984   -4145032.20545  -3093730.49861
  23225948.0684   -5108511.30945  -3667821.89061
 91  4 15 21 31 14.9980000  0  6G18G 2G11G19G16G 6
  21579219.623     4735731.274 7   3684899.58322
  21436046.053   -12725839.032 7  -9828671.98922
  22432305.240    -6610352.097 6  -5119650.63021
  20518516.1004   -2468541.38446  -1913063.18662
  23367139.725    -4159573.504 5  -3105061.40421
  23217522.951    -5152763.773 5  -3702304.21121
 91  4 15 21 31 29.9980000  0  6G18G 2G11G19G16G 6
  21585004.006     4766128.086 7   3708585.30322
  21428013.959   -12768048.982 7  -9861562.77922
  22430644.857    -6619067.293 6  -5126441.67921
  20517643.0844   -2473117.81646  -1916629.24262
  23364399.1704   -4173982.75545  -3116289.43461
  23209103.7404   -5197009.72645  -3736781.46161
 91  4 15 21 31 44.9980000  0  6G18G 2G11G19G16G 6
  21590802.061     4796602.925 7   3732331.81322
  21419994.9514  -12810187.17547  -9894397.64362
  22429016.584    -6627633.893 6  -5133116.93621
  20516780.8574   -2477646.47946  -1920158.07762
  23361681.9124   -4188265.37745  -3127418.78761
  23200686.670    -5241254.492 4  -3771257.76921
 91  4 15 21 31 59.9980000  0  6G18G 2G11G19G16G 6
  21596616.600     4827153.924 7   3756137.68122
  21411989.623   -12852255.353 7  -9927177.96422
  22427412.522    -6636053.495 6  -5139677.63921
  20515930.9674   -2482129.11846  -1923651.05262
  23358987.779    -4202422.907 5  -3138450.65721
  23192265.5844   -5285499.76145  -3805734.45561
 91  4 15 21 32 14.9980000  0  6G18G 2G11G19G16G 6
  21602444.811     4857783.449 7   3780004.73022
  21403998.764   -12894250.908 7  -9959901.69422
  22425840.397    -6644323.388 6  -5146121.69921
  20515083.5844   -2486562.92346  -1927105.97262
  23356316.8814   -4216452.71645  -3149383.00961
  23183848.107    -5329742.766 4  -3840209.39421
 91  4 15 21 32 29.9980000  0  6G18G 2G11G19G16G 6
  21608289.9434    4888493.98447   3803934.89962
  21396021.959   -12936170.811 7  -9992566.47222
  22424293.951    -6652440.937 6  -5152447.04921
  20514251.4284   -2490945.03646  -1930520.61162
  23353673.1474   -4230352.20645  -3160213.79761
  23175428.3974   -5373980.90745  -3874680.52461
 91  4 15 21 32 44.9980000  0  6G18G 2G11G19G16G 6
  21614151.053     4919284.615 7   3827927.48322
  21388058.881   -12978015.869 7 -10025172.92822
  22422778.693    -6660407.081 6  -5158654.41821
  20513427.4044   -2495276.34846  -1933895.66762
  23351053.522    -4244122.359 5  -3170943.81621
  23167010.732    -5418214.996 5  -3909148.51021
 91  4 15 21 32 59.9980000  0  6G18G 2G11G19G16G 6
  21620022.1074    4950151.48947   3851979.47962
  21380109.404   -13019789.798 7 -10057723.95522
  22421293.647    -6668225.111 6  -5164746.37921
  20512610.6154   -2499560.34446  -1937233.85162
  23348452.4984   -4257766.61245  -3181575.72861
  23158592.186    -5462448.602 5  -3943616.11821
 91  4 15 21 33 14.9980000  0  6G18G 2G11G19G16G 6
  21625911.826     4981091.735 7   3876088.65022
  21372171.381   -13061495.071 7 -10090221.48522
  22419830.506    -6675897.621 6  -5170724.93521
  20511804.8654   -2503799.36346  -1940536.99362
  23345881.3424   -4271287.83545  -3192111.78161
  23150179.0614   -5506684.21745  -3978085.30061
 91  4 15 21 33 29.9980000  0  6G18G 2G11G19G16G 6
  21631813.568     5012108.705 7   3900257.60222
  21364250.326   -13103128.357 7 -10122662.93022
  22418397.240    -6683421.463 6  -5176587.64621
  20511007.8814   -2507990.06946  -1943802.48262
  23343332.131    -4284682.691 5  -3202549.35621
  23141759.404    -5550918.697 5  -4012553.59221
 91  4 15 21 33 44.9980000  0  6G18G 2G11G19G16G 6
  21637731.0064    5043203.10147   3924486.88862
  21356341.787   -13144688.635 7 -10155047.48122
  22416994.8734   -6690795.53746  -5182333.67461
  20510221.0454   -2512131.25046  -1947029.38662
  23340808.498    -4297949.971 5  -3212887.52621
  23133340.600    -5595150.942 5  -4047020.14121
 91  4 15 21 33 59.9980000  0  6G18G 2G11G19G16G 6
  21643662.365     5074374.740 7   3948776.35922
  21348446.904   -13186175.399 7 -10187374.75222
  22415621.7794   -6698019.43846  -5187962.67661
  20509443.7174   -2516222.39646  -1950217.29862
  23338308.022    -4311089.808 5  -3223126.40821
  23124923.857    -5639380.674 5  -4081484.73421
 91  4 15 21 34 14.9980000  0  6G18G 2G11G19G16G 6
  21649608.9124    5105623.34947   3973125.80962
  21340564.342   -13227588.836 7 -10219644.88422
  22414274.3504   -6705093.38646  -5193474.83361
  20508673.3574   -2520263.84446  -1953366.48762
  23335830.022    -4324102.249 5  -3233266.01221
  23116508.4204   -5683608.10345  -4115947.52461
 91  4 15 21 34 29.9980000  0  6G18G 2G11G19G16G 6
  21655570.9984    5136949.17847   3997535.43262
  21332699.061   -13268928.277 7 -10251857.35822
  22412956.740    -6712016.941 6  -5198869.79921
  20507914.8034   -2524254.96246  -1956476.45862
  23333379.8264   -4336986.92845  -3243306.06061
  23108092.279    -5727832.591 5  -4150408.03221
 91  4 15 21 34 44.9980000  0  6G18G 2G11G19G16G 6
  21661548.6004    5168351.92547   4022004.98262
  21324845.678   -13310193.878 7 -10284012.28822
  22411667.006    -6718790.136 6  -5204147.59921
  20507164.1004   -2528195.71546  -1959547.18562
  23330951.8184   -4349744.06045  -3253246.71861
  23099675.834    -5772054.306 5  -4184866.35721
 91  4 15 21 34 59.9980000  0  6G18G 2G11G19G16G 6
  21667535.576     5199828.585 6   4046532.13521
  21317007.404   -13351388.649 7 -10316112.03322
  22410408.6394   -6725416.09846  -5209310.68161
  20506422.5684   -2532089.12446  -1962581.01562
  23328548.162    -4362376.666 5  -3263090.35721
  23091264.5924   -5816276.30245  -4219324.92661
 91  4 15 21 35 14.9980000  0  6G18G 2G11G19G16G 6
  21673543.0684    5231380.03347   4071117.55762
  21309181.123   -13392511.501 7 -10348155.73222
  22409175.522    -6731893.595 6  -5214358.06421
  20505691.4824   -2535933.95346  -1965576.99862
  23326169.475    -4374883.817 5  -3272836.22321
  23082849.443    -5860497.421 5  -4253782.79221
 91  4 15 21 35 29.9980000  0  6G18G 2G11G19G16G 6
  21679557.5374    5263006.13046   4095761.15661
  21301368.381   -13433561.867 7 -10380142.94622
  22407968.662    -6738222.238 6  -5219289.45921
  20504971.3034   -2539729.63646  -1968534.67862
  23323814.404    -4387264.810 5  -3282483.79221
  23074433.7174   -5904717.27445  -4288239.70661
 91  4 15 21 35 44.9980000  0  6G18G 2G11G19G16G 6
  21685591.318     5294704.294 7   4120460.90922
  21293571.170   -13474542.221 7 -10412075.60722
  22406795.2174   -6744404.60246  -5224106.87761
  20504254.9434   -2543478.49746  -1971455.87862
  23321482.0294   -4399522.75645  -3292035.47461
  23066018.631    -5948938.414 5  -4322697.59821
 91  4 15 21 35 59.9980000  0  6G18G 2G11G19G16G 6
  21691636.6704    5326477.56846   4145219.18462
  21285786.240   -13515449.250 7 -10443951.12722
  22405646.4594   -6750437.38646  -5228807.71961
  20503552.342    -2547177.169 6  -1974337.97523
  23319173.326    -4411654.104 5  -3301488.52821
  23057602.3894   -5993157.52945  -4357153.93061
 91  4 15 21 36 14.9980000  0  6G18G 2G11G19G16G 6
  21697699.8814    5358327.53047   4170037.21761
  21278017.389   -13556281.184 7 -10475768.14322
  22404528.8974   -6756318.90746  -5233390.72661
  20502856.201    -2550823.943 6  -1977179.62822
  23316889.5144   -4423657.30245  -3310841.71961
  23049187.240    -6037372.934 5  -4391607.35421
 91  4 15 21 36 29.9980000  0  6G18G 2G11G19G16G 6
  21703774.6784    5390253.04246   4194914.11862
  21270261.303   -13597038.782 7 -10507527.23122
  22403435.9044   -6762049.90946  -5237856.43961
  20502173.9434   -2554419.51846  -1979981.38262
  23314629.982    -4435533.346 5  -3320095.84221
  23040772.522    -6081585.328 5  -4426058.45021
 91  4 15 21 36 44.9980000  0  6G18G 2G11G19G16G 6
  21709863.826     5422254.322 6   4219850.06721
  21262519.732   -13637721.718 7 -10539228.14922
  22402375.0684   -6767630.14846  -5242204.67061
  20501499.6314   -2557963.44946  -1982742.89762
  23312393.490    -4447282.077 5  -3329250.74121
  23032363.0064   -6125794.42445  -4460506.96061
 91  4 15 21 36 59.9980000  0  6G18G 2G11G19G16G 6
  21715967.4594    5454327.62546   4244842.12761
  21254791.764   -13678333.308 7 -10570873.47222
  22401342.857    -6773063.080 6  -5246438.11121
  20500831.123    -2561459.105 6  -1985466.79722
  23310180.061    -4458906.668 5  -3338308.92321
  23023950.334    -6170003.597 5  -4494955.52321
 91  4 15 21 37 14.9980000  0  6G18G 2G11G19G16G 6
  21722083.4904    5486477.95046   4269894.21061
  21247077.998   -13718868.466 7 -10602459.23622
  22400337.2254   -6778343.52146  -5250552.73661
  20500176.9824   -2564901.41946  -1988149.12962
  23307992.451    -4470402.111 5  -3347266.45221
  23015535.545    -6214207.812 5  -4529400.22221
 91  4 15 21 37 29.9980000  0  6G18G 2G11G19G16G 6
  21728216.2954    5518704.56146   4295005.73161
  21239377.732   -13759327.537 7 -10633985.71322
  22399357.9904   -6783472.00546  -5254548.95361
  20499533.8654   -2568290.56346  -1990790.02962
  23305831.5614   -4481769.11845  -3356123.90161
  23007128.9364   -6258407.49245  -4563841.38961
 91  4 15 21 37 44.9980000  0  6G18G 2G11G19G16G 6
  21734361.6784    5550998.18046   4320169.46762
  21231691.303   -13799719.644 7 -10665460.00422
  22398410.4824   -6788457.59046  -5258433.82061
  20498899.9514   -2571635.45646  -1993396.44762
  23303689.4674   -4493016.92545  -3364888.48861
  22998712.4044   -6302611.69145  -4598286.08561
 91  4 15 21 37 59.9980000  0  6G18G 2G11G19G16G 6
  21740522.0294    5583360.06746   4345386.40361
  21224018.201   -13840043.110 7 -10696880.81322
  22397487.451    -6793298.659 6  -5262206.06821
  20498268.561    -2574934.595 6  -1995967.21522
  23301570.982    -4504144.120 5  -3373559.08321
  22990303.6234   -6346818.79545  -4632733.06361
 91  4 15 21 38 14.9980000  0  6G18G 2G11G19G16G 6
  21746692.2794    5615793.88546   4370659.38461
  21216359.248   -13880293.983 7 -10728245.05922
  22396596.3344   -6797991.35646  -5265862.71661
  20497651.8264   -2578183.91246  -1998499.15962
  23299477.389    -4515146.859 5  -3382132.69821
  22981890.459    -6391025.001 5  -4667179.35121
 91  4 15 21 38 29.9980000  0  6G18G 2G11G19G16G 6
  21752878.0764    5648301.98146   4395990.24961
  21208713.811   -13920469.823 7 -10759550.83222
  22395732.7644   -6802533.33546  -5269401.91261
  20497041.779    -2581380.884 6  -2000990.31922
  23297407.975    -4526022.621 5  -3390607.36921
  22973476.8424   -6435227.85345  -4701623.01961
 91  4 15 21 38 44.9980000  0  6G18G 2G11G19G16G 6
  21759079.0534    5680882.40946   4421377.47162
  21201081.912   -13960572.164 7 -10790799.33722
  22394898.8114   -6806926.15546  -5272824.88661
  20496442.7954   -2584527.04046  -2003441.87862
  23295360.553    -4536773.149 5  -3398984.45221
  22965066.4044   -6479428.89545  -4736065.29361
 91  4 15 21 38 59.9980000  0  6G18G 2G11G19G16G 6
  21765291.6624    5713532.21646   4446818.75561
  21193465.2644  -14000603.75047 -10821992.71162
  22394090.412    -6811172.604 6  -5276133.79021
  20495853.084    -2587625.013 6  -2005855.89422
  23293343.178    -4547401.309 5  -3407266.18221
  22956653.6864   -6523630.79445  -4770508.21561
 91  4 15 21 39 14.9980000  0  6G18G 2G11G19G16G 6
  21771518.4124    5746252.70646   4472315.11561
  21185860.850   -14040563.008 7 -10853129.72422
  22393307.0534   -6815271.14846  -5279327.45261
  20495275.068    -2590673.031 6  -2008230.98322
  23291342.9044   -4557905.50045  -3415451.33661
  22948243.139    -6567831.931 5  -4804950.55421
 91  4 15 21 39 29.9980000  0  6G18G 2G11G19G16G 6
  21777759.3734    5779042.29846   4497865.32461
  21178269.561   -14080451.386 7 -10884211.50822
  22392557.6934   -6819223.40046  -5282407.12661
  20494702.506    -2593672.534 6  -2010568.27422
  23289366.8504   -4568287.46045  -3423541.23461
  22939830.3504   -6612033.96845  -4839393.59061
 91  4 15 21 39 44.9980000  0  6G18G 2G11G19G16G 6
  21784011.4674    5811906.07546   4523473.33561
  21170693.131   -14120263.582 7 -10915233.92722
  22391832.467    -6823024.000 6  -5285368.62121
  20494143.764    -2596618.181 6  -2012863.59322
  23287413.928    -4578541.703 5  -3431531.58421
  22931424.295    -6656231.544 5  -4873833.13521
 91  4 15 21 39 59.9980000  0  6G18G 2G11G19G16G 6
  21790280.8114    5844842.65146   4549138.07762
  21163131.607   -14160000.380 7 -10946197.59022
  22391140.1624   -6826673.99646  -5288212.77461
  20493590.561    -2599510.928 6  -2015117.69623
  23285486.0064   -4588669.64645  -3439423.54861
  22923014.1004   -6700425.63245  -4908269.96861
 91  4 15 21 40 14.9980000  0  6G18G 2G11G19G16G 6
  21796560.4434    5877850.76146   4574858.55761
  21155585.053   -14199663.091 7 -10977103.52822
  22390471.8894   -6830174.75946  -5290940.64061
  20493053.7014   -2602351.89946  -2017331.44762
  23283587.420    -4598672.727 5  -3447218.19321
  22914603.014    -6744617.445 5  -4942705.04221
 91  4 15 21 40 29.9980000  0  6G18G 2G11G19G16G 6
  21802856.3264    5910928.55146   4600633.33262
  21148049.709   -14239253.159 7 -11007952.85422
  22389836.6544   -6833527.65946  -5293553.27961
  20492521.092    -2605142.487 6  -2019505.94522
  23281703.8504   -4608552.41645  -3454916.68761
  22906194.475    -6788808.510 5  -4977139.53521
 91  4 15 21 40 44.9980000  0  6G18G 2G11G19G16G 6
  21809163.615     5944075.833 6   4626462.24922
  21140531.303   -14278770.219 7 -11038745.29423
  22389223.3034   -6836732.49946  -5296050.55661
  20492000.6394   -2607882.49646  -2021641.02662
  23279851.529    -4618308.682 5  -3462519.01721
  22897783.537    -6832998.558 5  -5011573.23621
 91  4 15 21 40 59.9980000  0  6G18G 2G11G19G16G 6
  21815485.5064    5977296.24246   4652348.15962
  21133024.889   -14318210.818 7 -11069478.15223
  22388642.8264   -6839785.76846  -5298429.72761
  20491489.826    -2610568.092 6  -2023733.71222
  23278012.3574   -4627937.76145  -3470022.24761
  22889377.451    -6877183.863 5  -5046003.24221
 91  4 15 21 41 14.9980000  0  6G18G 2G11G19G16G 6
  21821819.1704    6010586.77546   4678288.70861
  21125534.029   -14357577.546 7 -11100153.44723
  22388092.2874   -6842690.18746  -5300692.91361
  20490988.3184   -2613201.81646  -2025785.97662
  23276207.5844   -4637442.40745  -3477428.51761
  22880968.467    -6921367.274 5  -5080431.76121
 91  4 15 21 41 29.9980000  0  6G18G 2G11G19G16G 6
  21828166.3424    6043943.03846   4704280.46662
  21118056.607   -14396874.786 7 -11130774.59723
  22387565.498    -6845450.134 6  -5302843.50021
  20490495.647    -2615787.795 6  -2027801.03522
  23274419.943    -4646827.492 5  -3484741.62721
  22872559.592    -6965552.942 5  -5114862.04221
 91  4 15 21 41 44.9980000  0  6G18G 2G11G19G16G 6
  21834528.5144    6077366.49246   4730324.58662
  21110592.139   -14436100.493 7 -11161340.00323
  22387069.8344   -6848063.71446
  20490012.404    -2618324.051 6
  23272658.0534   -4656090.95045  -3491959.97561
  22864150.818    -7009739.040 5  -5149292.65121
 91  4 15 21 41 59.9980000  0  6G18G 2G11G19G16G 6
  21840902.1784    6110855.76446   4756419.99661
  21103141.654   -14475255.731 7 -11191850.50722
  22386601.0064   -6850532.00046
  20489538.545    -2620811.562 6
  23270918.0534   -4665233.98545  -3499084.44961
  22855742.9204   -7053926.55445  -5183724.35061
 91  4 15 21 42 14.9980000  0  6G18G 2G11G19G16G 6
  21847285.529     6144413.915 6   4782569.07021
  21095704.420   -14514336.947 7 -11222303.32823
  22386156.3654   -6852851.66146  -5308610.90761
  20489077.8034   -2623246.94846  -2033613.39962
  23269200.428    -4674253.447 5  -3506112.67021
  22847335.631    -7098112.042 5  -5218154.49121
 91  4 15 21 42 29.9980000  0  6G18G 2G11G19G16G 6
  21853687.764     6178041.179 6   4808772.00621
  21088280.951   -14553344.263 7 -11252698.56522
  22385743.3974   -6855022.89546  -5310302.78561
  20488623.693    -2625630.128 6  -2035470.43622
  23267507.7644   -4683149.14645  -3513044.41661
  22838925.6544   -7142295.54345  -5252583.06361
 91  4 15 21 42 44.9980000  0  6G18G 2G11G19G16G 6
  21860099.068     6211740.052 6   4835030.73421
  21080872.818   -14592274.656 7 -11283033.86322
  22385357.787    -6857042.750 6  -5311876.68521
  20488180.1004   -2627957.89346  -2037284.29362
  23265840.4594   -4691918.54645  -3519877.77161
  22830519.318    -7186474.224 5  -5287007.90021
 91  4 15 21 42 59.9980000  0  6G18G 2G11G19G16G 6
  21866525.2794    6245507.08346   4861342.57861
  21073478.279   -14631131.161 7 -11313311.58023
  22385003.8654   -6858914.31046  -5313335.04261
  20487743.631    -2630233.273 6  -2039057.33322
  23264196.404    -4700564.732 5  -3526615.11321
  22822111.9984   -7230651.12645  -5321431.36161
 91  4 15 21 43 14.9980000  0  6G18G 2G11G19G16G 6
  21872963.404     6279338.813 6   4887704.83221
  21066097.795   -14669917.013 7 -11343534.25222
  22384677.592    -6860640.994 6  -5314680.50421
  20487323.529    -2632459.635 6  -2040792.17522
  23262576.6394   -4709090.88045  -3533258.89861
  22813703.3344   -7274829.36045  -5355855.85561
 91  4 15 21 43 29.9980000  0  6G18G 2G11G19G16G 6
  21879412.6864    6313237.65046   4914119.38261
  21058730.490   -14708629.581 7 -11373699.81422
  22384373.147    -6862220.176 6  -5315911.01821
  20486909.162    -2634634.304 6  -2042486.73322
  23260974.6074   -4717494.86745  -3539807.56261
  22805298.975    -7319006.463 5  -5390279.47121
 91  4 15 21 43 44.9980000  0  6G18G 2G11G19G16G 6
  21885878.662     6347214.042 6   4940594.35421
  21051379.451   -14747258.169 7 -11403799.94222
  22384106.4124   -6863641.19246  -5317018.31461
  20486505.717    -2636746.441 6  -2044132.57122
  23259398.834    -4725765.777 5  -3546252.45221
  22796895.5764   -7363171.67845  -5424693.82261
 91  4 15 21 43 59.9980000  0  6G18G 2G11G19G16G 6
  21892355.9514    6381254.08646   4967118.93261
  21044041.889   -14785816.271 7 -11433845.13922
  22383860.678    -6864917.684 6  -5318012.95821
  20486113.818    -2638809.214 6  -2045739.94222
  23257849.662    -4733917.498 5  -3552604.48621
  22788489.4984   -7407338.43045  -5459109.35861
 91  4 15 21 44 14.9980000  0  6G18G 2G11G19G16G 6
  21898847.076     6415359.443 6   4993694.39921
  21036718.881   -14824302.306 7 -11463834.18122
  22383648.3264   -6866048.12346  -5318893.82761
  20485730.740    -2640821.132 6  -2047307.68422
  23256321.7874   -4741948.76444  -3558862.68561
  22780082.9754   -7451505.19145  -5493524.88861
 91  4 15 21 44 29.9980000  0  6G18G 2G11G19G16G 6
  21905351.943     6449535.257 6   5020324.76421
  21029408.639   -14862710.496 7 -11493762.56622
  22383461.342    -6867026.935 6  -5319656.53321
  20485360.373    -2642776.497 6  -2048831.35722
  23254815.4204   -4749853.63044  -3565022.38161
  22771684.0374   -7495666.28645  -5527936.00661
 91  4 15 21 44 44.9980000  0  6G18G 2G11G19G16G 6
  21911868.225     6483778.601 6   5047007.75421
  21022115.131   -14901043.888 7 -11523632.66623
  22383299.4284   -6867857.07446  -5320303.38861
  20485000.873    -2644678.010 6  -2050313.07222
  23253332.037    -4757635.342 4  -3571086.07921
  22763276.2874   -7539824.49645  -5562344.87861
 91  4 15 21 44 59.9980000  0  6G18G 2G11G19G16G 6
  21918394.350     6518087.687 6   5073741.97121
  21014833.561   -14939303.812 7 -11553445.51523
  22383173.4824   -6868539.97046  -5320835.51261
  20484646.029    -2646526.987 6  -2051753.85022
  23251879.162    -4765295.654 4  -3577055.21021
  22754871.7174   -7583981.29845  -5596752.66261
 91  4 15 21 45 14.9980000  0  6G18G 2G11G19G16G 6
  21924936.506     6552460.160 6   5100525.58021
  21007567.857   -14977492.334 7 -11583202.72822
  22383070.3894   -6869077.93146  -5321254.69861
  20484302.443    -2648325.564 6  -2053155.35522
  23250441.061    -4772836.644 4  -3582931.34121
  22746471.9904   -7628138.88445  -5631161.06761
 91  4 15 21 45 29.9980000  0  6G18G 2G11G19G16G 6
  21931488.639     6586899.735 6   5127361.48721
  21000314.381   -15015605.345 7 -11612901.09722
  22382995.0924   -6869466.86246  -5321557.75961
  20483969.545    -2650069.312 7  -2054514.13622
  23249034.943    -4780254.181 4  -3588711.29421
  22738068.772    -7672293.006 5  -5665566.79721
 91  4 15 21 45 44.9980000  0  6G18G 2G11G19G16G 6
  21938056.912     6621410.309 6   5154252.70021
  20993078.045   -15053639.008 7 -11642537.64423
  22382953.7404   -6869703.08346  -5321741.84261
  20483650.139    -2651754.581 6  -2055827.34822
  23247641.592    -4787544.926 4  -3594392.43621
  22729668.3424   -7716439.85045  -5699966.83761
 91  4 15 21 45 59.9980000  0  5G18G 2G11G19G 6
  21944638.732     6655985.699 6   5181194.42921
  20985852.482   -15091599.135 7 -11672116.89122
  22382933.795    -6869792.405 6
  20483337.287    -2653387.014 6  -2057099.39122
  22721267.115    -7760585.266 5  -5734365.76521
 91  4 15 21 46 14.9980000  0  6G18G 2G11G19G16G 6
  21951228.084     6690620.577 6   5208182.50221
  20978642.850   -15129490.858 7 -11701642.83422
  22382947.709    -6869740.015 6
  20483037.748    -2654971.743 6  -2058334.25822
  23244938.8114         -0.11754
  22712864.4434   -7804734.34245  -5768767.52661
 91  4 15 21 46 29.9980000  0  6G18G 2G11G19G16G 6
  21957832.217     6725319.840 6   5235220.75521
  20971446.2724  -15167308.76247 -11731111.25862
  22382982.7174   -6869540.72746
  20482749.006    -2656503.260 6  -2059527.66522
  23243616.1784      -6932.90144
  22704464.225    -7848881.743 5  -5803167.97121
 91  4 15 21 46 44.9980000  0  6G18G 2G11G19G16G 6
  21964447.5844    6760085.14946   5262310.46861
  20964264.639   -15205051.103 7 -11760520.80222
  22383048.4904   -6869192.88146
  20482467.881    -2657979.748 6  -2060678.19222
  23242319.826      -13743.237 4
  22696064.3114   -7893025.76145  -5837565.77261
 91  4 15 21 46 59.9980000  0  6G18G 2G11G19G16G 6
  21971074.9514    6794910.96746   5289447.32461
  20957095.022   -15242723.225 7 -11789875.62222
  22383140.545    -6868701.754 6  -5320961.56221
  20482198.139    -2659406.214 6  -2061789.74222
  23241048.795      -20436.528 4        -0.23831
  22687667.686    -7937171.508 5  -5871964.94721
 91  4 15 21 47 14.9980000  0  6G18G 2G11G19G16G 6
  21977714.553     6829811.713 6   5316642.57421
  20949941.943   -15280310.456 7 -11819164.30722
  22383266.1154   -6868052.80046  -5320455.88661
  20481935.232    -2660768.012 6  -2062850.90422
  23239794.615      -26998.143 4     -5113.27321
  22679267.928    -7981304.405 5  -5906354.14621
 91  4 15 21 47 29.9980000  0  6G18G 2G11G19G16G 6
  21984395.240     6864903.561 6   5343986.73121
  20942829.467   -15317696.133 7 -11848295.92922
  22383441.318    -6867129.555 6  -5319736.46421
  20481711.553    -2661948.399 6  -2063770.69722
  23238598.4594     -33311.36145    -10032.71161
  22670890.8734   -8025307.77345  -5940642.41361
 91  4 15 21 47 44.9980000  0  6G18G 2G11G19G16G 6
  21991084.584     6900053.837 6   5371376.41421
  20935727.7484  -15355012.59247 -11877373.61862
  22383642.3344   -6866064.48046  -5318906.53461
  20481497.342    -2663079.726 6  -2064652.26622
  23237421.334      -39508.893 5    -14862.03321
  22662517.5534   -8069314.03245  -5974932.92561
 91  4 15 21 47 59.9980000  0  6G18G 2G11G19G16G 6
  21997784.1394    6935267.40846   5398815.41861
  20928639.889   -15392254.948 7 -11906393.56222
  22383875.0294   -6864852.80746  -5317962.37961
  20481293.537    -2664157.107 6  -2065491.80022
  23236263.9204     -45586.12545    -19597.61861
  22654144.787    -8113318.259 5  -6009221.78521
 91  4 15 21 48 14.9980000  0  6G18G 2G11G19G16G 6
  22004498.6154    6970545.00146   5426304.30261
  20921567.420   -15429422.101 7 -11935354.91122
  22384132.4824   -6863493.36846  -5316903.07161
  20481097.264    -2665179.358 6  -2066288.37622
  23235127.725      -51542.069 5    -24238.69521
  22645770.9904   -8157319.40945  -6043508.26261
 91  4 15 21 48 29.9980000  0  6G18G 2G11G19G16G 6
  22011221.420     7005884.211 6   5453841.21221
  20914507.451   -15466516.196 7 -11964259.32423
  22384420.3574   -6861988.58946  -5315730.52061
  20480911.014    -2666148.353 6  -2067043.45222
  23234019.139      -57379.019 5    -28787.05221
  22637399.467    -8201319.564 5  -6077793.98721
 91  4 15 21 48 44.9980000  0  6G18G 2G11G19G16G 6
  22017958.623     7041281.940 6   5481423.71521
  20907463.2794  -15503539.91447 -11993108.90162
  22384733.467    -6860341.394 6  -5314446.97721
  20480736.357    -2667066.959 6  -2067759.26022
  23232929.9904     -63100.19545    -33245.19361
  22629024.725    -8245321.477 5  -6112081.09121
 91  4 15 21 48 59.9980000  0  6G18G 2G11G19G16G 6
  22024704.701     7076741.787 6   5509054.61921
  20900431.7874  -15540489.74047 -12021900.90562
  22385071.8734   -6858548.17646  -5313049.66761
  20480574.740    -2667931.379 6  -2068432.85422
  23231865.998      -68701.637 5    -37610.02821
  22620653.131    -8289321.408 5  -6146366.65221
 91  4 15 21 49 14.9980000  0  6G18G 2G11G19G16G 6
  22031469.232     7112272.424 6   5536740.68821
  20893416.193   -15577356.487 7 -12050628.16923
  22385443.2324   -6856599.93346  -5311531.55561
  20480420.3574   -2668732.37446  -2069057.01362
  23230823.443      -74174.658 5    -41874.79821
  22612282.529    -8333310.352 5  -6180643.68921
 91  4 15 21 49 29.9980000  0  6G18G 2G11G19G16G 6
  22038238.8184    7147863.02246   5564473.47461
  20886414.5534  -15614150.82547 -12079299.01263
  22385840.9594   -6854507.47646  -5309901.07061
  20480276.693    -2669480.808 6  -2069640.22222
  23229804.7254     -79530.37645    -46048.14961
  22603909.272    -8377299.043 5  -6214920.48621
 91  4 15 21 49 44.9980000  0  6G18G 2G11G19G16G 6
  22045025.373     7183517.192 6   5592255.80421
  20879426.1784  -15650868.87947 -12107910.41162
  22386269.1544   -6852267.03646  -5308155.26961
  20480146.326    -2670172.636 6  -2070179.32022
  23228809.514      -84764.706 5    -50126.92821
  22595540.959    -8421283.533 5  -6249194.00621
 91  4 15 21 49 59.9980000  0  6G18G 2G11G19G16G 6
  22051820.7404    7219232.71646   5620085.93361
  20872453.0614  -15687512.56347 -12136463.86462
  22386723.3654   -6849880.53646  -5306295.65861
  20480023.975    -2670809.455 6  -2070675.55522
  23227836.709      -89879.881 5    -54112.82921
  22587171.8734   -8465265.67746  -6283465.70961
 91  4 15 21 50 14.9980000  0  6G18G 2G11G19G16G 6
  22058629.8734    7255007.98146   5647962.61661
  20865494.561   -15724083.415 7 -12164960.55723
  22387205.6704   -6847349.67946  -5304323.55161
  20479914.623    -2671392.709 6  -2071130.05422
  23226884.0764     -94877.67845    -58007.28461
  22578803.482    -8509246.884 6  -6317736.67821
 91  4 15 21 50 29.9970000  0  6G18G 2G11G19G16G 6
  22065449.6814    7290838.62746   5675882.45561
  20858550.228   -15760580.400 7 -12193399.69723
  22387714.1494   -6844676.17246  -5302240.30561
  20479811.321    -2671923.774 6  -2071543.88722
  23225955.196      -99759.178 5    -61811.09021
  22570431.556    -8553225.650 5  -6352005.73721
 91  4 15 21 50 44.9970000  0  6G18G 2G11G19G16G 6
  22072278.4544    7326734.96246   5703853.47761
  20851619.1894  -15797002.57547 -12221780.54662
  22388249.7904   -6841854.05746  -5300041.25261
  20479723.556    -2672396.752 6  -2071912.45422
  23225048.314     -104519.013 5    -65520.10721
  22562061.610    -8597202.057 5  -6386272.95921
 91  4 15 21 50 59.9970000  0  6G18G 2G11G19G16G 6
  22079124.7204    7362698.64146   5731876.96361
  20844703.3684  -15833343.48547 -12250098.07063
  22388814.9394   -6838879.51846  -5297723.46661
  20479646.876    -2672807.635 6  -2072232.64022
  23224167.735     -109153.518 5    -69131.47821
  22553694.6184   -8641169.18345  -6420532.95961
 91  4 15 21 51 14.9970000  0  6G18G 2G11G19G16G 6
  22085979.3454    7398724.86346   5759949.20461
  20837802.7674  -15869607.48947 -12278355.67263
  22389412.290    -6835757.003 6  -5295290.32321
  20479578.462    -2673160.561 6  -2072507.66522
  23223309.032     -113667.165 5    -72648.67721
  22545330.735    -8685131.282 5  -6454789.06421
 91  4 15 21 51 29.9970000  0  6G18G 2G11G19G16G 6
  22092846.6264    7434816.79646   5788072.63461
  20830916.6494  -15905791.09847 -12306550.62463
  22390033.439    -6832483.149 6  -5292739.27521
  20479521.524    -2673452.071 6  -2072734.82622
  23222472.985     -118056.490 5    -76069.00321
  22536967.134    -8729084.810 6  -6489038.50621
 91  4 15 21 51 44.9970000  0  6G18G 2G11G19G16G 6
  22099726.4704    7470967.51546   5816241.87661
  20824045.9704  -15941901.22947 -12334688.32363
  22390685.1184   -6829064.91846  -5290075.72961
  20479479.5794   -2673688.77146  -2072919.27862
  23221661.4704    -122328.62245    -79398.00161
  22528604.9704   -8773036.68445  -6523286.62961
 91  4 15 21 51 59.9970000  0  6G18G 2G11G19G16G 6
  22106616.8684    7507178.88246   5844458.37361
  20817187.5014  -15977935.70347 -12362767.06563
  22391362.064    -6825500.245 6  -5287298.03121
  20479441.743    -2673868.620 6  -2073059.44122
  23220868.0094    -126481.37245    -82633.98461
  22520240.915    -8816984.633 5  -6557531.66521
 91  4 15 21 52 14.9970000  0  6G18G 2G11G19G16G 6
  22113520.3214    7543452.04846   5872723.02161
  20810346.1494  -16013893.31847 -12390785.92663
  22392067.673    -6821788.105 6  -5284405.48021
  20479420.610    -2673990.231 6
  23220106.056     -130513.994 5    -85776.34221
  22511876.642    -8860927.614 5  -6591772.80921
 91  4 15 21 52 29.9970000  0  6G18G 2G11G19G16G 6
  22120431.860     7579783.204 6   5901032.87221
  20803518.4074  -16049777.15347 -12418747.29563
  22392803.5714   -6817931.86346  -5281400.60961
  20479405.665    -2674056.646 6
  23219357.5484    -134429.95245    -88827.79761
  22503516.0874   -8904868.66845  -6626012.47261
 91  4 15 21 52 44.9970000  0  6G18G 2G11G19G16G 6
  22127358.3684    7616177.84346   5929392.17461
  20796702.9234  -16085581.52147 -12446646.73563
  22393562.9854   -6813925.91446  -5278279.09161
  20479407.009    -2674062.059 6
  23218636.306     -138223.625 5    -91783.95521
  22495155.884    -8948801.994 5  -6660246.15321
 91  4 15 21 52 59.9970000  0  6G18G 2G11G19G16G 6
  22134298.6344    7652633.45346   5957798.98561
  20789904.8294  -16121308.80347 -12474486.11063
  22394356.0014   -6809772.74346  -5275042.86361
  20479419.524    -2674008.711 6
  23217936.1964    -141897.68545    -94646.92361
  22486797.5874   -8992729.95945  -6694475.68061
 91  4 15 21 53 14.9970000  0  6G18G 2G11G19G16G 6
  22141245.8604    7689150.69946   5986253.82961
  20783120.7594  -16156958.07747 -12502264.70263
  22395173.376    -6805471.620 6  -5271691.36821
  20479437.618    -2673895.849 6
  23217261.3454    -145451.26245    -97416.01761
  22478439.4394   -9036651.69145  -6728700.33961
 91  4 15 21 53 29.9970000  0  6G18G 2G11G19G16G 6
  22148205.071     7725726.672 6   6014754.43721
  20776352.0644  -16192531.75647 -12529984.39663
  22396020.009    -6801024.994 6  -5268226.45221
  20479468.6264   -2673725.58346
  23216606.181     -148886.671 5   -100093.02221
  22470082.470    -9080569.560 5  -6762921.97221
 91  4 15 21 53 44.9970000  0  6G18G 2G11G19G16G 6
  22155180.384     7762371.320 6   6043308.55121
  20769597.1264  -16228020.11547 -12557637.60463
  22396893.2744   -6796423.08846  -5264640.52661
  20479517.267    -2673487.977 6
  23215975.5874    -152194.26745   -102670.43661
  22461726.282    -9124473.614 5  -6797132.80321
 91  4 15 21 53 59.9970000  0  6G18G 2G11G19G16G 6
  22162165.704     7799085.334 6   6071916.72221
  20762861.8294  -16263421.97847 -12585223.41663
  22397800.384    -6791664.920 6  -5260932.91621
  20479573.876    -2673181.911 6  -2072524.48222
  23215369.8534    -155373.29745   -105147.67061
  22453373.4784   -9168362.79345  -6831332.05461
 91  4 15 21 54 14.9970000  0  6G18G 2G11G19G16G 6
  22169165.423     7835864.510 6   6100575.66421
  20756139.5954  -16298741.23047 -12612744.85163
  22398735.3454   -6786754.73046  -5257106.77861
  20479646.517    -2672811.238 6  -2072235.66622
  23214790.5324    -158427.96245   -107527.99861
  22445022.9934   -9212240.92845  -6865522.72161
 91  4 15 21 54 29.9970000  0  6G18G 2G11G19G16G 6
  22176178.4154    7872717.35546   6129292.01361
  20749436.5714  -16333969.25747 -12640195.20363
  22399697.0564   -6781683.70846  -5253155.33961
  20479729.915    -2672367.053 6  -2071889.57022
  23214236.0644    -161349.65745   -109804.71361
  22436678.8454   -9256099.30545  -6899698.01061
 91  4 15 21 54 44.9970000  0  6G18G 2G11G19G16G 6
  22183203.9624    7909641.20746   6158063.69161
  20742749.1424  -16369108.49247 -12667576.36463
  22400696.470    -6776454.499 6  -5249080.65821
  20479828.868    -2671851.697 6  -2071488.01322
  23213705.5874    -164141.16445   -111979.96961
  22428335.8994   -9299940.34945  -6933859.80161
 91  4 15 21 54 59.9970000  0  6G18G 2G11G19G16G 6
  22190242.970     7946634.191 6   6186889.23921
  20736079.4074  -16404160.50147 -12694889.55563
  22401719.6034   -6771069.03946  -5244884.18461
  20479939.048    -2671266.864 6  -2071032.31822
  23213194.8844    -166804.25245   -114055.16661
  22419994.564    -9343765.705 5  -6968009.34321
 91  4 15 21 55 14.9970000  0  6G18G 2G11G19G16G 6
  22197296.298     7983693.639 6   6215766.57321
  20729424.3844  -16439127.66547 -12722136.63363
  22402774.915    -6765529.806 6  -5240567.91821
  20480062.634    -2670614.745 6  -2070524.19622
  23212713.298     -169341.334 5   -116032.19221
  22411660.954    -9387577.742 5  -7002148.47621
 91  4 15 21 55 29.9970000  0  6G18G 2G11G19G16G 6
  22204361.1574    8020816.55646   6244693.37261
  20722786.5564  -16474012.50047 -12749319.56363
  22403860.9314   -6759839.47946  -5236133.90061
  20480195.845    -2669897.769 6  -2069965.53322
  23212253.0564    -171755.22045   -117913.21161
  22403325.4234   -9431378.83845  -7036279.11161
 91  4 15 21 55 44.9970000  0  6G18G 2G11G19G16G 6
  22211435.993     8058002.444 6   6273669.23121
  20716163.4464  -16508815.33647 -12776438.59063
  22404968.9934   -6753998.43146  -5231582.46261
  20480347.774    -2669116.276 6  -2069356.59822
  23211817.5244    -174046.33845   -119698.55661
  22394991.2434   -9475169.27146  -7070401.42361
 91  4 15 21 55 59.9970000  0  6G18G 2G11G19G16G 6
  22218526.5874    8095251.15846   6302694.05261
  20709556.4784  -16543536.17447 -12803493.72763
  22406108.7124   -6748006.84246  -5226913.71161
  20480508.142    -2668270.121 6  -2068697.27722
  23211404.407     -176214.993 5   -121388.50321
  22386659.1264   -9518949.06045  -7104515.45061
 91  4 15 21 56 14.9970000  0  6G18G 2G11G19G16G 6
  22225627.6184    8132566.81146   6331771.02161
  20702964.6104  -16578170.67647 -12830481.58363
  22407279.1034   -6741860.37446  -5222124.24361
  20480682.071    -2667354.819 6  -2067984.06922
  23211015.9704    -178256.66345   -122979.48761
  22378331.931    -9562713.644 5  -7138617.60721
 91  4 15 21 56 29.9970000  0  6G18G 2G11G19G16G 6
  22232739.212     8169948.278 6   6360899.29621
  20696392.3064  -16612719.45447 -12857402.64563
  22408477.274    -6735559.984 6  -5217214.87621
  20480870.103    -2666371.056 6  -2067217.51822
  23210654.2434    -180172.65145   -124472.52561
  22370007.032    -9606463.861 5  -7172708.58821
 91  4 15 21 56 44.9970000  0  6G18G 2G11G19G16G 6
  22239865.681     8207396.110 6   6390079.26621
  20689832.2124  -16647181.94947 -12884256.47363
  22409705.9314   -6729105.15346  -5212185.13661
  20481070.243    -2665317.974 6  -2066396.95022
  23210314.978     -181962.165 5   -125867.05121
  22361682.251    -9650198.984 5  -7206787.81421
 91  4 15 21 56 59.9970000  0  6G18G 2G11G19G16G 6
  22247004.868     8244903.160 6   6419305.37121
  20683290.6344  -16681565.07047 -12911048.44963
  22410962.603    -6722502.867 6  -5207040.51621
  20481284.673    -2664202.345 6  -2065527.65122
  23209995.6034    -183632.53645   -127168.72361
  22353362.853    -9693925.802 6  -7240860.58321
 91  4 15 21 57 14.9970000  0  6G18G 2G11G19G16G 6
  22254155.517     8282474.469 6   6448581.55421
  20676763.9704  -16715863.46347 -12937774.40563
  22412246.7124   -6715747.99246  -5201776.98661
  20481507.829    -2663018.638 6  -2064605.29522
  23209701.8994    -185178.75345   -128373.65661
  22345044.8534   -9737639.07845  -7274922.78261
 91  4 15 21 57 29.9970000  0  6G18G 2G11G19G16G 6
  22261311.9854    8320105.75046   6477904.48761
  20670253.6734  -16750081.14147 -12964437.46363
  22413559.6424   -6708844.73046  -5196397.85561
  20481743.798    -2661770.974 6  -2063633.10722
  23209430.1344    -186604.90945   -129485.03161
  22336727.0174   -9781342.79945  -7308977.52861
 91  4 15 21 57 44.9970000  0  6G18G 2G11G19G16G 6
  22268485.087     8357796.003 6   6507273.35221
  20663754.6264  -16784218.69547 -12991038.08563
  22414904.2674   -6701793.74647  -5190903.63061
  20481995.892    -2660459.928 6  -2062611.53522
  23209180.876     -187911.923 5   -130503.58621
  22328409.407    -9825037.394 5  -7343025.14921
 91  4 15 21 57 59.9970000  0  6G18G 2G11G19G16G 6
  22275671.110     8395542.972 6   6536686.40921
  20657273.8454  -16818278.25447 -13017577.93663
  22416273.298    -6694597.200 6  -5185295.87721
  20482256.087    -2659087.368 6  -2061542.02422
  23208952.415     -189101.810 5   -131430.84721
  22320098.8924   -9868724.92945  -7377067.26061
 91  4 15 21 58 14.9970000  0  6G18G 2G11G19G16G 6
  22282867.0794    8433354.19346   6566149.54361
  20650809.2354  -16852252.01547 -13044050.93163
  22417669.6104   -6687247.59546  -5179568.94461
  20482531.024    -2657645.580 6  -2060418.57222
  23208751.5714    -190167.12245   -132261.04161
  22311786.5404   -9912397.62646  -7411097.83461
 91  4 15 21 58 29.9970000  0  6G18G 2G11G19G16G 6
  22290071.5564    8471229.35946   6595662.50761
  20644360.6814  -16886140.09547 -13070457.16263
  22419101.1964   -6679745.23946  -5173722.96961
  20482815.478    -2656134.451 6  -2059241.08622
  23208572.079     -191108.197 5   -132994.43021
  22303480.2744   -9956055.51746  -7445116.90061
 91  4 15 21 58 44.9970000  0  6G18G 2G11G19G16G 6
  22297290.1034    8509163.44146   6625221.37961
  20637929.5094  -16919947.31447 -13096800.38763
  22420554.985    -6672095.077 6  -5167761.81821
  20483118.001    -2654558.605 6  -2058013.16722
  23208415.2904    -191929.76245   -133634.70461
  22295172.056    -9999703.342 5  -7479128.11921
 91  4 15 21 58 59.9970000  0  6G18G 2G11G19G16G 6
  22304521.6734    8547151.21346   6654822.08061
  20631508.3994  -16953678.53147 -13123084.38863
  22422038.829    -6664302.122 6  -5161689.41321
  20483430.814    -2652922.693 6  -2056738.44922
  23208282.8924    -192637.08045   -134185.94461
  22286869.9934  -10043345.95445  -7513135.23561
 91  4 15 21 59 14.9970000  0  6G18G 2G11G19G16G 6
  22311762.970     8585194.766 6   6684466.24021
  20625104.8294  -16987331.49247 -13149307.41163
  22423549.2044   -6656364.31446  -5155504.10261
  20483752.610    -2651224.642 6  -2055415.30722
  23208168.6344    -193228.29245   -134646.72561
  22278564.970   -10086981.144 5  -7547136.53721
 91  4 15 21 59 29.9970000  0  6G18G 2G11G19G16G 6
  22319009.5324    8623291.31246   6714151.70261
  20618716.4464  -17020908.52947 -13175471.27163
  22425085.5014   -6648283.98146  -5149207.75861
  20484087.7434   -2649466.75646  -2054045.54062
  23208077.564     -193706.059 5   -135019.11121
  22270262.5404  -10130611.00946  -7581133.70661
 91  4 15 21 59 44.9970000  0  6G18G 2G11G19G16G 6
  22326269.6424    8661440.65146   6743878.30461
  20612340.3924  -17054409.47747 -13201575.84363
  22426651.0244   -6640061.25846  -5142800.46261
  20484433.626    -2647648.620 6  -2052628.82722
  23208010.814     -194069.963 5   -135302.76421
  22261964.6494  -10174235.42446  -7615126.66961
 91  4 15 21 59 59.9970000  0  6G18G 2G11G19G16G 6
  22333539.2284    8699649.27446   6773651.11061
  20605981.0094  -17087828.04847 -13227616.21863
  22428243.071    -6631689.896 6  -5136277.29821
  20484793.329    -2645763.698 6  -2051160.07322
  23207963.282     -194314.031 5   -135493.01021
  22253664.368   -10217847.977 6  -7649110.39521
 91  4 15 22  0 14.9970000  0  6G18G 2G11G19G16G 6
  22340822.2904    8737915.98746   6803469.15861
  20599637.2744  -17121164.96647 -13253592.98963
  22429863.314    -6623170.771 6  -5129639.04221
  20485162.751    -2643812.848 6  -2049639.94822
  23207939.618     -194439.022 5
  22245363.1184  -10261449.46645  -7683085.48761
 91  4 15 22  0 29.9970000  0  6G18G 2G11G19G16G 6
  22348115.5014    8776232.28946   6833325.85761
  20593305.7124  -17154428.77947 -13279512.76463
  22431511.970    -6614512.467 6  -5122892.33121
  20485547.9704   -2641804.29546  -2048074.85662
  23207933.673     -194453.729 5
  22237068.360   -10305048.179 5  -7717058.36721
 91  4 15 22  0 44.9970000  0  6G18G 2G11G19G16G 6
  22355417.696     8814603.456 6   6863225.31521
  20586991.8844  -17187613.38347 -13305370.83763
  22433186.314    -6605709.332 6  -5116032.75821
  20485941.134    -2639731.869 6  -2046459.99422
  23207953.556     -194352.541 5
  22228774.7124  -10348638.21046  -7751024.49761
 91  4 15 22  0 59.9970000  0  6G18G 2G11G19G16G 6
  22362728.368     8853023.078 6   6893162.51621
  20580691.6034  -17220725.52047 -13331172.44063
  22434889.1344   -6596767.93746  -5109065.48061
  20486343.040    -2637602.173 6  -2044800.50722
  23207994.376     -194142.385 5
  22220479.931   -10392225.933 6  -7784988.86521
 91  4 15 22  1 14.9970000  0  6G18G 2G11G19G16G 6
  22370047.767     8891493.779 6   6923139.53021
  20574405.7674  -17253761.97447 -13356915.07963
  22436616.7434   -6587685.56046  -5101988.29161
  20486761.407    -2635412.134 6  -2043094.00222
  23208059.384     -193820.189 5
  22212185.5564  -10435808.30246  -7818949.05461
 91  4 15 22  1 29.9970000  0  6G18G 2G11G19G16G 6
  22377377.1344    8930016.54446   6953157.12061
  20568131.6264  -17286721.54347 -13382597.79263
  22438373.118    -6578461.020 6  -5094800.36321
  20487189.689    -2633160.314 6  -2041339.35422
  23208141.532     -193384.933 5   -134769.48721
  22203892.5404  -10479383.96045  -7852904.02061
 91  4 15 22  1 44.9970000  0  6G18G 2G11G19G16G 6
  22384717.1654    8968585.76446   6983210.88761
  20561872.9154  -17319609.55047 -13408224.75063
  22440151.814    -6569099.820 6  -5087505.93321
  20487630.337    -2630851.969 6  -2039540.66022
  23208243.7124    -192841.93445   -134346.43661
  22195600.790   -10522958.310 5  -7886857.94221
 91  4 15 22  1 59.9970000  0  6G18G 2G11G19G16G 6
  22392066.767     9007201.081 6   7013300.57521
  20555630.6344  -17352426.29147 -13433796.17663
  22441962.415    -6559602.330 6  -5080105.31821
  20488077.282    -2628487.226 6  -2037698.02522
  23208367.2124    -192191.85945   -133839.93861
  22187308.267   -10566531.362 6  -7920810.88221
 91  4 15 22  2 14.9970000  0  6G18G 2G11G19G16G 6
  22399423.165     9045866.744 6   7043429.49921
  20549399.5874  -17385167.04047 -13459308.39263
  22443796.196    -6549963.956 6  -5072594.90321
  20488541.524    -2626061.159 6  -2035807.60322
  23208511.8374    -191430.09945   -133246.40361
  22179020.1424  -10610098.28446  -7954759.05161
 91  4 15 22  2 29.9970000  0  6G18G 2G11G19G16G 6
  22406794.259     9084577.385 6   7073593.46321
  20543181.5954  -17417836.91647 -13484765.38063
  22445655.6654   -6540190.10246  -5064978.94761
  20489012.657    -2623578.827 6  -2033873.33322
  23208680.079     -190561.858 5   -132569.92321
  22170725.6894  -10653664.29445  -7988706.48461
 91  4 15 22  2 44.9970000  0  6G18G 2G11G19G16G 6
  22414167.829     9123335.388 6   7103794.34221
  20536980.3604  -17450433.30647 -13510165.10963
  22447541.4854   -6530278.41546  -5057255.55261
  20489497.696    -2621037.594 6  -2031893.17422
  23208864.1104    -189585.01145   -131808.80761
  22162437.0014  -10697226.78645  -8022651.12861
 91  4 15 22  2 59.9970000  0  6G18G 2G11G19G16G 6
  22421551.9464    9162146.41246   7134036.53361
  20530791.8764  -17482950.49147 -13535503.11463
  22449453.665    -6520223.295 6  -5049420.43021
  20489992.923    -2618431.737 6  -2029862.65622
  23209072.6654    -188494.13845   -130958.85161
  22154152.0174  -10740779.90846  -8056588.55461
 91  4 15 22  3 14.9970000  0  6G18G 2G11G19G16G 6
  22428943.720     9200999.274 6   7164311.32121
  20524616.1734  -17515399.17547 -13560787.74463
  22451396.2674   -6510035.65646  -5041482.01461
  20490498.462    -2615771.824 6  -2027790.01522
  23209299.407     -187300.103 5   -130028.47421
  22145864.618   -10784334.317 6  -8090527.03621
 91  4 15 22  3 29.9970000  0  6G18G 2G11G19G16G 6
  22436346.9854    9239896.45046   7194620.64261
  20518454.9394  -17547776.73147 -13586016.95163
  22453359.1894   -6499712.84946  -5033438.30461
  20491016.853    -2613055.120 6  -2025673.12322
  23209543.853     -186000.443 5   -129015.85421
  22137576.7044  -10827887.28046  -8124464.36561
 91  4 15 22  3 44.9970000  0  6G18G 2G11G19G16G 6
  22443756.7904    9278841.34245   7224967.15761
  20512307.1964  -17580079.44947 -13611187.84563
  22455349.3294   -6489251.47046  -5025286.58461
  20491543.814    -2610277.817 6  -2023509.00422
  23209812.2674    -184591.63445   -127918.15461
  22129285.876   -10871435.023 5  -8158397.53621
 91  4 15 22  3 59.9970000  0  6G18G 2G11G19G16G 6
  22451174.454     9317830.930 6   7255348.47221
  20506174.603   -17612310.116 7 -13636302.59223
  22457364.3994   -6478654.58146  -5017029.30261
  20492083.751    -2607442.574 6  -2021299.75022
  23210100.939     -183076.610 5   -126737.69221
  22121002.267   -10914980.355 6  -8192328.81521
 91  4 15 22  4 14.9970000  0  6G18G 2G11G19G16G 6
  22458605.1814    9356864.73946   7285764.26561
  20500055.7594  -17644469.07347 -13661361.46063
  22459408.4624   -6467922.67246  -5008666.79161
  20492633.767    -2604549.538 6  -2019045.45422
  23210410.087     -181456.003 5   -125474.94921
  22112715.8064  -10958523.42046  -8226258.40261
 91  4 15 22  4 29.9970000  0  6G18G 2G11G19G16G 6
  22466042.6574    9395946.68046   7316217.55861
  20493949.1814  -17676552.18347 -13686361.23263
  22461476.7984   -6457051.46946  -5000195.74961
  20493195.517    -2601594.295 6  -2016742.68922
  23210739.9624    -179725.81845   -124126.84761
  22104431.3844  -11002059.84846  -8260182.85861
 91  4 15 22  4 44.9970000  0  6G18G 2G11G19G16G 6
  22473491.9624    9435073.30946   7346705.65461
  20487858.2514  -17708562.31747 -13711304.13463
  22463572.571    -6446044.239 6  -4991618.71321
  20493771.134    -2598579.905 6  -2014393.83322
  23211089.126     -177889.422 5   -122695.96121
  22096145.939   -11045592.721 5  -8294104.50721
 91  4 15 22  4 59.9970000  0  6G18G 2G11G19G16G 6
  22480946.806     9474243.818 6   7377227.95821
  20481780.790   -17740500.345 7 -13736190.85523
  22465690.5174   -6434902.00346  -4982936.46261
  20494354.196    -2595506.957 6  -2011999.34322
  23211457.8604    -175947.28245   -121182.69761
  22087861.399   -11089122.741 5  -8328023.86021
 91  4 15 22  5 14.9970000  0  6G18G 2G11G19G16G 6
  22488406.189     9513455.035 6   7407781.98621
  20475716.360   -17772369.149 7 -13761023.63223
  22467836.0244   -6423627.80346  -4974151.42361
  20494950.314    -2592378.273 6  -2009561.42922
  23211850.235     -173902.672 5   -119589.55621
  22079580.0174  -11132652.59546  -8361943.12461
 91  4 15 22  5 29.9970000  0  6G18G 2G11G19G16G 6
  22495875.837     9552709.145 6   7438369.44821
  20469664.704   -17804166.082 7 -13785800.40923
  22470006.978    -6412219.243 6  -4965261.64421
  20495559.173    -2589191.351 6  -2007078.13022
  23212258.079     -171753.370 5   -117914.85421
  22071296.6344  -11176179.66246  -8395860.24561
 91  4 15 22  5 44.9970000  0  6G18G 2G11G19G16G 6
  22503352.407     9592005.714 5   7468989.96821
  20463628.423   -17835891.398 7 -13810521.37923
  22472203.9854   -6400676.77346  -4956267.56061
  20496175.274    -2585946.156 6  -2004549.42522
  23212684.649     -169499.898 5   -116158.96121
  22063013.071   -11219704.288 5  -8429775.47221
 91  4 15 22  5 59.9970000  0  6G18G 2G11G19G16G 6
  22510834.173     9631342.969 5   7499642.21421
  20457603.399   -17867546.697 7 -13835187.79123
  22474426.2824   -6389002.03146  -4947170.35561
  20496804.134    -2582644.094 6  -2001976.41422
  23213134.9934    -167144.15545   -114323.37261
  22054731.4544  -11263227.73845  -8463689.73361
 91  4 15 22  6 14.9970000  0  6G18G 2G11G19G16G 6
  22518328.821     9670723.555 5   7530328.20921
  20451594.2514  -17899129.24547 -13859797.51363
  22476673.5954   -6377192.44546  -4937968.14061
  20497443.524    -2579282.279 6  -1999356.83822
  23213603.962     -164683.488 5   -112406.06021
  22046450.2904  -11306747.25446  -8497600.94461
 91  4 15 22  6 29.9970000  0  6G18G 2G11G19G16G 6
  22525836.3844    9710142.93745   7561044.42561
  20445595.8064  -17930643.21447 -13884353.79463
  22478945.3534   -6365252.44846  -4928664.28061
  20498092.993    -2575864.919 6  -1996693.98522
  23214087.3214    -162122.51545   -110410.57561
  22038168.3294  -11350266.96446  -8531512.31061
 91  4 15 22  6 44.9970000  0  6G18G 2G11G19G16G 6
  22533344.0324    9749601.79146   7591791.41961
  20439613.6814  -17962087.33847 -13908855.64963
  22481241.8454   -6353180.94246  -4919257.95961
  20498753.493    -2572390.681 6  -1993986.80322
  23214597.876     -159459.754 5   -108335.77721
  22029886.5874  -11393785.64745  -8565422.88461
 91  4 15 22  6 59.9970000  0  6G18G 2G11G19G16G 6
  22540857.876     9789105.116 5   7622573.07821
  20433644.7044  -17993456.84647 -13933299.36563
  22483564.7904   -6340973.19546  -4909745.44961
  20499428.095    -2568854.439 6  -1991231.31322
  23215124.3294    -156690.76245   -106178.21661
  22021607.8214  -11437298.29146  -8599328.74961
 91  4 15 22  7 14.9970000  0  6G18G 2G11G19G16G 6
  22548384.9934    9828646.25546   7653384.15961
  20427688.2904  -18024757.97947 -13957689.79763
  22485913.978    -6328635.812 6  -4900131.93221
  20500110.899    -2565262.465 6  -1988432.39422
  23215670.8534    -153821.97245   -103942.87561
  22013327.571   -11480811.130 6  -8633234.76821
 91  4 15 22  7 29.9970000  0  6G18G 2G11G19G16G 6
  22555918.298     9868225.076 6   7684224.62921
  20421744.087   -18055990.390 7 -13982026.68723
  22488283.5244   -6316168.63546  -4890417.27061
  20500804.892    -2561614.468 6  -1985589.82022
  23216233.540     -150853.391 5   -101629.77521
  22005047.3534  -11524323.60346  -8667140.49461
 91  4 15 22  7 44.9970000  0  6G18G 2G11G19G16G 6
  22563457.751     9907843.820 6   7715096.20621
  20415814.501   -18087151.763 7 -14006308.22123
  22490683.001    -6303569.591 6  -4880599.89521
  20501511.267    -2557908.074 6  -1982701.74422
  23216821.6184    -147782.95245    -99237.32061
  21996764.524   -11567833.423 5  -8701044.14621
 91  4 15 22  7 59.9970000  0  6G18G 2G11G19G16G 6
  22571004.7984    9947505.41146   7746001.16961
  20409898.306   -18118239.362 7 -14030532.27223
  22493106.735    -6290835.985 6  -4870677.62121
  20502227.814    -2554140.120 6  -1979765.69922
  23217425.4544    -144608.14545    -96763.53561
  21988487.814   -11611337.597 6  -8734943.39121
 91  4 15 22  8 14.9970000  0  6G18G 2G11G19G16G 6
  22578559.2984    9987206.96046   7776937.27361
  20403997.485   -18149255.465 7 -14054700.61023
  22495553.618    -6277970.315 6  -4860652.44621
  20502956.048    -2550312.813 6  -1976783.40422
  23218045.8294    -141331.30945    -94210.24961
  21980209.595   -11654838.474 6  -8768840.10121
 91  4 15 22  8 29.9970000  0  6G18G 2G11G19G16G 6
  22586120.962    10026951.431 5   7807906.82921
  20398108.431   -18180196.820 7 -14078810.70723
  22498030.368    -6264969.447 6  -4850521.92621
  20503696.790    -2546422.802 6  -1973752.25322
  23218689.1424    -137949.37245    -91575.06061
  21971933.524   -11698332.596 6  -8802731.55221
 91  4 15 22  8 44.9970000  0  6G18G 2G11G19G16G 6
  22593692.845    10066734.401 5   7838906.36821
  20392235.071   -18211067.649 7 -14102865.85023
  22500527.1034   -6251837.87346  -4840289.56161
  20504445.954    -2542474.352 6  -1970675.55922
  23219356.2984    -134466.82845    -88861.50661
  21963656.392   -11741824.309 6  -8836621.08721
 91  4 15 22  8 59.9970000  0  6G18G 2G11G19G16G 6
  22601269.3064   10106552.66945   7869933.40061
  20386371.431   -18241870.931 7 -14126868.35623
  22503049.321    -6238578.567 6  -4829957.69221
  20505208.1264   -2538470.21846  -1967555.48262
  23220032.493     -130886.823 5    -86071.98321
  21955381.728   -11785316.328 6  -8870510.84321
 91  4 15 22  9 14.9970000  0  6G18G 2G11G19G16G 6
  22608853.181    10146403.932 5   7900986.17721
  20380523.790   -18272608.464 7 -14150819.62823
  22505599.360    -6225193.882 6  -4819528.08121
  20505981.743    -2534412.266 6  -1964393.46722
  23220732.540     -127211.725 5    -83208.36521
  21947104.0874  -11828810.44646  -8904402.29661
 91  4 15 22  9 29.9970000  0  6G18G 2G11G19G16G 6
  22616443.6814   10186296.30545   7932070.96961
  20374687.048   -18303272.122 7 -14174713.33323
  22508170.9704   -6211675.72246  -4808994.47961
  20506766.970    -2530292.237 6  -1961183.07922
  23221453.048     -123433.420 5    -80264.32521
  21938829.978   -11872298.435 6  -8938288.97621
 91  4 15 22  9 44.9970000  0  6G18G 2G11G19G16G 6
  22624041.7204   10226226.00645   7963184.84661
  20368865.009   -18333865.656 7 -14198552.40023
  22510767.4234   -6198028.06346  -4798359.94561
  20507560.7434   -2526113.62946  -1957927.04662
  23222195.368     -119556.145 5    -77243.16221
  21930551.204   -11915783.979 6  -8972173.70121
 91  4 15 22  9 59.9970000  0  6G18G 2G11G19G16G 6
  22631645.9854   10266187.11245   7994323.20261
  20363055.103   -18364394.290 7 -14222340.88923
  22513387.5564   -6184256.25646  -4787628.72061
  20508366.376    -2521881.318 6  -1954629.16322
  23222948.4314    -115585.26744    -74149.09361
  21922278.6734  -11959272.16046  -9006060.47661
 91  4 15 22 10 14.9970000  0  6G18G 2G11G19G16G 6
  22639256.423    10306180.375 5   8025486.60521
  20357260.1424  -18394857.26647 -14246078.21363
  22516032.5174   -6170359.69646  -4776800.28061
  20509182.7984   -2517594.52646  -1951288.83662
  23223720.821     -111520.174 4    -70981.59421
  21914001.392   -12002762.069 6  -9039948.61021
 91  4 15 22 10 29.9970000  0  6G18G 2G11G19G16G 6
  22646872.259    10346207.943 5   8056676.74021
  20351474.634   -18425252.197 7 -14269762.51923
  22518700.8924   -6156336.34546  -4765872.99961
  20510007.860    -2513250.996 6  -1947904.29122
  23224512.345     -107358.409 4    -67738.75221
  21905726.915   -12046251.203 6  -9073836.17621
 91  4 15 22 10 44.9970000  0  6G18G 2G11G19G16G 6
  22654493.9784   10386274.21145   8087897.05861
  20345705.4234  -18455574.45947 -14293390.19463
  22521394.751    -6142181.622 6  -4754843.40821
  20510845.735    -2508845.890 6  -1944471.76222
  23225326.4464    -103095.64444    -64417.22061
  21897448.5484  -12089734.83946  -9107719.44561
 91  4 15 22 10 59.9970000  0  6G18G 2G11G19G16G 6
  22662131.4854   10426376.81845   8119145.64761
  20339948.2124  -18485826.07147 -14316962.82263
  22524110.524    -6127897.790 6  -4743713.17221
  20511696.392    -2504381.107 6
  23226148.235      -98734.116 4
  21889176.915   -12133215.002 6  -9141599.97821
 91  4 15 22 11 14.9970000  0  6G18G 2G11G19G16G 6
  22669765.689    10466508.859 5   8150417.18721
  20334204.3064  -18516013.70247 -14340485.59263
  22526853.345    -6113491.789 6  -4732487.74421
  20512557.564    -2499863.244 6
  23227004.478      -94280.747 4
  21880902.751   -12176698.145 6  -9175482.84321
 91  4 15 22 11 29.9970000  0  6G18G 2G11G19G16G 6
  22677408.7124   10506674.22945   8181714.70961
  20328473.1184  -18546133.21347 -14363955.28163
  22529619.5174   -6098959.77546  -4721164.13861
  20513430.1034   -2495288.22246
  23227866.970      -89731.721 4
  21872628.1574  -12220180.30446  -9209364.95961
 91  4 15 22 11 44.9970000  0  6G18G 2G11G19G16G 6
  22685061.4234   10546874.55945   8213039.45661
  20322754.5324  -18576182.99547 -14387370.63563
  22532409.126    -6084300.087 6  -4709741.03221
  20514310.251    -2490654.034 6
  23228754.118      -85085.875 4
  21864354.1814  -12263659.50546  -9243244.76161
 91  4 15 22 11 59.9970000  0  6G18G 2G11G19G16G 6
  22692711.7824   10587101.92045   8244385.29161
  20317047.6344  -18606170.25647 -14410737.27263
  22535221.306    -6069520.227 6  -4698224.30221
  20515202.282    -2485967.961 6
  23229653.103      -80350.618 4
  21856079.6264  -12307143.03046  -9277127.94461
 91  4 15 22 12 14.9970000  0  6G18G 2G11G19G16G 6
  22700378.0014   10627365.42845   8275759.27961
  20311354.7824  -18636085.98447 -14434048.16763
  22538055.814    -6054611.409 6  -4686607.08821
  20516105.181    -2481220.886 6  -1922945.93522
  23230574.173      -75517.006 4    -42928.02221
  21847805.892   -12350621.579 6  -9311007.27221
 91  4 15 22 12 29.9970000  0  6G18G 2G11G19G16G 6
  22708042.6964   10667662.42645   8307159.34561
  20305675.9624  -18665932.60047 -14457305.20863
  22540918.9704   -6039576.16146  -4674891.34361
  20517021.282    -2476414.915 6  -1919201.04722
  23231510.259      -70587.587 4    -39087.02121
  21839531.001   -12394097.447 6  -9344884.48821
 91  4 15 22 12 44.9970000  0  6G18G 2G11G19G16G 6
  22715719.001    10707993.113 5   8338585.69921
  20300008.9074  -18695709.44647 -14480507.89063
  22543804.8604   -6024413.93746  -4663076.65061
  20517944.6574   -2471549.21346  -1915409.62062
  23232466.946      -65562.014 4    -35171.09021
  21831258.735   -12437569.942 6  -9378759.05021
 91  4 15 22 12 59.9970000  0  6G18G 2G11G19G16G 6
  22723405.3924   10748355.64945   8370036.82761
  20294354.532   -18725418.357 7 -14503657.63123
  22546713.2744   -6009126.94046  -4651164.75261
  20518885.259    -2466625.471 6  -1911572.96122
  23233439.071      -60442.242 4    -31181.76521
  21822987.4784  -12481040.76346  -9412632.31861
 91  4 15 22 13 14.9970000  0  6G18G 2G11G19G16G 6
  22731083.868    10788751.477 5   8401513.91521
  20288714.571   -18755057.637 7 -14526753.12423
  22549645.907    -5993713.495 6  -4639154.31621
  20519828.704    -2461641.931 6  -1907689.71022
  23234435.2354     -55226.99944    -27118.05461
  21814716.5094  -12524508.09546  -9446502.91061
 91  4 15 22 13 29.9970000  0  6G18G 2G11G19G16G 6
  22738784.3454   10829176.93845   8433014.10361
  20283087.9624  -18784630.78247 -14549797.07663
  22552603.704    -5978177.400 6  -4627048.33321
  20520787.7744   -2456602.20846  -1903762.68162
  23235445.5324     -49919.82444    -22982.71361
  21806444.2904  -12567975.31446  -9480373.40761
 91  4 15 22 13 44.9970000  0  6G18G 2G11G19G16G 6
  22746480.2904   10869635.17445   8464539.80261
  20277472.439   -18814134.229 7 -14572786.71823
  22555583.6264   -5962515.49946  -4614844.27861
  20521759.353    -2451502.616 6  -1899788.99422
  23236471.8454     -44517.60344    -18773.29861
  21798171.5954  -12611438.94546  -9514241.08261
 91  4 15 22 13 59.9970000  0  6G18G 2G11G19G16G 6
  22754186.017    10910126.688 5   8496091.47321
  20271871.392   -18843566.853 7 -14595721.17623
  22558588.7124   -5946726.86846  -4602541.49061
  20522742.985    -2446341.960 6  -1895767.72422
  23237518.8604     -39019.62045    -14489.26161
  21789903.7744  -12654897.76846  -9548105.01161
 91  4 15 22 14 14.9970000  0  6G18G 2G11G19G16G 6
  22761899.4784   10950649.96945   8527667.86061
  20266284.837   -18872930.445 7 -14618601.84423
  22561615.0564   -5930813.18146  -4590141.26261
  20523734.689    -2441121.743 6  -1891700.04422
  23238584.5404     -33427.54445    -10131.90761
  21781633.189   -12698353.153 6  -9581966.26121
 91  4 15 22 14 29.9970000  0  6G18G 2G11G19G16G 6
  22769616.0954   10991207.21145   8559270.74861
  20260710.806   -18902222.364 7 -14641426.66123
  22564669.860    -5914772.234 6  -4577641.85221
  20524739.001    -2435839.218 6  -1887583.81322
  23239668.9234     -27739.08945     -5699.44261
  21773364.923   -12741802.562 6  -9615822.86921
 91  4 15 22 14 44.9970000  0  6G18G 2G11G19G16G 6
  22777340.673    11031795.674 5   8590897.90721
  20255148.939   -18931445.208 7 -14664197.65723
  22567746.985    -5898606.663 6  -4565045.34021
  20525758.306    -2430496.984 6  -1883421.06222
  23240764.6654     -21956.97445     -1194.03161
  21765095.5324  -12785248.30046  -9649676.60861
 91  4 15 22 14 59.9970000  0  6G18G 2G11G19G16G 6
  22785070.0714   11072411.24645   8622546.24261
  20249601.517   -18960602.818 7 -14686917.82523
  22570843.556    -5882320.692 6  -4552355.02921
  20526782.978    -2425098.751 6  -1879214.66122
  23241880.9464     -16085.39545      3381.10261
  21756830.8454  -12828694.28646  -9683530.52961
 91  4 15 22 15 14.9970000  0  6G18G 2G11G19G16G 6
  22792804.157    11113058.445 5   8654219.21121
  20244065.970   -18989690.503 7 -14709583.50123
  22573967.5874   -5865909.91946  -4539567.45961
  20527821.259    -2419639.687 6  -1874960.87122
  23243020.5484     -10119.69345      8029.62561
  21748565.0484  -12872135.64946  -9717380.87561
 91  4 15 22 15 29.9970000  0  6G18G 2G11G19G16G 6
  22800546.6574   11153733.12545   8685913.58261
  20238542.954   -19018711.990 7 -14732197.59623
  22577113.9464   -5849378.26246  -4526685.67361
  20528873.149    -2414123.361 6  -1870662.45522
  23244172.243       -4064.184 5     12748.11021
  21740295.9784  -12915576.05246  -9751230.47161
 91  4 15 22 15 44.9970000  0  6G18G 2G11G19G16G 6
  22808293.204    11194437.934 5   8717631.40521
  20233031.868   -19047664.533 7 -14754757.97323
  22580283.540    -5832723.142 6  -4513707.70621
  20529934.306    -2408547.036 6  -1866317.29122
  23245339.337        2083.584 5     17538.46421
  21732031.7674  -12959012.70246  -9785077.12061
 91  4 15 22 15 59.9970000  0  6G18G 2G11G19G16G 6
  22816043.423    11235168.289 5   8749369.20921
  20227536.095   -19076552.641 7 -14777268.14123
  22583473.079    -5815948.985 6  -4500636.97021
  20531006.165    -2402914.788 6  -1861928.54822
  23246527.2284       8318.96445     22397.09961
  21723766.4074  -13002449.65946  -9818923.99861
 91  4 15 22 16 14.9970000  0  6G18G 2G11G19G16G 6
  22823798.759    11275929.718 5   8781131.18421
  20222053.517   -19105370.343 7 -14799723.44323
  22586690.626    -5799050.101 6  -4487469.06621
  20532087.876    -2397220.691 6  -1857491.60922
  23247735.0644      14647.91145     27328.63161
  21715501.3064  -13045880.96546  -9852766.50261
 91  4 15 22 16 29.9970000  0  6G18G 2G11G19G16G 6
  22831563.3294   11316720.87145   8812916.28961
  20216581.009   -19134118.790 7 -14822124.78223
  22589930.220    -5782027.961 6  -4474205.07221
  20533184.064    -2391465.844 6  -1853007.33622
  23248953.7434      21069.15045     32332.10861
  21707237.5954  -13089307.65546  -9886605.41861
 91  4 15 22 16 44.9970000  0  6G18G 2G11G19G16G 6
  22839328.2904   11357541.42745   8844724.36061
  20211124.509   -19162798.011 7 -14844472.17523
  22593193.735    -5764882.794 6  -4460845.25421
  20534291.032    -2385650.092 6  -1848475.60322
  23250193.8064      27582.03145     37406.96161
  21698972.603   -13132729.773 6  -9920440.74021
 91  4 15 22 16 59.9970000  0  6G18G 2G11G19G16G 6
  22847101.7674   11398388.12245   8876552.79561
  20205678.954   -19191411.139 7 -14866768.06823
  22596477.392    -5747617.985 6  -4447392.17821
  20535407.806    -2379776.534 6  -1843898.83322
  23251449.7434      34183.41045     42550.77161
  21690711.8214  -13176150.22646  -9954274.76561
 91  4 15 22 17 14.9970000  0  6G18G 2G11G19G16G 6
  22854877.5324   11439261.30445   8908401.81361
  20200246.0714  -19219957.65647 -14889012.05063
  22599786.048    -5730233.161 6  -4433845.60921
  20536536.782    -2373844.343 6  -1839276.36222
  23252722.8454      40873.53945     47763.76261
  21682450.7124  -13219568.34546  -9988107.00661
 91  4 15 22 17 29.9970000  0  6G18G 2G11G19G16G 6
  22862664.970    11480162.477 5   8940272.69521
  20194827.884   -19248435.583 7 -14911202.58823
  22603117.5094   -5712726.72046  -4420204.28161
  20537677.118    -2367851.544 6  -1834606.67822
  23254012.759       47654.105 5     53047.20321
  21674186.415   -13262982.046 6 -10021935.78721
 91  4 15 22 17 44.9970000  0  5G18G 2G11G19G 6
  22870453.806    11521090.638 5   8972164.60121
  20189421.649   -19276845.887 7 -14933340.43323
  22606472.149    -5695099.724 6  -4406468.98121
  20538829.954    -2361799.009 6  -1829890.44222
  21665926.196   -13306392.220 6 -10055761.80121
 91  4 15 22 17 59.9970000  0  5G18G 2G11G19G 6
  22878248.0014   11562050.29845   9004081.03961
  20184029.907   -19305183.613 7 -14955421.72523
  22609848.673    -5677347.504 6  -4392636.12321
  20539992.134    -2355681.746 6  -1825123.76722
  21657669.837   -13349793.801 6 -10089581.14021
 91  4 15 22 18 14.9970000  0  5G18G 2G11G19G 6
  22886049.415    11603036.885 5   9036018.41121
  20178648.712   -19333453.263 7 -14977449.96723
  22613252.3294   -5659474.73846  -4378709.32761
  20541168.923    -2349503.952 6  -1820309.92822
  21649409.134   -13393191.033 6 -10123397.09721
 91  4 15 22 18 29.9970000  0  5G18G 2G11G19G 6
  22893853.524    11644053.342 5   9067979.16421
  20173283.306   -19361651.638 7 -14999422.67623
  22616676.548    -5641478.616 6  -4364686.41921
  20542355.235    -2343262.662 6  -1815446.60322
  21641153.2594  -13436580.88746 -10157207.28261
 91  4 15 22 18 44.9970000  0  5G18G 2G11G19G 6
  22901663.728    11685095.298 5   9099959.69021
  20167930.767   -19389782.823 7 -15021343.02323
  22620123.5644   -5623363.29946  -4350570.63461
  20543557.040    -2336961.612 6  -1810536.72322
  21632896.978   -13479966.989 6 -10191014.55021
 91  4 15 22 18 59.9970000  0  5G18G 2G11G19G 6
  22909476.6654   11726168.52345   9131964.62161
  20162591.118   -19417840.685 7 -15043206.23723
  22623593.009    -5605122.703 6  -4336357.22021
  20544766.314    -2330594.433 6  -1805575.30822
  21624642.696   -13523343.179 6 -10224814.09521
 91  4 15 22 19 14.9970000  0  5G18G 2G11G19G 6
  22917297.274    11767268.651 5   9163990.56321
  20157265.314   -19445829.496 7 -15065015.64323
  22627090.501    -5586761.490 6  -4322049.83821
  20545990.6734   -2324165.40346  -1800565.70662
  21616389.8374  -13566713.64346 -10258609.16261
 91  4 15 22 19 29.9960000  0  5G18G 2G11G19G 6
  22925120.7074   11808391.53445   9196034.12061
  20151952.168   -19473748.390 7 -15086770.57423
  22630603.371    -5568282.272 6  -4307650.46521
  20547223.801    -2317675.917 6  -1795508.98722
  21608136.9024  -13610076.50246 -10292398.33961
 91  4 15 22 19 44.9960000  0  5G18G 2G11G19G 6
  22932956.6994   11849542.55445   9228099.69661
  20146651.965   -19501600.927 7 -15108473.79623
  22634144.590    -5549682.527 6  -4293157.26021
  20548473.4494   -2311124.90446  -1790404.33262
  21599885.543   -13653437.152 6 -10326185.78921
 91  4 15 22 19 59.9960000  0  5G18G 2G11G19G 6
  22940793.2624   11890719.07845   9260185.10261
  20141364.277   -19529384.943 7 -15130123.62823
  22637706.285    -5530963.431 6  -4278570.96121
  20549729.4574   -2304512.49546  -1785251.83062
  21591634.145   -13696792.180 6 -10359968.81521
 91  4 15 22 20 14.9960000  0  5G18G 2G11G19G 6
  22948630.676    11931922.291 5   9292291.31521
  20136090.145   -19557099.489 7 -15151719.32623
  22641291.957    -5512124.012 6  -4263890.95821
  20551001.637    -2297837.132 6  -1780050.27522
  21583387.465   -13740140.366 6 -10393746.53121
 91  4 15 22 20 29.9960000  0  5G18G 2G11G19G 6
  22956479.6764   11973152.59245   9324418.64461
  20130830.246   -19584743.764 7 -15173260.27323
  22644898.5274   -5493163.81146  -4249116.84861
  20552282.793    -2291098.083 6  -1774799.09122
  21575140.1914  -13783480.82446 -10427518.24761
 91  4 15 22 20 44.9960000  0  5G18G 2G11G19G 6
  22964325.1844   12014410.95045   9356567.86061
  20125583.371   -19612316.558 7 -15194745.51823
  22648530.4654   -5474081.85446  -4234247.79561
  20553578.5514   -2284293.82646  -1769497.10462
  21566891.8484  -13826812.25446 -10461282.90561
 91  4 15 22 20 59.9960000  0  5G18G 2G11G19G 6
  22972185.863    12055695.197 5   9388737.20821
  20120348.754   -19639819.818 7 -15216176.58023
  22652184.238    -5454880.346 6  -4219285.61821
  20554884.6374   -2277426.36746  -1764145.86162
  21558649.6684  -13870136.48846 -10495041.94561
 91  4 15 22 21 14.9960000  0  5G18G 2G11G19G 6
  22980042.027    12097001.590 5   9420923.78521
  20115128.316   -19667256.892 7 -15237556.07523
  22655860.973    -5435562.924 6  -4204233.18021
  20556202.8954   -2270499.09646  -1758748.01762
  21550406.6524  -13913456.79846 -10528797.96561
 91  4 15 22 21 29.9960000  0  5G18G 2G11G19G 6
  22987910.074    12138330.879 5   9453128.28421
  20109920.207   -19694626.617 7 -15258883.08323
  22659559.488    -5416128.625 6  -4189089.55621
  20557532.2624   -2263510.65346  -1753302.50862
  21542161.9654  -13956771.82346 -10562549.86861
 91  4 15 22 21 44.9960000  0  5G18G 2G11G19G 6
  22995783.6064   12179680.35545   9485348.39461
  20104723.363   -19721931.738 7 -15280159.75523
  22663278.645    -5396580.338 6  -4173857.19421
  20558874.7934   -2256463.76646  -1747811.45762
  21533920.504   -14000084.344 6 -10596299.78621
 91  4 15 22 21 59.9960000  0  5G18G 2G11G19G 6
  23003648.6994   12221051.13945   9517585.25861
  20099540.113   -19749170.658 7 -15301384.84023
  22667020.152    -5376916.798 6  -4158535.02421
  20560226.6604   -2249356.52546  -1742273.38062
  21525680.0594  -14043392.36846 -10630046.19261
 91  4 15 22 22 14.9960000  0  5G18G 2G11G19G 6
  23011528.6844   12262446.61745   9549841.26461
  20094368.957   -19776339.954 7 -15322555.67823
  22670786.270    -5357134.624 6  -4143120.36521
  20561591.6764   -2242185.30946  -1736685.45262
  21517439.2544  -14086692.30946 -10663786.34561
 91  4 15 22 22 29.9960000  0  5G18G 2G11G19G 6
  23019411.277    12303867.345 5   9582116.98721
  20089213.301   -19803438.756 7 -15343671.58123
  22674571.9264   -5337233.26846  -4127612.84761
  20562966.3714   -2234949.38946  -1731047.10262
  21509200.121   -14129983.267 6 -10697519.48221
 91  4 15 22 22 44.9960000  0  5G18G 2G11G19G 6
  23027303.3404   12345312.02445   9614411.31761
  20084069.504   -19830468.551 7 -15364733.71923
  22678380.910    -5317214.426 6  -4112013.82321
  20564358.3634   -2227649.94746  -1725359.26462
  21500967.7544  -14173266.50946 -10731246.57661
 91  4 15 22 22 59.9960000  0  5G18G 2G11G19G 6
  23035186.7234   12386775.89945   9646720.64161
  20078938.629   -19857433.230 7 -15385745.10723
  22682214.145    -5297082.325 6  -4096326.48921
  20565756.5044   -2220290.88746  -1719624.96062
  21492730.887   -14216545.913 6 -10764970.71721
 91  4 15 22 23 14.9960000  0  5G18G 2G11G19G 6
  23043085.4654   12428261.22445   9679046.68661
  20073818.981   -19884330.598 7 -15406704.05223
  22686066.262    -5276835.005 6  -4080549.43121
  20567169.9264   -2212869.75246  -1713842.29462
  21484494.691   -14259819.054 6 -10798689.97721
 91  4 15 22 23 29.9960000  0  5G18G 2G11G19G 6
  23050983.574    12469770.235 5   9711391.21021
  20068715.684   -19911158.333 7 -15427608.73823
  22689942.5904   -5256470.33746  -4064680.91361
  20568594.5744   -2205384.20846  -1708009.42962
  21476262.191   -14303083.664 6 -10832402.55021
 91  4 15 22 23 44.9960000  0  5G18G 2G11G19G 6
  23058887.176    12511298.551 5   9743750.70721
  20063622.527   -19937920.394 7 -15448462.24923
  22693840.434    -5235992.509 6  -4048724.14121
  20570029.6764   -2197838.02246  -1702129.31962
  21468030.3954  -14346343.16946 -10866111.18361
 91  4 15 22 23 59.9960000  0  5G18G 2G11G19G 6
  23066794.637    12552842.508 5   9776122.47621
  20058541.449   -19964620.119 7 -15469267.18223
  22697755.285    -5215405.113 6  -4032682.09121
  20571481.7074   -2190234.60346  -1696204.60762
  21459799.3794  -14389601.15346 -10899818.64461
 91  4 15 22 24 14.9960000  0  5G18G 2G11G19G 6
  23074702.973    12594404.013 5   9808507.80221
  20053472.9884  -19991255.41147 -15490021.91363
  22701696.535    -5194706.380 6  -4016553.26821
  20572935.3954   -2182571.72546  -1690233.56962
  21451567.551   -14432855.343 6 -10933523.12721
 91  4 15 22 24 29.9960000  0  5G18G 2G11G19G 6
  23082612.9814   12635988.29945   9840911.02761
  20048417.5274  -20017820.78847 -15510722.16863
  22705655.566    -5173890.953 6  -4000333.47921
  20574406.9494   -2174843.65746  -1684211.72862
  21443337.199   -14476099.810 6 -10967220.03221
 91  4 15 22 24 44.9960000  0  5G18G 2G11G19G 6
  23090531.410    12677594.682 5   9873331.33521
  20043375.3324  -20044316.66647 -15531368.26663
  22709640.9964   -5152959.52946  -3984023.33361
  20575888.5824   -2167050.88546  -1678139.47362
  21435108.754   -14519335.204 6 -11000909.87121
 91  4 15 22 24 59.9960000  0  5G18G 2G11G19G 6
  23098450.3634   12719217.28645   9905764.36361
  20038345.5824  -20070748.88747 -15551964.76563
  22713643.3874   -5131918.00646  -3967627.36761
  20577384.2314   -2159198.99246  -1672021.14862
  21426883.543   -14562566.870 6 -11034596.80221
 91  4 15 22 25 14.9960000  0  5G18G 2G11G19G 6
  23106376.520    12760859.255 5   9938212.47021
  20033328.8564  -20097113.94947 -15572508.93163
  22717668.816    -5110763.252 6  -3951143.18421
  20578889.4574   -2151284.27546  -1665853.87162
  21418656.746   -14605791.281 6 -11068278.10921
 91  4 15 22 25 29.9960000  0  5G18G 2G11G19G 6
  23114307.2704   12802519.49945   9970674.79661
  20028323.9494  -20123412.77547 -15593001.48063
  22721717.481    -5089496.350 6  -3934571.64721
  20580410.7154   -2143307.66446  -1659638.36262
  21410432.9654  -14649009.11246 -11101954.27561
 91  4 15 22 25 44.9960000  0  5G18G 2G11G19G 6
  23122240.1454   12844198.12645  10003151.43961
  20023331.910   -20149645.318 7 -15613442.38123
  22725784.4414   -5068117.43046  -3917912.77061
  20581935.6214   -2135268.86846  -1653374.40662
  21402208.5664  -14692220.19946 -11135625.15261
 91  4 15 22 25 59.9960000  0  5G18G 2G11G19G 6
  23130170.895    12885895.830 5  10035642.97321
  20018352.4104  -20175810.43747 -15633830.74763
  22729873.793    -5046625.666 6  -3901166.00721
  20583479.629    -2127166.577 6  -1647060.96122
  21393990.191   -14735423.077 6 -11169289.64921
 91  4 15 22 26 14.9960000  0  5G18G 2G11G19G 6
  23138105.098    12927614.389 5  10068150.75721
  20013387.1214  -20201906.02347 -15654164.92963
  22733984.879    -5025019.422 6  -3884329.97921
  20585032.902    -2118998.719 6  -1640696.43522
  21385771.0664  -14778615.76246 -11202946.25761
 91  4 15 22 26 29.9960000  0  5G18G 2G11G19G 6
  23146048.7154   12969353.17145  10100674.29961
  20008434.262   -20227932.360 7 -15674445.15023
  22738118.4184   -5003299.00246  -3867405.03761
  20586601.7854   -2110765.53546  -1634280.99862
  21377550.9184  -14821798.45546 -11236595.05761
 91  4 15 22 26 44.9960000  0  5G18G 2G11G19G 6
  23153997.652    13011110.982 5  10133212.64421
  20003494.3874  -20253890.66547 -15694672.36063
  22742273.785    -4981465.819 6  -3850392.22621
  20588180.3874   -2102467.90546  -1627815.34362
  21369337.5044  -14864971.87346 -11270236.57661
 91  4 15 22 26 59.9960000  0  5G18G 2G11G19G 6
  23161949.629    13052887.294 5  10165765.42521
  19998568.348   -20279781.228 7 -15714846.78323
  22746449.684    -4959520.357 6  -3833291.90421
  20589769.949    -2094105.933 6  -1621299.56522
  21361122.738   -14908136.152 6 -11303871.00021
 91  4 15 22 27 14.9960000  0  5G18G 2G11G19G 6
  23169903.1214   13094683.12245  10198333.43761
  19993654.418   -20305602.776 7 -15734967.42723
  22750647.6454   -4937461.65146  -3816103.34861
  20591374.0594   -2085678.50446  -1614732.76662
  21352909.9184  -14951289.97046 -11337497.28861
 91  4 15 22 27 29.9960000  0  5G18G 2G11G19G 6
  23177859.434    13136492.296 5  10230911.80221
  19988752.371   -20331361.331 7 -15755038.98523
  22754865.082    -4915295.937 6  -3798831.39621
  20592988.4104   -2077191.46546  -1608119.52762
  21344702.746   -14994439.185 6 -11371119.99321
 91  4 15 22 27 44.9960000  0  5G18G 2G11G19G 6
  23185820.7464   13178314.73445  10263500.53161
  19983862.191   -20357056.461 7 -15775061.12123
  22759103.074    -4893023.162 6  -3781476.06721
  20594614.6294   -2068644.42346  -1601459.53162
  21336491.543   -15037583.493 6 -11404738.89121
 91  4 15 22 27 59.9960000  0  5G18G 2G11G19G 6
  23193782.6134   13220154.17345  10296102.53161
  19978984.7624  -20382684.11147 -15795030.67963
  22763361.551    -4870639.503 6  -3764034.29321
  20596254.4814   -2060033.07346  -1594749.42262
  21328279.4734  -15080718.50946 -11438350.50261
 91  4 15 22 28 14.9960000  0  5G18G 2G11G19G 6
  23201745.832    13262009.478 5  10328716.82321
  19974121.496   -20408245.500 7 -15814948.60423
  22767642.957    -4848146.469 6  -3746507.28821
  20597905.2154   -2051358.52246  -1587990.06762
  21320075.074   -15123845.216 6 -11471955.61521
 91  4 15 22 28 29.9960000  0  5G18G 2G11G19G 6
  23209712.535    13303880.279 5  10361343.27221
  19969271.1604  -20433740.69147 -15834814.94563
  22771945.3014   -4825544.28346  -3728895.25461
  20599567.6684   -2042620.61946  -1581181.35062
  21311870.4264  -15166963.45846 -11505554.20861
 91  4 15 22 28 44.9960000  0  5G18G 2G11G19G 6
  23217681.160    13345764.005 5  10393979.72221
  19964430.8714  -20459171.95047 -15854631.47263
  22776265.5124   -4802835.29346  -3711199.99461
  20601243.3014   -2033821.36546  -1574324.82362
  21303664.488   -15210075.356 6 -11539147.86221
 91  4 15 22 28 59.9960000  0  5G18G 2G11G19G 6
  23225658.4654   13387661.69945  10426627.12061
  19959603.473   -20484538.394 7 -15874397.48723
  22780607.965    -4780018.992 6  -3693421.10321
  20602928.2704   -2024960.01446  -1567419.89762
  21295462.574   -15253179.875 6 -11572735.69621
 91  4 15 22 29 14.9960000  0  5G18G 2G11G19G 6
  23233630.7544   13429578.91645  10459289.67361
  19954790.387   -20509834.025 7 -15894108.32723
  22784970.879    -4757089.689 6  -3675554.16421
  20604629.2854   -2016030.31546  -1560461.73362
  21287264.3244  -15296270.78846 -11606312.94761
 91  4 15 22 29 29.9960000  0  5G18G 2G11G19G 6
  23241611.801    13471510.743 5  10491963.67821
  19949989.5984  -20535063.51447 -15913767.63263
  22789354.668    -4734052.074 6  -3657602.81821
  20606338.5824   -2007036.70446  -1553453.76062
  21279064.207   -15339352.645 6 -11639883.17821
 91  4 15 22 29 44.9960000  0  5G18G 2G11G19G 6
  23249595.1684   13513453.38345  10524646.03861
  19945199.3164  -20560230.32647 -15933378.09563
  22793758.785    -4710909.966 6  -3639570.07521
  20608063.0594   -1997982.80146  -1546398.79762
  21270867.4024  -15382428.80546 -11673448.95461
 91  4 15 22 29 59.9960000  0  5G18G 2G11G19G 6
  23257577.4964   13555413.12945  10557341.77461
  19940424.566   -20585327.902 7 -15952934.60823
  22798183.7544   -4687657.17446  -3621451.04961
  20609797.3564   -1988861.82046  -1539291.57762
  21262674.1454  -15425492.44546 -11707004.93961
 91  4 15 22 30 14.9960000  0  5G18G 2G11G19G 6
  23265565.762    13597386.676 5  10590048.24621
  19935661.098   -20610359.556 7 -15972439.74423
  22802629.1214   -4664297.29546  -3603248.60661
  20611546.0904   -1979677.04146  -1532134.63662
  21254479.3404  -15468546.91846 -11740553.81161
 91  4 15 22 30 29.9960000  0  5G18G 2G11G19G 6
  23273556.566    13639374.886 5  10622766.15921
  19930910.090   -20635323.979 7 -15991892.49523
  22807094.941    -4640829.276 6  -3584961.88621
  20613307.7234   -1970427.23246  -1524927.02862
  21246288.434   -15511590.649 6 -11774094.33821
 91  4 15 22 30 44.9960000  0  5G18G 2G11G19G 6
  23281549.3484   13681373.91945  10655492.47061
  19926171.090   -20660224.777 7 -16011295.67123
  22811580.1764   -4617256.84646  -3566593.79861
  20615078.0824   -1961115.73746  -1517671.35062
  21238099.5594  -15554627.05646 -11807629.13861
 91  4 15 22 30 59.9960000  0  5G18G 2G11G19G 6
  23289542.926    13723383.254 5  10688226.87421
  19921444.387   -20685062.534 7 -16030649.72623
  22816088.285    -4593580.851 6  -3548145.04321
  20616860.4574   -1951742.96646  -1510367.92662
  21229912.285   -15597656.490 6 -11841158.48222
 91  4 15 22 31 14.9960000  0  5G18G 2G11G19G 6
  23297537.223    13765406.001 5  10720971.63121
  19916731.668   -20709833.778 7 -16049951.95123
  22820612.856    -4569797.996 6  -3529612.98321
  20618657.9264   -1942305.03746  -1503013.72762
  21221722.5514  -15640675.26546 -11874679.51561
 91  4 15 22 31 29.9960000  0  5G18G 2G11G19G 6
  23305535.6454   13807444.43344  10753728.73361
  19912031.6294  -20734536.15047 -16069200.51363
  22825158.1134   -4545906.07346  -3510995.94661
  20620467.0044   -1932799.60546  -1495606.93562
  21213540.4654  -15683680.64746 -11908190.13061
 91  4 15 22 31 44.9960000  0  4G 2G11G19G 6
  19907342.3244  -20759174.61247 -16088399.27663
  22829724.793    -4521910.566 6  -3492298.22721
  20622287.4024   -1923231.74746  -1488151.49162
  21205359.496   -15726677.632 6 -11941694.25221
 91  4 15 22 31 59.9960000  0  4G 2G11G19G 6
  19902667.7774  -20783742.12647 -16107542.75663
  22834312.160    -4497804.471 6  -3473514.27121
  20624120.2854   -1913594.22046  -1480641.76962
  21197176.5354  -15769659.13746 -11975186.25762
 91  4 15 22 32 14.9960000  0  4G 2G11G19G 6
  19898004.4734  -20808241.18947 -16126632.89863
  22838919.551    -4473590.600 6  -3454646.40221
  20625968.809    -1903889.519 6  -1473079.70922
  21189003.8324  -15812627.43146 -12008667.91261
 91  4 15 22 32 29.9960000  0  4G 2G11G19G 6
  19893355.7544  -20832672.78047 -16145670.46163
  22843548.1064   -4449270.48046  -3435695.69461
  20627826.8404   -1894118.42146  -1465465.90362
  21180830.1454  -15855583.28046 -12042139.95561
 91  4 15 22 32 44.9960000  0  4G 2G11G19G 6
  19888719.0274  -20857036.81247 -16164655.38263
  22848194.254    -4424843.890 5  -3416662.02321
  20629699.707    -1884280.525 6  -1457800.04822
  21172656.1214  -15898526.42446 -12075602.13061
 91  4 15 22 32 59.9960000  0  4G 2G11G19G 6
  19884095.4264  -20881336.07047 -16183589.83563
  22852864.512    -4400314.145 6  -3397547.99621
  20631583.4104   -1874378.84046  -1450084.49262
  21164485.5744  -15941459.51146 -12109056.36762
 91  4 15 22 33 14.9960000  0  4G 2G11G19G 6
  19879483.9884  -20905571.07847 -16202474.22063
  22857550.324    -4375682.038 6  -3378354.18621
  20633478.293    -1864413.835 6  -1442319.58922
  21156320.0044  -15984382.72946 -12142502.92061
 91  4 15 22 33 29.9960000  0  4G 2G11G19G 6
  19874882.6214  -20929745.26347 -16221311.20663
  22862256.559    -4350951.048 5  -3359083.36521
  20635387.895    -1854388.444 6  -1434507.64022
  21148153.6994  -16027299.50346 -12175944.53161
 91  4 15 22 33 44.9960000  0  4G 2G11G19G 6
  19870295.215   -20953852.969 7 -16240096.39223
  22866984.645    -4326116.000 6  -3339731.41121
  20637309.2544   -1844297.26846  -1426644.42662
  21139989.1454  -16070203.89346 -12209376.46961
 91  4 15 22 33 59.9960000  0  4G 2G11G19G 6
  19865721.215   -20977891.922 7 -16258828.00523
  22871729.4184   -4301174.55845  -3320296.53061
  20639241.043    -1834137.536 6  -1418727.79522
  21131825.7074  -16113093.38546 -12242796.75662
 91  4 15 22 34 14.9960000  0  4G 2G11G19G 6
  19861159.356   -21001866.653 7 -16277509.56923
  22876495.543    -4276131.620 6  -3300782.66321
  20641187.3954   -1823913.89246  -1410761.35762
  21123666.4814  -16155972.46846 -12276208.95861
 91  4 15 22 34 29.9960000  0  4G 2G11G19G 6
  19856610.3634  -21025773.75047 -16296138.43763
  22881279.895    -4250984.043 5  -3281187.19721
  20643146.4494   -1813622.72646  -1402742.30462
  21115509.777   -16198837.448 6 -12309610.17921
 91  4 15 22 34 44.9960000  0  4G 2G11G19G 6
  19852073.0204  -21049613.51347 -16314714.83463
  22886084.4184   -4225732.36245  -3261510.57161
  20645116.402    -1803264.257 6  -1394670.81122
  21107356.0354  -16241688.41046 -12343000.47761
 91  4 15 22 34 59.9960000  0  4G 2G11G19G 6
  19847549.262   -21073386.819 7 -16333239.44523
  22890911.4104   -4200377.86746  -3241753.91861
  20647100.5984   -1792839.34646  -1386547.54062
  21099202.176   -16284525.912 6 -12376380.27321
 91  4 15 22 35 14.9960000  0  4G 2G11G19G 6
  19843037.051   -21097095.470 7 -16351713.67423
  22895752.8634   -4174922.63045  -3221918.72961
  20649096.293    -1782349.629 6  -1378373.77722
  21091054.9494  -16327351.84646 -12409751.06261
 91  4 15 22 35 29.9960000  0  4G 2G11G19G 6
  19838537.348   -21120742.126 7 -16370139.59923
  22900618.4814   -4149369.32545  -3202007.09561
  20651103.6844   -1771797.52946  -1370151.40162
  21082905.3404  -16370168.53946 -12443114.66162
 91  4 15 22 35 44.9960000  0  4G 2G11G19G 6
  19834048.7384  -21144327.51547 -16388517.78463
  22905499.4814   -4123719.19846  -3182020.03661
  20653122.277    -1761183.911 6  -1361881.09322
  21074759.5744  -16412976.79846 -12476471.66161
 91  4 15 22 35 59.9960000  0  4G 2G11G19G 6
  19829574.0744  -21167846.08647 -16406843.90263
  22910399.176    -4097966.830 5  -3161953.33921
  20655157.3014   -1750502.90546  -1353558.27462
  21066616.2074  -16455770.55946 -12509817.37661
 91  4 15 22 36 14.9960000  0  4G 2G11G19G 6
  19825111.348   -21191296.993 7 -16425117.29723
  22915319.3564   -4072111.72545  -3141806.56061
  20657203.1454   -1739753.79446  -1345182.37962
  21058477.6524  -16498548.91946 -12543151.13862
 91  4 15 22 36 29.9960000  0  4G 2G11G19G 6
  19820660.2314  -21214687.65647 -16443343.74863
  22920257.2854   -4046161.31445  -3121585.47561
  20659262.051    -1728943.582 6  -1336758.88722
  21050334.887   -16541318.998 6 -12576478.37122
 91  4 15 22 36 44.9960000  0  4G 2G11G19G 6
  19816221.4654  -21238013.80347 -16461519.92563
  22925213.9264   -4020111.71345  -3101287.16861
  20661330.1844   -1718067.99646  -1328284.43262
  21042202.629   -16584076.362 6 -12609795.70921
 91  4 15 22 36 59.9960000  0  4G 2G11G19G 6
  19811795.4184  -21261273.84247 -16479644.59063
  22930191.559    -3993961.602 5  -3080910.54421
  20663413.9104   -1707125.37246  -1319757.75462
  21034066.0204  -16626819.21946 -12643101.80561
 91  4 15 22 37 14.9960000  0  4G 2G11G19G 6
  19807380.785   -21284471.535 7 -16497720.67423
  22935186.199    -3967715.024 5  -3060458.69721
  20665506.465    -1696119.355 6  -1311181.68322
  21025933.7154  -16669551.21746 -12676399.39761
 91  4 15 22 37 29.9960000  0  4G 2G11G19G 6
  19802977.9884  -21307605.83647 -16515747.36263
  22940197.5594   -3941371.27945  -3039931.11961
  20667614.8244   -1685048.92046  -1302555.40662
  21017805.4964  -16712271.16246 -12709687.59962
 91  4 15 22 37 44.9960000  0  4G 2G11G19G 6
  19798587.4414  -21330678.21247 -16533725.80163
  22945228.2704   -3914932.04045  -3019329.18061
  20669731.074    -1673915.284 6  -1293879.88722
  21009680.0744  -16754980.07246 -12742967.19362
 91  4 15 22 37 59.9960000  0  4G 2G11G19G 6
  19794208.6994  -21353687.67247 -16551655.21063
  22950279.1684   -3888396.51345  -2998652.25961
  20671865.5744   -1662717.41946  -1285154.32062
  21001553.9814  -16797677.00846 -12776237.49461
 91  4 15 22 38 14.9960000  0  4G 2G11G19G 6
  19789841.7314  -21376636.70347 -16569537.53563
  22955348.723    -3861767.457 5  -2977902.39921
  20674005.121    -1651457.700 6  -1276380.55322
  20993430.1294  -16840364.33946 -12809500.28762
 91  4 15 22 38 29.9960000  0  4G 2G11G19G 6
  19785487.3714  -21399521.68747 -16587369.95163
  22960433.9734   -3835041.53045  -2957076.96861
  20676160.684    -1640132.282 6  -1267555.60022
  20985309.4264  -16883037.98146 -12842752.41162
 91  4 15 22 38 44.9960000  0  4G 2G11G19G 6
  19781145.2154  -21422343.00547 -16605152.75563
  22965535.527    -3808219.371 5  -2936176.68721
  20678327.8874   -1628741.52946  -1258679.72462
  20977189.7314  -16925698.30146 -12875994.15862
 91  4 15 22 38 59.9960000  0  4G 2G11G19G 6
  19776813.6294  -21445102.00847 -16622887.00463
  22970656.9884   -3781302.65745  -2915202.71761
  20680507.949    -1617286.605 6  -1249753.85622
  20969076.2154  -16968346.33546 -12909226.32462
 91  4 15 22 39 14.9960000  0  4G 2G11G19G 6
  19772494.5904  -21467796.78747 -16640571.20863
  22975797.1134   -3754289.56045  -2894153.56461
  20682700.6684   -1605765.39746  -1240776.32762
  20960961.1064  -17010979.86846 -12942447.20761
 91  4 15 22 39 29.9960000  0  4G 2G11G19G 6
  19768188.0904  -21490430.08547 -16658207.50363
  22980956.3564   -3727183.10845  -2873031.70861
  20684904.418    -1594180.631 6  -1231749.28822
  20952853.5274  -17053601.50546 -12975658.80962
 91  4 15 22 39 44.9960000  0  4G 2G11G19G 6
  19763891.9574  -21513001.22947 -16675795.36963
  22986132.7234   -3699983.02845  -2851836.90261
  20687121.6064   -1582531.65046  -1222672.19562
  20944743.5434  -17096210.45646 -13008860.52662
 91  4 15 22 39 59.9960000  0  4G 2G11G19G 6
  19759608.5354  -21535512.20247 -16693336.35163
  22991324.5514   -3672691.54545  -2830570.88961
  20689349.0984   -1570820.38246  -1213546.57262
  20936638.6994  -17138808.58746 -13042053.78162
 91  4 15 22 40 14.9960000  0  4G 2G11G19G 6
  19755336.3484  -21557961.27247 -16710829.09763
  22996537.9814   -3645307.07045  -2809232.39661
  20691590.465    -1559044.880 6  -1204370.90622
  20928533.887   -17181393.839 6 -13075237.04422
 91  4 15 22 40 29.9960000  0  4G 2G11G19G 6
  19751076.1764  -21580349.09947 -16728274.11863
  23001766.0204   -3617830.63845  -2787822.20561
  20693842.027    -1547205.648 6  -1195145.56822
  20920432.3244  -17223966.43546 -13108410.44662
 91  4 15 22 40 44.9960000  0  4G 2G11G19G 6
  19746827.8164  -21602675.44347 -16745671.23063
  23007011.199    -3590262.153 5  -2766340.35621
  20696107.481    -1535302.234 6  -1185870.22422
  20912333.691   -17266526.203 6 -13141573.81522
 91  4 15 22 40 59.9960000  0  4G 2G11G19G 6
  19742591.2774  -21624939.73547 -16763019.99063
  23012277.574    -3562601.519 5  -2744786.70121
  20698387.9734   -1523334.09246  -1176544.44162
  20904237.2544  -17309072.33946 -13174726.58962
 91  4 15 22 41 14.9960000  0  4G 2G11G19G 6
  19738365.293   -21647145.834 7 -16780323.40223
  23017555.613    -3534852.849 5  -2723164.37521
  20700674.832    -1511305.024 6  -1167171.18822
  20896143.832   -17351608.432 6 -13207871.55122
 91  4 15 22 41 29.9960000  0  4G 2G11G19G 6
  19734152.1764  -21669290.49947 -16797578.95363
  23022853.418    -3507013.080 5  -2701471.12621
  20702976.207    -1499211.533 6  -1157747.73522
  20888051.6604  -17394131.04746 -13241005.99562
 91  4 15 22 41 44.9960000  0  4G 2G11G19G 6
  19729949.4884  -21691373.52347 -16814786.47264
  23028170.3014   -3479082.34945  -2679706.99261
  20705290.7934   -1487053.43946  -1148273.92962
  20879961.7464  -17436639.91446 -13274129.72562
 91  4 15 22 41 59.9960000  0  4G 2G11G19G 6
  19725758.8484  -21713394.73447 -16831945.82363
  23033503.1994   -3451060.57845  -2657871.87761
  20707615.496    -1474830.526 6  -1138749.63222
  20871877.0204  -17479134.56046 -13307242.37562
 91  4 15 22 42 14.9960000  0  4G 2G11G19G 6
  19721578.3404  -21735356.35247 -16849058.74263
  23038852.4344   -3422950.20745  -2635967.77461
  20709954.371    -1462544.804 6  -1129176.39122
  20863792.504   -17521616.891 6 -13340345.43722
 91  4 15 22 42 29.9960000  0  4G 2G11G19G 6
  19717412.3874  -21757254.52347 -16866122.22163
  23044218.207    -3394747.906 5  -2613992.02821
  20712302.1134   -1450192.28646  -1119551.08562
  20855709.6064  -17564082.99646 -13373435.85962
 91  4 15 22 42 44.9960000  0  4G 2G11G19G 6
  19713256.1914  -21779092.39947 -16883138.71764
  23049601.356    -3366456.893 5  -2591947.09321
  20714668.059    -1437776.117 6  -1109876.19522
  20847633.0514  -17606535.60946 -13406515.73862
 91  4 15 22 42 59.9960000  0  4G 2G11G19G 6
  19709112.8714  -21800867.55347 -16900106.33463
  23055000.6064   -3338074.88245  -2569831.33261
  20717045.801    -1425293.644 6  -1100149.64022
  20839557.488   -17648972.235 6 -13439583.19522
 91  4 15 22 43 14.9960000  0  4G 2G11G19G 6
  19704980.0434  -21822583.95847 -16917028.17563
  23060421.121    -3309606.341 5  -2547648.11721
  20719429.7234   -1412748.67746  -1090374.37062
  20831484.090   -17691396.529 6 -13472641.02722
 91  4 15 22 43 29.9960000  0  4G 2G11G19G 6
  19700858.9814  -21844240.36447 -16933903.26663
  23065854.691    -3281050.402 5  -2525396.76121
  20721828.176    -1400140.144 6  -1080549.59022
  20823413.848   -17733807.121 6 -13505688.18822
 91  4 15 22 43 44.9960000  0  4G 2G11G19G 6
  19696749.4654  -21865837.17447 -16950731.91963
  23071303.207    -3252407.595 5  -2503077.78021
  20724243.441    -1387468.268 6  -1070675.45022
  20815345.7234  -17776204.13046 -13538724.76062
 91  4 15 22 43 59.9960000  0  4G 2G11G19G 6
  19692651.9184  -21887370.73447 -16967511.28563
  23076772.496    -3223674.642 5  -2480688.52621
  20726664.449    -1374729.216 6  -1060748.96122
  20807281.3564  -17818583.85046 -13571747.86362
 91  4 15 22 44 14.9960000  0  4G 2G11G19G 6
  19688566.270   -21908843.065 7 -16984242.94323
  23082255.918    -3194853.885 5  -2458230.82721
  20729101.6134   -1361925.02146  -1050771.70362
  20799220.207   -17860947.930 6 -13604758.77622
 91  4 15 22 44 29.9960000  0  4G 2G11G19G 6
  19684491.1764  -21930260.43147 -17000931.77363
  23087756.566    -3165951.545 5  -2435709.62421
  20731547.606    -1349061.733 6  -1040748.41022
  20791157.8954  -17903302.34446 -13637762.18062
 91  4 15 22 44 44.9960000  0  4G 2G11G19G 6
  19680426.2624  -21951615.33747 -17017571.92863
  23093272.0904   -3136960.57545  -2413119.30161
  20734009.973    -1336131.695 6  -1030673.10422
  20783102.1294  -17945639.48746 -13670752.09962
 91  4 15 22 44 59.9960000  0  4G 2G11G19G 6
  19676374.6214  -21972906.77047 -17034162.62363
  23098806.293    -3107880.347 5  -2390459.42521
  20736484.277    -1323134.036 6  -1020545.09722
  20775048.6604  -17987958.21746 -13703727.67162
 91  4 15 22 45 14.9960000  0  4G 2G11G19G 6
  19672335.0434  -21994135.44047 -17050704.41863
  23104360.0514   -3078711.77145  -2367730.76361
  20738969.137    -1310069.325 6  -1010364.85522
  20767000.270   -18030259.046 6 -13736689.29022
 91  4 15 22 45 29.9960000  0  4G 2G11G19G 6
  19668305.3484  -22015303.03647 -17067198.61964
  23109926.2934   -3049456.80145  -2344934.71761
  20741468.074    -1296939.065 6  -1000133.52922
  20758953.8014  -18072543.15646 -13769637.92262
 91  4 15 22 45 44.9960000  0  4G 2G11G19G 6
  19664291.5274  -22036412.25647 -17083647.33063
  23115507.965    -3020118.410 5  -2322073.69421
  20743978.4494   -1283745.89946   -989853.18062
  20750910.3564  -18114813.33446 -13802575.65562
 91  4 15 22 45 59.9960000  0  4G 2G11G19G 6
  19660285.3954  -22057462.71647 -17100050.25564
  23121107.504    -2990696.450 5  -2299147.57821
  20746500.551    -1270489.236 6   -979523.35922
  20742868.512   -18157068.902 6 -13835502.01122
 91  4 15 22 46 14.9960000  0  4G 2G11G19G 6
  19656289.6064  -22078455.09047 -17116407.92363
  23126722.6524   -2961191.94945  -2276157.11961
  20749036.809    -1257169.731 6   -969144.57322
  20734830.0514  -18199310.20146 -13868417.26862
 91  4 15 22 46 29.9960000  0  4G 2G11G19G 6
  19652306.5274  -22099387.55947 -17132718.91063
  23132352.527    -2931603.330 5  -2253101.09421
  20751582.3094   -1243785.43146   -958715.28562
  20726795.1604  -18241535.22146 -13901319.83162
 91  4 15 22 46 44.9960000  0  4G 2G11G19G 6
  19648333.3634  -22120258.57047 -17148982.00864
  23137999.7544   -2901929.18245  -2229978.44061
  20754142.473    -1230334.600 6   -948234.17422
  20718763.3954  -18283742.15546 -13934208.27862
 91  4 15 22 46 59.9960000  0  4G 2G11G19G 6
  19644374.2384  -22141069.65547 -17165198.40763
  23143663.676    -2872171.291 5  -2206790.55821
  20756716.176    -1216818.704 6   -937702.35322
  20710735.7464  -18325932.08146 -13967083.48162
 91  4 15 22 47 14.9960000  0  4G 2G11G19G 6
  19640425.6994  -22161818.90948 -17181366.62763
  23149341.652    -2842328.280 5  -2183536.31621
  20759300.215    -1203235.794 6   -927118.31521
  20702710.434   -18368103.284 6 -13999944.11422
 91  4 15 22 47 29.9960000  0  4G 2G11G19G 6
  19636488.066   -22182512.493 8 -17197491.47123
  23155032.715    -2812406.439 5  -2160220.64121
  20761896.402    -1189591.901 6   -916486.76422
  20694686.5514  -18410261.63346 -14032794.72162
 91  4 15 22 47 44.9960000  0  4G 2G11G19G 6
  19632559.9574  -22203151.67347 -17213573.92063
  23160744.027    -2782407.219 5  -2136844.69821
  20764504.910    -1175888.220 6   -905808.62022
  20686667.129   -18452408.049 6 -14065636.00822
 91  4 15 22 47 59.9960000  0  4G 2G11G19G 6
  19628644.0274  -22223732.54247 -17229610.93363
  23166468.238    -2752327.059 5  -2113405.68321
  20767121.816    -1162120.813 6   -895080.82622
  20678650.082   -18494538.359 6 -14098464.76722
 91  4 15 22 48 14.9950000  0  4G 2G11G19G 6
  19624739.2184  -22244252.85347 -17245600.76164
  23172206.6404   -2722167.37145  -2089904.69561
  20769757.7654   -1148289.64846   -884303.33661
  20670636.2334  -18536648.76046 -14131278.00762
 91  4 15 22 48 29.9950000  0  4G 2G11G19G 6
  19620845.7334  -22264717.26548 -17261547.02363
  23177959.7414   -2691926.31245  -2066340.29761
  20772399.0624   -1134394.67446   -873476.11761
  20662626.140   -18578746.346 6 -14164081.23922
 91  4 15 22 48 44.9950000  0  4G 2G11G19G 6
  19616960.8984  -22285123.97947 -17277448.33163
  23183731.671    -2661605.802 5  -2042713.97221
  20775055.921    -1120436.460 6   -862599.64321
  20654619.1404  -18620827.95446 -14196872.03762
 91  4 15 22 48 59.9950000  0  4G 2G11G19G 6
  19613089.3744  -22305470.68848 -17293302.87963
  23189516.2734   -2631203.65145  -2019024.00961
  20777728.101    -1106412.390 6   -851671.84521
  20646612.921   -18662890.774 6 -14229648.18722
 91  4 15 22 49 14.9950000  0  4G 2G11G19G 6
  19609229.6554  -22325754.61747 -17309108.51563
  23195318.569    -2600717.593 5  -1995268.71621
  20780408.507    -1092319.674 6   -840690.55221
  20638613.444   -18704932.136 6 -14262407.63822
 91  4 15 22 49 29.9950000  0  4G 2G11G19G 6
  19605382.8354  -22345976.07547 -17324865.46863
  23201135.804    -2570148.083 5  -1971448.39021
  20783102.226    -1078158.536 6   -829655.94321
  20630617.1714  -18746951.81446 -14295150.18262
 91  4 15 22 49 44.9950000  0  4G 2G11G19G 6
  19601545.124   -22366137.628 7 -17340575.74223
  23206966.616    -2539498.059 5  -1947565.31721
  20785809.733    -1063931.504 6   -818569.99721
  20622623.671   -18788952.391 6 -14327877.83422
 91  4 15 22 49 59.9950000  0  4G 2G11G19G 6
  19597720.882   -22386236.980 7 -17356237.54923
  23212818.1014   -2508765.32045  -1923617.77261
  20788530.6324   -1049635.82946   -807430.55661
  20614637.2804  -18830931.07747 -14360588.43062
 91  4 15 22 50 14.9950000  0  4G 2G11G19G 6
  19593907.538   -22406275.144 7 -17371851.68223
  23218680.2654   -2477951.18145  -1899606.77861
  20791261.796    -1035272.538 6   -796238.42721
  20606653.483   -18872888.578 6 -14393282.54122
 91  4 15 22 50 29.9950000  0  3G 2G19G 6
  19590105.343   -22426258.414 7 -17387423.02923
  20794010.991    -1020847.910 6   -784998.50822
  20598671.374   -18914831.022 6 -14425964.89622
 91  4 15 22 50 44.9950000  0  3G 2G19G 6
  19586313.0234  -22446183.40447 -17402948.96763
  20796765.023    -1006358.437 6   -773708.06921
  20590693.069   -18956754.846 6 -14458632.74422
 91  4 15 22 50 59.9950000  0  3G 2G19G 6
  19582533.249   -22466046.500 7 -17418426.68223
  20799533.648     -991800.447 6   -762364.22321
  20582719.273   -18998656.110 6 -14491283.03422
 91  4 15 22 51 14.9950000  0  3G 2G19G 6
  19578764.5384  -22485853.27547 -17433860.50363
  20802317.249     -977179.484 6   -750971.30821
  20574749.437   -19040540.311 6 -14523920.00022
 91  4 15 22 51 29.9950000  0  3G 2G19G 6
  19575006.437   -22505604.033 7 -17449250.68123
  20805112.2184    -962496.00446   -739529.70262
  20566780.7184  -19082407.59447 -14556543.79662
 91  4 15 22 51 44.9950000  0  3G 2G19G 6
  19571258.1404  -22525297.99947 -17464596.60063
  20807918.124     -947748.991 6   -728038.58321
  20558817.913   -19124256.919 6 -14589153.59922
 91  4 15 22 51 59.9950000  0  3G 2G19G 6
  19567521.983   -22544934.129 7 -17479897.45523
  20810735.9054    -932937.24246   -716496.99961
  20550857.3044  -19166086.83046 -14621748.27762
 91  4 15 22 52 14.9950000  0  3G 2G19G 6
  19563795.491   -22564514.464 7 -17495154.82923
  20813566.5464    -918062.39346   -704906.25762
  20542901.6324  -19207899.04446 -14654329.15962
 91  4 15 22 52 29.9950000  0  3G 2G19G 6
  19560079.2964  -22584038.23347 -17510368.13264
  20816409.390     -903123.825 6   -693265.88622
  20534947.4764  -19249692.72746 -14686895.60762
 91  4 15 22 52 44.9950000  0  3G 2G19G 6
  19556376.4914  -22603501.00247 -17525533.89664
  20819265.2654    -888117.40946   -681572.64461
  20526999.4764  -19291463.40447 -14719444.12162
 91  4 15 22 52 59.9950000  0  3G 2G19G 6
  19552683.9834  -22622903.74447 -17540652.89064
  20822133.9374    -873043.85346   -669827.05461
  20519056.3124  -19333211.63247 -14751975.15362
 91  4 15 22 53 14.9950000  0  3G 2G19G 6
  19549001.2734  -22642252.32947 -17555729.67964
  20825014.5234    -857908.60346   -658033.40262
  20511113.4684  -19374942.94546 -14784492.99362
 91  4 15 22 53 29.9950000  0  3G 2G19G 6
  19545330.413   -22661546.265 7 -17570763.88823
  20827906.421     -842711.221 6   -646191.36722
  20503175.6714  -19416656.54547 -14816997.02362
 91  4 15 22 53 44.9950000  0  3G 2G19G 6
  19541669.7024  -22680783.15447 -17585753.64563
  20830811.273     -827449.317 6   -634299.02421
  20495242.116   -19458349.973 7 -14849485.36622
 91  4 15 22 53 59.9950000  0  3G 2G19G 6
  19538020.546   -22699960.689 7 -17600697.15123
  20833726.444     -812120.570 6   -622354.59221
  20487311.8044  -19500020.52046 -14881955.86162
 91  4 15 22 54 14.9950000  0  3G 2G19G 6
  19534382.0544  -22719082.94547 -17615597.58563
  20836656.3044    -796728.84746   -610361.10861
  20479386.3664  -19541672.15446 -14914411.61662
 91  4 15 22 54 29.9950000  0  3G 2G19G 6
  19530752.101   -22738149.077 7 -17630454.28423
  20839597.788     -781273.065 6   -598317.70721
  20471463.468   -19583303.625 6 -14946851.67522
 91  4 15 22 54 44.9950000  0  3G 2G19G 6
  19527137.343   -22757156.875 7 -17645265.53223
  20842550.562     -765751.113 6   -586222.73021
  20463545.312   -19624912.561 7 -14979274.16522
 91  4 15 22 54 59.9950000  0  3G 2G19G 6
  19523529.671   -22776108.555 7 -17660033.05024
  20845518.546     -750165.206 6   -574077.92821
  20455631.148   -19666501.032 6 -15011680.71722
 91  4 15 22 55 14.9950000  0  3G 2G19G 6
  19519934.187   -22795003.883 7 -17674756.65523
  20848495.101     -734514.965 6   -561882.98121
  20447720.710   -19708068.463 6 -15044070.87422
 91  4 15 22 55 29.9950000  0  3G 2G19G 6
  19516349.358   -22813840.958 7 -17689434.86924
  20851486.749     -718798.273 6   -549636.28221
  20439815.179   -19749612.663 6 -15076442.93622
 91  4 15 22 55 44.9950000  0  3G 2G19G 6
  19512775.765   -22832621.963 7 -17704069.39124
  20854489.7264    -703017.60346   -537339.71861
  20431913.382   -19791135.773 6 -15108798.55622
 91  4 15 22 55 59.9950000  0  3G 2G19G 6
  19509213.444   -22851345.506 8 -17718659.14223
  20857504.741     -687171.300 6   -524991.99521
  20424018.3434  -19832636.02347 -15141136.35562
 91  4 15 22 56 14.9950000  0  3G 2G19G 6
  19505660.358   -22870013.896 7 -17733205.91323
  20860534.0304    -671261.22546   -512594.60261
  20416122.898   -19874115.160 6 -15173457.71622
 91  4 15 22 56 29.9950000  0  3G 2G19G 6
  19502118.7884  -22888623.04747 -17747706.52463
  20863572.913     -655283.387 6   -500144.38921
  20408236.257   -19915569.043 6 -15205759.39322
 91  4 15 22 56 44.9950000  0  3G 2G19G 6
  19498589.1244  -22907175.21547 -17762162.73264
  20866627.4764    -639240.08746   -487643.18561
  20400350.015   -19956999.857 6 -15238043.10122
 91  4 15 22 56 59.9950000  0  3G 2G19G 6
  19495068.8904  -22925674.24947 -17776577.53563
  20869690.9444    -623135.16546   -475093.95561
  20392469.8274  -19998411.12846 -15270311.57062
 91  4 15 22 57 14.9950000  0  3G 2G19G 6
  19491558.6324  -22944114.15247 -17790946.26564
  20872768.0774    -606962.51246   -462491.93661
  20384595.8434  -20039796.55047 -15302559.90262
 91  4 15 22 57 29.9950000  0  3G 2G19G 6
  19488060.6084  -22962498.12147 -17805271.40563
  20875858.1874    -590725.31646   -449839.64961
  20376724.132   -20081159.073 7 -15334790.39722
 91  4 15 22 57 44.9950000  0  3G 2G19G 6
  19484574.1944  -22980819.08947 -17819547.45163
  20878961.530     -574416.339 6   -437131.41721
  20368859.038   -20122491.326 7 -15366997.29722
 91  4 15 22 57 59.9950000  0  3G 2G19G 6
  19481099.077   -22999082.768 7 -17833778.86624
  20882077.405     -558041.115 6   -424371.56821
  20360996.632   -20163798.884 6 -15399184.95822
 91  4 15 22 58 14.9950000  0  2G19G 6
  20885207.6944    -541604.12346   -411563.58661
  20353142.874   -20205086.003 6 -15431356.68522
 91  4 15 22 58 29.9950000  0  3G 2G19G 6
  19474178.8824         -0.06257
  20888347.1554    -525097.46346   -398701.31561
  20345291.413   -20246344.479 7 -15463506.10022
 91  4 15 22 58 44.9950000  0  3G 2G19G 6
  19470736.4524     -18093.86147
  20891500.9604    -508525.07946   -385787.83561
  20337443.343   -20287578.079 7 -15495636.13122
 91  4 15 22 58 59.9950000  0  3G 2G19G 6
  19467303.7734     -36132.26347        -0.19974
  20894665.827     -491888.143 6   -372824.06321
  20329601.155   -20328787.835 7 -15527747.58022
 91  4 15 22 59 14.9950000  0  3G 2G19G 6
  19463881.788      -54116.286 7    -14013.70324
  20897844.7494    -475187.71046   -359810.79761
  20321763.976   -20369974.562 7 -15559841.08322
 91  4 15 22 59 29.9950000  0  3G 2G19G 6
  19460469.077      -72045.242 7    -27984.29324
  20901034.8744    -458422.78246   -346747.28061
  20313930.069   -20411137.062 6 -15591915.71822
 91  4 15 22 59 44.9950000  0  3G 2G19G 6
  19457068.226      -89915.426 7    -41909.08424
  20904238.1084    -441589.67746   -333630.64661
  20306104.1794  -20452271.57447 -15623968.54162
 91  4 15 22 59 59.9950000  0  3G 2G19G 6
  19453678.671     -107734.042 7    -55793.69624
  20907452.538     -424695.426 6   -320466.35421
  20298280.913   -20493384.803 7 -15656004.78922
 91  4 15 23  0 14.9950000  0  3G 2G19G 6
  19450297.788     -125498.992 7    -69636.48924
  20910679.9524    -407738.03046   -307252.86261
  20290461.585   -20534474.574 7 -15688022.73122
 91  4 15 23  0 29.9950000  0  3G 2G19G 6
  19446928.483     -143206.007 7    -83434.14124
  20913919.4054    -390713.13446   -293986.78061
  20282647.491   -20575536.366 7 -15720018.89022
 91  4 15 23  0 44.9950000  0  3G 2G19G 6
  19443568.507     -160861.032 7    -97191.27324
  20917170.6244    -373626.73646   -280672.77461
  20274839.1324  -20616575.92647 -15751997.72962
 91  4 15 23  0 59.9950000  0  3G 2G19G 6
  19440220.187     -178458.167 7   -110903.29924
  20920433.4604    -356472.59846   -267305.97061
  20267032.648   -20657587.000 7 -15783954.35722
 91  4 15 23  1 14.9950000  0  3G 2G19G 6
  19436882.202     -195998.468 7   -124571.05024
  20923712.9134    -339251.71646   -253887.17661
  20259234.405   -20698570.319 7 -15815889.36522
 91  4 15 23  1 29.9950000  0  4G15G 2G19G 6
  22829145.4604         -0.52455
  19433554.538     -213484.337 7   -138196.37724
  20927006.741     -321966.588 6   -240418.29721
  20251440.819   -20739528.041 7 -15847804.43222
 91  4 15 23  1 44.9950000  0  4G15G 2G19G 6
  22821703.9444     -39112.15345
  19430237.515     -230915.719 7   -151779.24824
  20930301.4374    -304617.02346   -226899.22461
  20243651.882   -20780459.869 7 -15879699.30422
 91  4 15 23  1 59.9950000  0  4G15G 2G19G 6
  22814279.6554     -78144.71745
  19426930.226     -248293.832 7   -165320.61124
  20933619.2264    -287204.17946   -213330.84461
  20235867.491   -20821366.964 7 -15911574.91622
 91  4 15 23  2 14.9950000  0  4G15G 2G19G 6
  22806861.890     -117097.090 5        -0.00931
  19423635.0234    -265618.05547   -178819.98164
  20936943.3664    -269727.25246   -199712.51861
  20228087.148   -20862248.036 6 -15943430.24522
 91  4 15 23  2 29.9950000  0  4G15G 2G19G 6
  22799466.812     -155962.183 5    -30284.37721
  19420349.093     -282881.454 7   -192271.95424
  20940285.5074    -252179.41946   -186038.94861
  20220313.843   -20903096.186 7 -15975259.92522
 91  4 15 23  2 44.9950000  0  4G15G 2G19G 6
  22792089.1244    -194748.49645    -60507.35661
  19417073.202     -300092.920 7   -205683.46724
  20943633.5854    -234569.41446   -172316.93261
  20212546.023   -20943919.915 7 -16007070.57522
 91  4 15 23  2 59.9950000  0  4G15G 2G19G 6
  22784723.9914    -233452.63145    -90666.30161
  19413809.257     -317249.660 8   -219052.33624
  20946999.5854    -216894.47046   -158544.32261
  20204781.726   -20984716.255 7 -16038859.88022
 91  4 15 23  3 14.9950000  0  4G15G 2G19G 6
  22777376.3904    -272072.61045   -120759.66961
  19410554.202     -334350.335 7   -232377.51524
  20950372.5384    -199153.06346   -144719.92461
  20197023.4214  -21025483.44246 -16070626.46862
 91  4 15 23  3 29.9950000  0  4G15G 2G19G 6
  22770040.0464    -310606.98745   -150786.32661
  19407311.265     -351393.510 7   -245657.88624
  20953762.1244    -181343.71046   -130842.56661
  20189273.1324  -21066219.82747 -16102369.04362
 91  4 15 23  3 44.9950000  0  5G15G 2G13G19G 6
  22762721.3824    -349058.94245   -180748.76461
  19404077.741     -368383.023 7   -258896.44824
  22598098.3824     -73703.24744
  20957162.523     -163470.249 6   -116915.26221
  20181525.140   -21106929.061 7 -16134090.47622
 91  4 15 23  3 59.9950000  0  5G15G 2G13G19G 6
  22755424.3274    -387425.65745   -210644.79361
  19400855.679     -385316.121 7   -272091.05124
  22584081.3354    -147379.82244
  20960578.9834    -145529.92046   -102935.85961
  20173784.398   -21147608.132 7 -16165788.40522
 91  4 15 23  4 14.9950000  0  5G15G 2G13G19G 6
  22748136.858     -425708.140 5   -240475.18621
  19397643.976     -402194.260 7   -285242.82924
  22570065.233     -221030.923 4
  20964004.1944    -127524.31646    -88905.57361
  20166049.804   -21188258.357 7 -16197463.85222
 91  4 15 23  4 29.9950000  0  5G15G 2G13G19G 6
  22740869.0934    -463903.41445   -270237.63161
  19394443.108     -419015.479 7   -298350.25124
  22556053.3194    -294653.71144
  20967442.538     -109450.960 6    -74822.50621
  20158320.7414  -21228877.16747 -16229114.81862
 91  4 15 23  4 44.9950000  0  5G15G 2G13G19G 6
  22733615.1164    -502009.75945   -299930.76861
  19391253.944     -435778.105 7   -311412.01724
  22542049.5464    -368246.23044        -0.03971
  20970896.030      -91308.288 6    -60685.44121
  20150595.9604  -21269462.74147 -16260739.87962
 91  4 15 23  4 59.9950000  0  5G15G 2G13G19G 6
  22726381.6794    -540028.26645   -329555.44561
  19388074.851     -452483.694 7   -324429.33924
  22528051.898     -441809.463 4    -57321.76221
  20974359.937      -73097.682 6    -46495.40221
  20142879.218   -21310016.337 7 -16292340.03522
 91  4 15 23  5 14.9950000  0  5G15G 2G13G19G 6
  22719164.5774    -577959.17545   -359111.88461
  19384906.546     -469132.863 8   -337402.69824
  22514057.3194    -515343.78244   -114620.92161
  20977838.8904     -54819.87146    -32253.01261
  20135167.749   -21350538.296 7 -16323915.53822
 91  4 15 23  5 29.9950000  0  5G15G 2G13G19G 6
  22711965.4054    -615803.14045   -388600.55761
  19381748.812     -485726.806 8   -350333.02324
  22500069.483     -588849.825 4   -171898.12921
  20981330.062      -36475.845 6    -17959.04521
  20127464.069   -21391029.624 7 -16355467.17222
 91  4 15 23  5 44.9950000  0  5G15G 2G13G19G 6
  22704775.2804    -653560.12045   -418021.46661
  19378601.491     -502265.770 8   -363220.50924
  22486086.968     -662327.314 4   -229152.98821
  20984834.6084     -18065.85346     -3613.65061
  20119763.765   -21431490.258 7 -16386994.88222
 91  4 15 23  5 59.9950000  0  5G15G 2G13G19G 6
  22697608.7884    -691227.25845   -447372.34961
  19375464.648     -518747.459 7   -376063.36524
  22472113.483     -735773.390 5   -286383.42721
  20988350.257         412.449 6     10784.94621
  20112069.655   -21471917.559 7 -16418496.62522
 91  4 15 23  6 14.9950000  0  5G15G 2G13G19G 6
  22690456.5854    -728808.35645   -476656.17561
  19372338.124     -535175.887 7   -388864.71924
  22458139.608     -809191.878 4   -343592.34421
  20991880.2734      18954.96446     25233.59761
  20104382.960   -21512315.444 7 -16449975.44422
 91  4 15 23  6 29.9950000  0  5G15G 2G13G19G 6
  22683325.515     -766298.033 5   -505868.79421
  19369223.538     -551546.102 7   -401620.71324
  22444176.515     -882577.301 5   -400775.50021
  20995419.007       37566.838 6     39736.28521
  20096701.858   -21552678.526 7 -16481427.14622
 91  4 15 23  6 44.9950000  0  5G15G 2G13G19G 6
  22676207.507     -803701.295 5   -535014.08421
  19366117.710     -567863.466 7   -414335.53124
  22430216.2024    -955934.46845   -457936.63761
  20998973.733       56242.638 6     54288.76921
  20089026.9134  -21593011.98447 -16512855.75562
 91  4 15 23  6 59.9950000  0  5G15G 2G13G19G 6
  22669106.8124    -841014.11445   -564088.87261
  19363023.530     -584124.517 7   -427006.46324
  22416259.4834   -1029259.43045   -515072.69361
  21002538.9374      74986.02446     68893.93761
  20081357.718   -21633312.045 7 -16544258.34922
 91  4 15 23  7 14.9950000  0  5G15G 2G13G19G 6
  22662025.4134    -878239.46545   -593095.52261
  19359940.5384    -600332.49447   -439636.04364
  22402311.726    -1102554.911 4   -572185.79121
  21006119.2654      93793.76846     83549.25661
  20073694.3744  -21673581.54247 -16575637.12262
 91  4 15 23  7 29.9950000  0  5G15G 2G13G19G 6
  22654958.5624    -915373.50145   -622031.01461
  19356865.593     -616483.954 7   -452221.58324
  22388373.7334   -1175817.32145   -629273.12861
  21009712.413      112669.212 6     98257.30921
  20066037.6014  -21713817.02647 -16606989.38762
 91  4 15 23  7 44.9950000  0  5G15G 2G13G19G 6
  22647907.8044    -952418.81845   -650897.36661
  19353802.413     -632581.880 7   -464765.41024
  22374438.0234   -1249048.84045   -686336.34561
  21013317.1014     131609.64246    113016.02361
  20058386.749   -21754020.869 7 -16638317.00322
 91  4 15 23  7 59.9950000  0  5G15G 2G13G19G 6
  22640873.515     -989373.448 5   -679693.03921
  19350749.773     -648624.978 7   -477266.50924
  22360507.2734   -1322247.65445   -743374.07261
  21016933.491      150616.439 6    127826.43721
  20050743.358   -21794191.653 7 -16669618.86222
 91  4 15 23  8 14.9950000  0  5G15G 2G13G19G 6
  22633857.562    -1026234.531 5   -708415.82121
  19347707.921     -664610.551 7   -489722.78524
  22346586.312    -1395410.739 4   -800384.00121
  21020564.351      169692.324 6    142690.67421
  20043106.546   -21834326.407 7 -16700892.63922
 91  4 15 23  8 29.9950000  0  5G15G 2G13G19G 6
  22626862.179    -1063000.784 5   -737064.71821
  19344677.148     -680537.868 7   -502133.67024
  22332673.585    -1468537.174 5   -857365.38321
  21024206.7804     188838.00146    157609.32161
  20035475.6794  -21874424.23347 -16732137.64162
 91  4 15 23  8 44.9950000  0  5G15G 2G13G19G 6
  22619883.648    -1099677.559 5   -765643.88221
  19341656.327     -696412.460 7   -514503.47124
  22318764.2104   -1541632.01645   -914322.12361
  21027861.2104     208047.96946    172578.05961
  20027851.226   -21914490.346 7 -16763357.93122
 91  4 15 23  8 59.9950000  0  5G15G 2G13G19G 6
  22612922.4054   -1136258.96645   -794148.74661
  19338646.733     -712228.768 7   -526827.85224
  22304856.108    -1614689.051 5
  21031529.444      227327.777 6    187601.20321
  20020233.327   -21954518.892 7 -16794548.95322
 91  4 15 23  9 14.9950000  0  5G15G 2G13G19G 6
  22605979.4834   -1172749.62545   -822582.88761
  19335645.718     -727992.419 7   -539111.20124
  22290958.218    -1687713.329 5
  21035212.5544     246671.79446    202674.39961
  20012623.710   -21994515.168 7 -16825714.83522
 91  4 15 23  9 29.9950000  0  5G15G 2G13G19G 6
  22599049.8584   -1209146.68045   -850944.12761
  19332657.577     -743700.634 7   -551351.35624
  22277075.358    -1760701.920 5
  21038907.226      266083.054 6    217799.97921
  20005018.4524  -22034476.08247 -16856853.15162
 91  4 15 23  9 44.9950000  0  5G15G 2G13G19G 6
  22592147.2884   -1245450.94245   -879233.03961
  19329678.468     -759354.508 7   -563549.16524
  22263189.757    -1833655.198 5        -0.06531
  21042612.890      285560.583 6    232977.20021
  19997420.671   -22074402.493 7 -16887964.59022
 91  4 15 23  9 59.9950000  0  5G15G 2G13G19G 6
  22585252.991    -1281659.472 5   -907447.36221
  19326710.702     -774951.450 7   -575702.60924
  22249314.382    -1906570.339 5    -56816.78121
  21046332.1714     305106.94146    248208.06361
  19989829.710   -22114291.547 7 -16919046.91522
 91  4 15 23 10 14.9950000  0  5G15G 2G13G19G 6
  22578379.140    -1317774.350 5   -935588.73121
  19323753.194     -790493.906 7   -587813.60124
  22235444.3664   -1979449.13245   -113605.22261
  21050065.132      324719.610 6    263490.57821
  19982246.374   -22154145.498 7 -16950101.88822
 91  4 15 23 10 29.9950000  0  5G15G 2G13G19G 6
  22571528.546    -1353795.200 5   -963656.78721
  19320805.741     -805982.108 7   -599882.31324
  22221583.2494   -2052291.28045   -170365.04861
  21053808.1874     344398.47746    278824.68661
  19974668.421   -22193964.193 7 -16981129.39522
 91  4 15 23 10 44.9950000  0  5G15G 2G13G19G 6
  22564687.8514   -1389719.51745   -991649.65261
  19317869.023     -821413.729 7   -611906.93824
  22207730.944    -2125094.187 5   -227094.32321
  21057567.3904     364145.55846    294211.96561
  19967099.702   -22233745.029 7 -17012127.38722
 91  4 15 23 10 59.9950000  0  5G15G 2G13G19G 6
  22557873.4444   -1425543.84345  -1019564.58861
  19314942.999     -836785.814 7   -623885.17124
  22193881.2654   -2197854.40645   -283790.35261
  21061337.6714     383964.19646    309654.99461
  19959537.483   -22273484.716 7 -17043093.32822
 91  4 15 23 11 14.9950000  0  5G15G 2G13G19G 6
  22551073.1164   -1461273.23545  -1047405.54961
  19312028.648     -852103.866 7   -635821.30124
  22180043.3194   -2270576.87445   -340456.92361
  21065122.3354     403849.06046    325149.62061
  19951982.741   -22313188.557 7 -17074031.32922
 91  4 15 23 11 29.9950000  0  5G15G 2G13G19G 6
  22544292.0934   -1496906.02245  -1075171.23761
  19309124.9604    -867366.65247   -647714.37064
  22166210.6164   -2343259.91545   -397092.83761
  21068918.9134     423801.41046    340696.84561
  19944432.476   -22352854.837 7 -17104940.07422
 91  4 15 23 11 44.9950000  0  5G15G 2G13G19G 6
  22537528.7264   -1532440.40145  -1102860.23361
  19306230.515     -882572.654 7   -659563.18824
  22152390.1484   -2415901.53445   -453696.40661
  21072727.2574     443822.74146    356297.81661
  19936892.390   -22392481.957 7 -17135818.30122
 91  4 15 23 11 59.9950000  0  5G15G 2G13G19G 6
  22530786.054    -1567877.794 5  -1130473.68721
  19303347.749     -897723.503 7   -671369.02824
  22138573.093    -2488503.068 5   -510268.75321
  21076553.030      463911.359 6    371951.21221
  19929357.476   -22432071.159 7 -17166666.97922
 91  4 15 23 12 14.9950000  0  5G15G 2G13G19G 6
  22524061.069    -1603215.451 5  -1158009.39821
  19300476.312     -912817.021 7   -683130.19424
  22124765.1484   -2561061.97044   -566807.95261
  21080388.6554     484069.48846    387658.76961
  19921833.710   -22471620.014 7 -17197484.22522
 91  4 15 23 12 29.9950000  0  5G15G 2G13G19G 6
  22517355.5304   -1638455.18645  -1185468.84561
  19297613.773     -927855.520 7   -694848.49324
  22110969.4834   -2633580.20745   -623315.39961
  21084235.0304     504294.82546    403418.69561
  19914314.124   -22511130.707 7 -17228271.72622
 91  4 15 23 12 44.9950000  0  5G15G 2G13G19G 6
  22510671.452    -1673596.652 5  -1212851.70021
  19294763.538     -942839.051 7   -706523.95924
  22097172.7334   -2706057.09145   -679790.63861
  21088096.874      524587.494 6    419231.09421
  19906802.413   -22550602.793 7 -17259029.14822
 91  4 15 23 12 59.9950000  0  5G15G 2G13G19G 6
  22504002.546    -1708641.231 6  -1240159.07921
  19291920.929     -957769.099 7   -718157.74224
  22083389.0624   -2778493.58245   -736234.38161
  21091970.671      544945.968 6    435094.76621
  19899298.569   -22590037.495 7 -17289757.44522
 91  4 15 23 13 14.9950000  0  5G15G 2G13G19G 6
  22497353.0854   -1743589.94446  -1267391.73361
  19289089.843     -972647.346 7   -729751.16924
  22069611.726    -2850891.074 5   -792647.77621
  21095858.8124     565368.48346    451008.34561
  19891800.827   -22629436.225 7 -17320457.70422
 91  4 15 23 13 29.9950000  0  5G15G 2G13G19G 6
  22490721.038    -1778440.728 5  -1294548.10821
  19286269.835     -987472.172 7   -741302.96624
  22055843.5154   -2923247.24645   -849028.96461
  21099757.663      585856.924 6    466973.28421
  19884311.476   -22668797.086 7 -17351128.45723
 91  4 15 23 13 44.9950000  0  5G15G 2G13G19G 6
  22484104.460    -1813188.321 5  -1321624.04121
  19283458.976    -1002238.538 7   -752809.21124
  22042083.882    -2995556.746 5   -905373.78021
  21103669.8124     606416.34046    482993.53461
  19876829.132   -22708114.753 7 -17381765.54522
 91  4 15 23 13 59.9950000  0  5G15G 2G13G19G 6
  22477513.3824   -1847832.30945  -1348619.26361
  19280659.991    -1016946.321 7   -764269.81024
  22028332.2264   -3067819.13345   -961681.85861
  21107598.523      627046.877 6    499069.20721
  19869355.944   -22747388.982 7 -17412368.80222
 91  4 15 23 14 14.9950000  0  5G15G 2G13G19G 6
  22470937.0624   -1882377.82945  -1375537.76661
  19277872.038    -1031601.171 7   -775689.15824
  22014590.1714   -3140039.27145  -1017957.08261
  21111534.038      647743.076 6    515196.03121
  19861888.9294  -22786624.80647 -17442942.13362
 91  4 15 23 14 29.9950000  0  5G15G 2G13G19G 6
  22464386.187    -1916822.765 5  -1402377.87021
  19275092.476    -1046201.434 7   -787065.96924
  22000855.960    -3212215.016 5  -1074197.65621
  21115485.9684     668506.46446    531375.23861
  19854429.882   -22825820.413 7 -17473484.12423
 91  4 15 23 14 44.9950000  0  5G15G 2G13G19G 6
  22457851.6554   -1951169.98145  -1429141.84461
  19272325.335    -1060750.359 7   -798402.77524
  21987126.257    -3284349.390 5  -1130405.99421
  21119447.0854     689333.82846    547604.29061
  19846979.2494  -22864978.73347 -17503997.06063
 91  4 15 23 14 59.9950000  0  5G15G 2G13G19G 6
  22451335.148    -1985416.432 5  -1455827.31521
  19269565.796    -1075245.007 7   -809697.29024
  21973408.6404   -3356439.06745  -1186579.49961
  21123425.952      710228.040 6    563885.39721
  19839534.5544  -22904096.59847 -17534478.47162
 91  4 15 23 15 14.9950000  0  5G15G 2G13G19G 6
  22444834.3744   -2019559.14945  -1482431.92961
  19266819.116    -1089682.874 7   -820947.55424
  21959700.0854   -3428481.17445  -1242715.97161
  21127414.2104     731191.63646    580220.60461
  19832099.0774  -22943171.25847 -17564926.22262
 91  4 15 23 15 29.9950000  0  5G15G 2G13G19G 6
  22438355.1874   -2053601.72645  -1508958.51961
  19264081.780    -1104067.949 7   -832156.68424
  21945997.4914   -3500479.14945  -1298818.04761
  21131417.2734     752220.72845    596606.84361
  19824670.2414  -22982206.30247 -17595343.10263
 91  4 15 23 15 44.9950000  0  5G15G 2G13G19G 6
  22431899.1874   -2087540.80045  -1535404.46961
  19261355.132    -1118397.024 7   -843322.18024
  21932304.9834   -3572429.36645  -1354882.90261
  21135430.2104     773318.34446    613046.45461
  19817251.1014  -23021198.46347 -17625726.56963
 91  4 15 23 15 59.9950000  0  5G15G 2G13G19G 6
  22425459.0154   -2121379.79845  -1561772.42661
  19258637.874    -1132674.431 7   -854447.41224
  21918622.835    -3644335.657 5  -1410913.50721
  21139458.6084     794480.31846    629536.20561
  19809838.257   -23060151.543 7 -17656079.57823
 91  4 15 23 16 14.9950000  0  5G15G 2G13G19G 6
  22419035.351    -2155113.441 5  -1588058.30221
  19255931.913    -1146895.157 7   -865528.48024
  21904947.749    -3716192.458 5  -1466905.59021
  21143497.7654     815711.74146    646080.10861
  19802434.0074  -23099060.22847 -17686397.99763
 91  4 15 23 16 29.9950000  0  5G15G 2G13G19G 6
  22412639.7494   -2188747.74445  -1614266.75461
  19253235.085    -1161065.422 7   -876570.22524
  21891279.3904   -3788005.63445  -1522863.64061
  21147550.2884     837006.52145    662673.37661
  19795036.6634  -23137930.53447 -17716686.51063
 91  4 15 23 16 44.9950000  0  5G15G 2G13G19G 6
  22406255.116    -2222279.046 5  -1640394.97121
  19250548.757    -1175182.009 7   -887570.14224
  21877622.968    -3859771.241 5  -1578784.61421
  21151617.874      858367.995 6    679318.59621
  19787648.2264  -23176758.81247 -17746942.27263
 91  4 15 23 16 59.9940000  0  5G15G 2G13G19G 6
  22399895.650    -2255703.798 5  -1666440.15621
  19247874.065    -1189242.801 7   -898526.58224
  21863980.7214   -3931483.15445  -1634663.79461
  21155695.369      879795.567 6    696015.33821
  19780269.6584  -23215541.21447 -17777162.28763
 91  4 15 23 17 14.9940000  0  5G15G 2G13G19G 6
  22393553.1664   -2289023.38545  -1692403.40061
  19245208.213    -1203247.020 7   -909438.94224
  21850341.1114   -4003147.93145  -1690506.22661
  21159783.1194     901294.83945    712767.92561
  19772897.1354  -23254280.08047 -17807348.37963
 91  4 15 23 17 29.9940000  0  5G15G 2G13G19G 6
  22387238.143    -2322239.173 5  -1718285.74921
  19242553.635    -1217197.719 7   -920309.60024
  21836714.9404   -4074764.26245  -1746310.88061
  21163888.8464     922860.31646    729572.11961
  19765532.9634  -23292976.43647 -17837501.34563
 91  4 15 23 17 44.9940000  0  5G15G 2G13G19G 6
  22380934.3544   -2355355.34745  -1744090.50261
  19239907.682    -1231099.582 7   -931142.20524
  21823094.9244   -4146336.23845  -1802081.01161
  21168005.1274     944487.73746    746424.60061
  19758177.6044  -23331634.46947 -17867624.44663
 91  4 15 23 17 59.9940000  0  5G15G 2G13G19G 6
  22374653.4554   -2388364.02945  -1769811.47861
  19237274.283    -1244945.102 7   -941930.90924
  21809485.010    -4217855.843 5  -1857810.30321
  21172129.846      966184.465 5    763331.04421
  19750828.1194  -23370246.39747 -17897711.63163
 91  4 15 23 18 14.9940000  0  5G15G 2G13G19G 6
  22368391.0494   -2421263.75445  -1795447.53361
  19234651.205    -1258733.066 7   -952674.76124
  21795882.635    -4289321.582 5  -1913497.60921
  21176274.002      987951.728 6    780292.46221
  19743489.9794  -23408810.73347 -17927761.72063
 91  4 15 23 18 29.9940000  0  5G15G 2G13G19G 6
  22362150.0184   -2454056.67845  -1821000.38761
  19232036.4794   -1272466.16047   -963375.86364
  21782293.346    -4360735.661 5  -1969144.72521
  21180431.760     1009786.810 6    797306.76721
  19736160.697   -23447329.943 7 -17957776.64623
 91  4 15 23 18 44.9940000  0  5G15G 2G13G19G 6
  22355928.119    -2486747.437 5  -1846473.61221
  19229432.604    -1286149.325 7   -974038.05624
  21768713.7364   -4432102.47145  -2024754.96061
  21184597.947     1031684.825 5    814370.08121
  19728836.8694  -23485808.61847 -17987759.99163
 91  4 15 23 18 59.9940000  0  5G15G 2G13G19G 6
  22349727.3384   -2519334.41545  -1871866.00461
  19226838.572    -1299781.166 7   -984660.25624
  21755139.0254   -4503420.45945  -2080327.14861
  21188775.2444    1053646.99246    831483.36561
  19721523.7214  -23524245.28047 -18017710.59863
 91  4 15 23 19 14.9940000  0  5G15G 2G13G19G 6
  22343547.8934   -2551813.26145  -1897174.12661
  19224254.7054   -1313357.76947   -995239.41364
  21741579.6114   -4574684.99845  -2135857.68561
  21192968.096     1075677.337 6    848649.79021
  19714217.8224  -23562635.56847 -18047625.06963
 91  4 15 23 19 29.9940000  0  5G15G 2G13G19G 6
  22337389.010    -2584185.808 5  -1922399.41421
  19221681.916    -1326881.259 7  -1005777.19024
  21728027.377    -4645897.616 5  -2191347.79321
  21197170.1584    1097773.91445    865867.83361
  19706920.729   -23600981.176 7 -18077504.71923
 91  4 15 23 19 44.9940000  0  5G15G 2G13G19G 6
  22331250.486    -2616450.964 5  -1947541.03021
  19219117.971    -1340351.249 7  -1016273.26924
  21714488.4864   -4717057.72645  -2246796.96861
  21201389.6744    1119937.32845    883137.94461
  19699632.994   -23639281.423 7 -18107349.02923
 91  4 15 23 19 59.9940000  0  5G15G 2G13G19G 6
  22325127.8694   -2648603.95645  -1972595.23461
  19216566.127    -1353762.889 7  -1026723.88724
  21700959.885    -4788160.050 5  -2302201.11421
  21205622.533     1142172.215 6    900463.74921
  19692354.260   -23677531.342 7 -18137154.11623
 91  4 15 23 20 14.9940000  0  5G15G 2G13G19G 6
  22319029.408    -2680652.079 5  -1997567.71621
  19214023.182    -1367123.988 7  -1037135.11624
  21687438.0024   -4859211.74245  -2357565.81461
  21209864.572     1164470.782 5    917839.18421
  19685083.471   -23715738.288 7 -18166925.71723
 91  4 15 23 20 29.9940000  0  5G15G 2G13G19G 6
  22312948.705    -2712596.135 5  -2022459.10121
  19211490.705    -1380435.701 7  -1047507.86524
  21673924.861    -4930213.510 5  -2412891.59321
  21214120.541     1186831.903 5    935263.35521
  19677820.463   -23753903.205 7 -18196664.57123
 91  4 15 23 20 44.9940000  0  5G15G 2G13G19G 6
  22306892.6584   -2744432.60845  -2047266.65361
  19208967.518    -1393695.058 7  -1057839.81824
  21660423.0184   -5001162.11245  -2468175.97661
  21218388.830     1209258.683 5    952738.68521
  19670567.330   -23792022.754 7 -18226368.07023
 91  4 15 23 20 59.9940000  0  5G15G 2G13G19G 6
  22300857.369    -2776162.448 5  -2071991.14121
  19206454.5494   -1406903.18047  -1068131.84964
  21646931.9164   -5072058.31845  -2523419.51061
  21222666.713     1231749.847 5    970264.18921
  19663321.572   -23830097.858 7 -18256036.94123
 91  4 15 23 21 14.9940000  0  5G15G 2G13G19G 6
  22294840.7604   -2807782.53845  -2096630.10461
  19203950.846    -1420057.294 7  -1078381.79724
  21633453.119    -5142898.831 5  -2578619.65721
  21226961.7364    1254308.30645    987842.11261
  19656085.729   -23868125.318 7 -18285668.68223
 91  4 15 23 21 29.9940000  0  5G15G 2G13G19G 6
  22288837.752    -2839293.131 5  -2121183.73421
  19201458.361    -1433158.033 7  -1088590.14924
  21619981.4404   -5213683.81545  -2633776.53061
  21231265.4324    1276933.22145   1005471.85161
  19648858.479   -23906105.559 7 -18315263.63523
 91  4 15 23 21 44.9940000  0  5G15G 2G13G19G 6
  22282864.869    -2870689.180 5  -2145648.12521
  19198975.877    -1446200.616 7  -1098753.19024
  21606524.0254   -5284408.01145  -2688886.02761
  21235585.111     1299629.446 5   1023157.14321
  19641640.346   -23944033.524 7 -18344817.85123
 91  4 15 23 21 59.9940000  0  5G15G 2G13G19G 6
  22276912.877    -2901974.997 5  -2170026.59421
  19196503.322    -1459189.626 7  -1108874.48224
  21593074.385    -5355075.641 5  -2743951.45521
  21239914.7054    1322392.49245   1040894.48961
  19634430.6044  -23981913.49147 -18374334.67463
 91  4 15 23 22 14.9940000  0  5G15G 2G13G19G 6
  22270980.6044   -2933154.70445  -2194322.40261
  19194041.768    -1472129.686 7  -1118957.63124
  21579635.3224   -5425690.62345  -2798975.87661
  21244260.791     1345217.803 5   1058680.37221
  19627232.627   -24019749.673 7 -18403817.37323
 91  4 15 23 22 29.9940000  0  5G15G 2G13G19G 6
  22265067.6044   -2964224.58945  -2218532.62961
  19191588.877    -1485017.206 7  -1128999.84424
  21566210.010    -5496249.163 5  -2853956.27721
  21248617.963     1368108.832 5   1076517.46521
  19620040.2054  -24057538.42747 -18433263.11663
 91  4 15 23 22 44.9940000  0  5G15G 2G13G19G 6
  22259180.346    -2995184.626 5  -2242657.26921
  19189147.1434   -1497852.95747  -1139001.71464
  21552793.908    -5566751.550 5  -2908892.96321
  21252983.518     1391064.948 5   1094405.26121
  19612859.135   -24095280.011 7 -18462672.10023
 91  4 15 23 22 59.9940000  0  5G15G 2G13G19G 6
  22253304.4084   -3026033.10145  -2266694.96461
  19186713.877    -1510635.536 7  -1148962.15724
  21539385.7294   -5637195.81645  -2963784.32561
  21257365.174     1414087.550 5   1112344.86221
  19605687.0494  -24132972.71847 -18492043.00063
 91  4 15 23 23 14.9940000  0  5G15G 2G13G19G 6
  22247457.9944   -3056771.47945  -2290646.88061
  19184291.494    -1523366.525 7  -1158882.39324
  21525993.565    -5707583.172 5  -3018631.35021
  21261759.986     1437175.204 5   1130335.16521
  19598521.8694  -24170617.88747 -18521376.85663
 91  4 15 23 23 29.9940000  0  5G15G 2G13G19G 6
  22241626.9084   -3087399.73945  -2314513.00561
  19181879.299    -1536046.133 7  -1168762.59224
  21512612.0654   -5777913.35445  -3073433.86261
  21266168.861     1460327.514 5   1148375.84921
  19591367.5104  -24208215.38647 -18550673.57063
 91  4 15 23 23 44.9940000  0  5G15G 2G13G19G 6
  22235818.463    -3117918.309 5  -2338293.61421
  19179475.6584   -1548674.92447  -1178603.20364
  21499239.119    -5848186.673 5  -3128192.04121
  21270585.2294    1483543.83745   1166466.39661
  19584223.4474  -24245765.61147 -18579933.44163
 91  4 15 23 23 59.9940000  0  5G15G 2G13G19G 6
  22230034.971    -3148325.973 5  -2361987.81121
  19177081.4084   -1561252.61047  -1188403.98164
  21485878.1584   -5918402.34445  -3182905.30361
  21275013.682     1506824.556 5   1184607.14221
  19577085.7364  -24283267.79347 -18609155.88463
 91  4 15 23 24 14.9940000  0  5G15G 2G13G19G 6
  22224269.3074   -3178619.76945  -2385593.28061
  19174699.643    -1573776.294 7  -1198162.68524
  21472528.127    -5988556.909 5  -3237570.95121
  21279459.408     1530172.560 5   1202800.30621
  19569959.580   -24320718.802 7 -18638338.44523
 91  4 15 23 24 29.9940000  0  5G15G 2G13G19G 6
  22218530.729    -3208803.418 5  -2409112.95921
  19172325.283    -1586249.747 7  -1207882.24624
  21459187.9164   -6058653.67245  -3292191.57961
  21283912.2444    1553584.18645   1221043.04761
  19562843.0334  -24358122.06847 -18667483.80863
 91  4 15 23 24 44.9940000  0  5G15G 2G13G19G 6
  22212800.979    -3238877.291 5  -2432547.05321
  19169959.9864   -1598673.97947  -1217563.45464
  21445858.752    -6128693.465 5  -3346767.79321
  21288381.111     1577058.311 5   1239334.49521
  19555734.7294  -24395478.37247 -18696592.57963
 91  4 15 23 24 59.9940000  0  5G15G 2G13G19G 6
  22207101.0574   -3268839.21045  -2455893.93861
  19167605.182    -1611047.210 7  -1227204.92124
  21432541.971    -6198673.746 5  -3401297.61521
  21292859.8304    1600596.80445   1257676.08561
  19548632.9004  -24432785.55547 -18725663.07163
 91  4 15 23 25 14.9940000  0  5G15G 2G13G19G 6
  22201422.5024   -3298686.47845  -2479151.48361
  19165262.791    -1623367.064 7  -1236804.79524
  21419237.4634   -6268591.70645  -3455778.90961
  21297352.127     1624201.921 5   1276069.59421
  19541544.643   -24470040.907 7 -18754693.17623
 91  4 15 23 25 29.9940000  0  5G15G 2G13G19G 6
  22195761.775    -3328419.357 5  -2502319.88321
  19162927.5654   -1635633.90947  -1246363.36464
  21405944.0334   -6338447.69645  -3510211.88061
  21301855.5494    1647873.26645   1294514.72261
  19534463.7054  -24507244.73847 -18783683.13263
 91  4 15 23 25 44.9940000  0  5G15G 2G13G19G 6
  22190129.6664   -3358040.63146  -2525401.32661
  19160602.291    -1647850.894 7  -1255883.08024
  21392662.4634   -6408244.18645  -3564598.52761
  21306371.7294    1671607.61745   1313008.93361
  19527393.5964  -24544399.82047 -18812635.10863
 91  4 15 23 25 59.9940000  0  5G15G 2G13G19G 6
  22184513.377    -3387547.603 5  -2548393.67821
  19158286.502    -1660015.916 7  -1265362.30424
  21379391.361    -6477978.388 5  -3618936.61621
  21310900.0494    1695407.52245   1331554.22161
  19520333.4864  -24581503.52647 -18841547.04563
 91  4 15 23 26 14.9940000  0  5G15G 2G13G19G 6
  22178914.2524   -3416942.51045  -2571298.71261
  19155982.893    -1672131.497 7  -1274803.00624
  21366132.8304   -6547652.63546  -3673228.02061
  21315440.7294    1719270.10045   1350148.34161
  19513282.1904  -24618558.17547 -18870420.76163
 91  4 15 23 26 29.9940000  0  5G15G 2G13G19G 6
  22173344.1974   -3446225.45645  -2594116.50061
  19153685.0574   -1684198.08647  -1284205.53364
  21352884.650    -6617266.903 5  -3727472.67321
  21319996.0494    1743194.91745   1368790.99661
  19506239.7524  -24655563.94147 -18899256.38763
 91  4 15 23 26 44.9940000  0  5G15G 2G13G19G 6
  22167793.8934   -3475395.81945  -2616846.58261
  19151399.197    -1696215.369 7  -1293569.63724
  21339647.588    -6686820.525 5  -3781670.07221
  21324558.5184    1767182.33845   1387482.39561
  19499207.7914  -24692520.28047 -18928053.49963
 91  4 15 23 26 59.9940000  0  5G15G 2G13G19G 6
  22162265.025    -3504447.401 5  -2639484.10421
  19149122.4474   -1708177.24747  -1302890.57064
  21326426.4714   -6756306.95245  -3835815.11561
  21329138.940     1791238.464 5   1406227.31021
  19492186.3304  -24729420.67847 -18956807.02263
 91  4 15 23 27 14.9940000  0  5G15G 2G13G19G 6
  22156760.4084   -3533380.33545  -2662029.18961
  19146855.877    -1720084.110 7  -1312168.63324
  21313216.002    -6825726.013 5  -3889907.66321
  21333729.025     1815362.865 5   1425025.46521
  19485174.1584  -24766265.26647 -18985517.05363
 91  4 15 23 27 29.9940000  0  5G15G 2G13G19G 6
  22151277.190    -3562196.933 5  -2684483.61321
  19144601.315    -1731938.525 7  -1321405.82724
  21300018.682    -6895079.802 5  -3943949.34321
  21338331.0024    1839552.83545   1443874.70961
  19478172.7524  -24803056.45247 -19014185.48063
 91  4 15 23 27 44.9940000  0  5G15G 2G13G19G 6
  22145811.150    -3590898.274 5  -2706848.20621
  19142354.8934   -1743742.15447  -1330603.45164
  21286829.690    -6964369.470 5  -3997941.05421
  21342946.158     1863807.077 5   1462774.03521
  19471182.0334  -24839795.33547 -19042813.14363
 91  4 15 23 27 59.9940000  0  5G15G 2G13G19G 6
  22140376.041    -3619481.119 5  -2729120.45121
  19140119.2524   -1755491.89947  -1339759.08664
  21273658.2914   -7033591.62745  -4051880.17061
  21347578.736     1888128.354 5   1481725.59121
  19464202.9714  -24876478.67547 -19071397.53263
 91  4 15 23 28 14.9940000  0  5G15G 2G13G19G 6
  22134957.4404   -3647944.85445  -2751299.91061
  19137893.2364   -1767187.51347  -1348872.54364
  21260500.7684   -7102745.49246  -4105766.09661
  21352216.7754    1912516.99145   1500729.61961
  19457231.5184  -24913105.75647 -19099938.08163
 91  4 15 23 28 29.9940000  0  5G15G 2G13G19G 6
  22129563.643    -3676288.252 5  -2773385.61021
  19135677.9714   -1778828.34447  -1357943.31164
  21247355.369    -7171830.009 6  -4159597.95321
  21356868.057     1936973.802 5   1519786.77421
  19450272.7214  -24949675.65947 -19128434.07563
 91  4 15 23 28 44.9940000  0  5G15G 2G13G19G 6
  22124188.822    -3704518.171 5  -2795382.85621
  19133472.2914   -1790421.41747  -1366976.86064
  21234220.799    -7240851.748 6  -4213380.92021
  21361535.096     1961491.598 5   1538891.46821
  19443322.0334  -24986195.12047 -19156890.76763
 91  4 15 23 28 59.9940000  0  5G15G 2G13G19G 6
  22118843.346    -3732625.268 5  -2817284.41821
  19131276.1354   -1801957.52947  -1375966.03064
  21221098.080    -7309801.349 6  -4267107.66521
  21366216.611     1986079.622 5   1558050.89121
  19436383.7444  -25022654.74447 -19185300.82463
 91  4 15 23 29 14.9940000  0  5G15G 2G13G19G 6
  22113521.463    -3760613.886 5  -2839093.65421
  19129091.7994   -1813441.54847  -1384914.61264
  21207988.5024   -7378683.11246  -4320781.55861
  21370902.3384    2010733.10445   1577261.27161
  19429457.6194  -25059058.97647 -19213667.72163
 91  4 15 23 29 29.9940000  0  5G15G 2G13G19G 6
  22108212.8854   -3788486.49445  -2860812.47161
  19126915.7294   -1824876.33547  -1393824.82664
  21194893.9004   -7447499.11145  -4374404.19961
  21375609.572     2035449.239 5   1596520.49321
  19422538.8154  -25095410.23047 -19241993.34463
 91  4 15 23 29 44.9940000  0  5G15G 2G13G19G 6
  22102934.268    -3816240.419 5  -2882438.82121
  19124748.6114   -1836259.33147  -1402694.68364
  21181814.2684   -7516246.73246  -4427973.54961
  21380329.5184    2060230.40745   1615830.43361
  19415632.7214  -25131705.94247 -19270275.68363
 91  4 15 23 29 59.9940000  0  5G15G 2G13G19G 6
  22097672.815    -3843873.852 5  -2903971.29421
  19122593.5414   -1847589.02947  -1411523.01164
  21168741.486    -7584924.089 5  -4481488.17421
  21385052.8694    2085078.05145   1635192.15361
  19408737.4474  -25167944.22647 -19298513.27163
 91  4 15 23 30 14.9940000  0  5G15G 2G13G19G 6
  22092436.7604   -3871390.40345  -2925412.67061
  19120446.9164   -1858869.26147  -1420312.79364
  21155687.354    -7653534.756 6  -4534950.81921
  21389793.565     2109988.181 5   1654602.49721
  19401851.6904  -25204128.60247 -19326708.86163
 91  4 15 23 30 29.9940000  0  5G15G 2G13G19G 6
  22087222.502    -3898789.090 5  -2946762.21021
  19118310.2834   -1870099.41647  -1429063.55764
  21142642.674    -7722077.448 6  -4588360.49521
  21394545.244     2134961.486 5   1674062.12221
  19394976.1974  -25240258.17647 -19354861.74263
 91  4 15 23 30 44.9940000  0  5G15G 2G13G19G 6
  22082035.104    -3926065.811 5  -2968016.69721
  19116182.6904   -1881275.55047  -1437772.21964
  21129613.8854   -7790547.76446  -4641713.77561
  21399308.3614    2160001.72945   1693573.94761
  19388111.3544  -25276328.73047 -19382968.63363
 91  4 15 23 30 59.9940000  0  5G15G 2G13G19G 6
  22076867.354    -3953217.503 5  -2989173.77121
  19114067.1974   -1892394.97747  -1446436.70264
  21116601.6504   -7858942.41746  -4695008.11761
  21404090.088     2185111.719 5   1713140.06221
  19381259.3074  -25312337.21147 -19411027.16063
 91  4 15 23 31 14.9940000  0  5G15G 2G13G19G 6
  22071721.275    -3980252.883 5  -3010240.23421
  19111959.4944   -1903466.66047  -1455063.97964
  21103596.166    -7927270.222 6  -4748250.34021
  21408880.6274    2210282.58745   1732753.62361
  19374418.2054  -25348292.23347 -19439044.02563
 91  4 15 23 31 29.9940000  0  5G15G 2G13G19G 6
  22066597.986    -4007167.598 5  -3031212.65321
  19109863.2994   -1914486.69747  -1463651.01264
  21090607.0964   -7995526.68246  -4801437.01261
  21413681.7604    2235518.39045   1752417.79161
  19367586.9714  -25384189.53547 -19467015.91463
 91  4 15 23 31 44.9940000  0  5G15G 2G13G19G 6
  22061501.0804   -4033959.03645  -3052089.02461
  19107776.2214   -1925452.89647  -1472196.09464
  21077631.760    -8063709.260 6  -4854566.06321
  21418494.6744    2260821.10645   1772134.08761
  19360767.6504  -25420026.67247 -19494940.92463
 91  4 15 23 31 59.9940000  0  5G15G 2G13G19G 6
  22056427.377    -4060625.623 5  -3072868.10521
  19105700.080    -1936363.720 7  -1480698.02524
  21064670.3694   -8131815.99146  -4907636.02961
  21423327.330     2286192.086 5   1791903.59921
  19353959.6504  -25455801.88747 -19522817.68563
 91  4 15 23 32 14.9940000  0  5G15G 2G13G19G 6
  22051375.4474   -4087172.43145  -3093553.86461
  19103632.9554   -1947224.83947  -1489161.22664
  21051724.5254   -8199852.34146  -4960651.15861
  21428167.3774    2311625.88345   1811722.05361
  19347163.4474  -25491520.47047 -19550650.30763
 91  4 15 23 32 29.9940000  0  5G15G 2G13G19G 6
  22046348.400    -4113600.221 6  -3114146.86221
  19101575.1504   -1958037.43247  -1497586.61964
  21038790.947    -8267818.571 6  -5013611.64221
  21433015.6194    2337121.45045   1831588.60761
  19340376.2604  -25527183.13547 -19578439.36263
 91  4 15 23 32 44.9940000  0  5G15G 2G13G19G 6
  22041338.596    -4139906.826 5  -3134645.43921
  19099527.8934   -1968799.22647  -1505972.42164
  21025872.119    -8335712.307 6  -5066515.65321
  21437879.2994    2362680.57545   1851504.70061
  19333599.8074  -25562787.48947 -19606182.98363
 91  4 15 23 32 59.9940000  0  5G15G 2G13G19G 6
  22036357.3304   -4166092.02245  -3155049.43561
  19097489.229    -1979510.258 7  -1514318.66624
  21012966.0804   -8403533.04446  -5119362.76161
  21442755.6274    2388303.30445   1871470.41061
  19326837.2834  -25598333.28847 -19633880.97463
 91  4 15 23 33 14.9940000  0  5G15G 2G13G19G 6
  22031397.447    -4192158.629 5  -3175360.99221
  19095460.6434   -1990173.42647  -1522627.62064
  21000073.619    -8471283.540 6  -5172155.16221
  21447641.9404    2413986.69745   1891483.33361
  19320083.3224  -25633823.26447 -19661535.46363
 91  4 15 23 33 29.9940000  0  5G15G 2G13G19G 6
  22026459.400    -4218097.911 5  -3195573.34621
  19093441.8774   -2000780.57247  -1530892.92164
  20987195.5964   -8538955.00846  -5224885.97861
  21452542.7294    2439739.14445   1911550.04161
  19313340.9404  -25669248.69547 -19689139.65963
 91  4 15 23 33 44.9940000  0  5G15G 2G13G19G 6
  22021549.3074   -4243915.89945  -3215691.16761
  19091433.2134   -2011337.94447  -1539119.43764
  20974333.6434   -8606553.29546  -5277559.74661
  21457456.807     2465554.345 5   1931665.68821
  19306611.8544  -25704615.58147 -19716698.23863
 91  4 15 23 33 59.9940000  0  5G15G 2G13G19G 6
  22016659.6664   -4269610.97945  -3235713.24861
  19089433.7834   -2021844.26047  -1547306.16864
  20961480.7604   -8674076.64046  -5330175.13861
  21462378.150     2491433.447 5   1951831.15321
  19299893.6904  -25739922.38247 -19744209.99663
 91  4 15 23 34 14.9940000  0  5G15G 2G13G19G 6
  22011788.979    -4295183.537 5  -3255639.84921
  19087442.8464   -2032300.30847  -1555453.72864
  20948647.6434   -8741525.23046  -5382732.26961
  21467315.1114    2517375.66845   1972045.76361
  19293185.3934  -25775169.42247 -19771675.18863
 91  4 15 23 34 29.9940000  0  5G15G 2G13G19G 6
  22006948.697    -4320632.796 6  -3275470.37321
  19085463.9324   -2042705.75547  -1563561.85764
  20935823.846    -8808898.657 6  -5435230.83821
  21472266.971     2543381.153 5   1992309.65521
  19286489.5574  -25810356.20247 -19799093.42363
 91  4 15 23 34 44.9940000  0  5G15G 2G13G19G 6
  22002131.9714   -4345954.30645  -3295201.35261
  19083493.9324   -2053056.09747  -1571627.04764
  20923019.4004   -8876192.02346  -5487667.01561
  21477231.065     2569454.506 5   2012626.46821
  19279805.4944  -25845477.92547 -19826460.96263
 91  4 15 23 34 59.9940000  0  5G15G 2G13G19G 6
  21997332.736    -4371153.432 5  -3314836.97521
  19081534.799    -2063356.859 7  -1579653.60224
  20910230.6044   -8943410.41646  -5540044.77261
  21482202.221     2595590.296 5   2032991.95121
  19273133.9164  -25880539.72447 -19853781.80763
 91  4 15 23 35 14.9940000  0  5G15G 2G13G19G 6
  21992567.815    -4396228.198 6  -3334375.67421
  19079583.432    -2073606.575 7  -1587640.38124
  20897454.6904   -9010551.75346  -5592362.50461
  21487188.697     2621789.991 5   2053407.19321
  19266474.9554  -25915539.82547 -19881054.57263
 91  4 15 23 35 29.9940000  0  5G15G 2G13G19G 6
  21987816.3774   -4421180.23445  -3353818.75661
  19077642.7294   -2083806.99147  -1595588.74464
  20884691.5884   -9077617.26746  -5644621.14261
  21492185.135     2648051.822 5   2073870.84921
  19259824.9794  -25950479.58847 -19908280.32563
 91  4 15 23 35 44.9940000  0  5G15G 2G13G19G 6
  21983093.963    -4446011.157 5  -3373167.44821
  19075710.315    -2093959.962 7  -1603500.14224
  20871943.7914   -9144608.55946  -5696821.94761
  21497194.7524    2674373.70845   2094381.31761
  19253187.3464  -25985360.72247 -19935460.39063
 91  4 15 23 35 59.9940000  0  5G15G 2G13G19G 6
  21978389.533    -4470711.371 5  -3392414.31321
  19073788.533    -2104056.366 7  -1611367.45924
  20859210.385    -9211516.155 6  -5748957.54321
  21502215.275     2700764.666 5   2114945.58221
  19246562.8384  -26020173.69047 -19962587.34063
 91  4 15 23 36 14.9940000  0  5G15G 2G13G19G 6
  21973712.6584   -4495291.61446  -3411567.68361
  19071876.963    -2114107.061 7  -1619199.15524
  20846493.5184   -9278350.58246  -5801036.12361
  21507252.1904    2727214.02645   2135555.38761
  19239949.8074  -26054929.12247 -19989669.45363
 91  4 15 23 36 29.9940000  0  5G15G 2G13G19G 6
  21969060.697    -4519746.300 6  -3430623.22021
  19069973.705    -2124106.944 7  -1626991.25924
  20833788.9794   -9345106.33646  -5853053.38761
  21512294.736     2753726.714 5   2156214.55021
  19233347.6354  -26089621.56947 -20016702.49263
 91  4 15 23 36 44.9940000  0  5G15G 2G13G19G 6
  21964429.3774   -4544074.91645  -3449580.51361
  19068080.650    -2134055.577 7  -1634743.43024
  20821100.2834   -9411782.39946  -5905008.57461
  21517351.7294    2780303.18945   2176923.37661
  19226757.1904  -26124250.23747 -20043685.82863
 91  4 15 23 36 59.9940000  0  5G15G 2G13G19G 6
  21959818.9084   -4568285.15745  -3468445.56661
  19066195.6504   -2143960.67947  -1642461.67864
  20808426.0724   -9478386.25346  -5956907.47061
  21522420.986     2806935.430 5   2197675.63721
  19220178.6904  -26158822.82747 -20070625.47163
 91  4 15 23 37 14.9940000  0  5G15G 2G13G19G 6
  21955238.4004   -4592361.64145  -3487206.39461
  19064321.7524   -2153807.64347  -1650134.62664
  20795767.080    -9544902.622 6  -6008738.20221
  21527503.096     2833638.329 5   2218483.00021
  19213612.7994  -26193324.08647 -20097509.53063
 91  4 15 23 37 29.9940000  0  5G15G 2G13G19G 6
  21950686.1354   -4616312.94546  -3505869.67361
  19062457.5654   -2163605.22247  -1657769.09764
  20783125.408    -9611339.822 6  -6060507.26321
  21532597.4324    2860403.05545   2239338.57461
  19207059.3614  -26227762.39447 -20124344.53763
 91  4 15 23 37 44.9940000  0  5G15G 2G13G19G 6
  21946150.9944   -4640137.87146  -3524434.47961
  19060603.1114   -2173352.52847  -1665364.39064
  20770497.588    -9677696.428 6  -6112213.51321
  21537701.8934    2887230.70445   2260243.11861
  19200517.9324  -26262136.55447 -20151129.56063
 91  4 15 23 37 59.9940000  0  5G15G 2G13G19G 6
  21941639.854    -4663839.990 5  -3542903.59921
  19058756.5654   -2183053.26847  -1672923.40064
  20757885.783    -9743975.940 6  -6163859.67921
  21542819.533     2914117.161 5   2281193.46121
  19193989.3854  -26296450.18547 -20177867.41663
 91  4 15 23 38 14.9940000  0  5G15G 2G13G19G 6
  21937148.900    -4687420.381 5  -3561277.86121
  19056919.729    -2192708.645 7  -1680447.05924
  20745286.893    -9810179.480 6  -6215446.66121
  21547946.518     2941060.999 5   2302188.57921
  19187470.5254  -26330704.11747 -20204558.75363
 91  4 15 23 38 29.9940000  0  5G15G 2G13G19G 6
  21932687.088    -4710874.511 5  -3579553.75921
  19055092.1274   -2202314.27547  -1687931.95564
  20732704.025    -9876302.161 6  -6266970.64021
  21553083.869     2968066.756 5   2323231.96221
  19180964.3384  -26364893.83947 -20231200.05863
 91  4 15 23 38 44.9940000  0  5G15G 2G13G19G 6
  21928250.0964   -4734199.50145  -3597729.00961
  19053274.471    -2211867.613 7  -1695376.10124
  20720138.2054   -9942340.83846  -6318429.15661
  21558233.6584    2995137.23345   2344325.71461
  19174471.7994  -26399016.31347 -20257788.96163
 91  4 15 23 38 59.9940000  0  5G15G 2G13G19G 6
  21923834.8774   -4757397.64645  -3615805.43461
  19051465.0964   -2221371.48047  -1702781.70364
  20707585.9474  -10008297.77346  -6369823.99061
  21563399.713     3022269.433 5   2365467.57521
  19167990.2054  -26433073.95347 -20284327.34363
 91  4 15 23 39 14.9940000  0  5G15G 2G13G19G 6
  21919443.518    -4780470.014 5  -3633783.83121
  19049666.7524   -2230826.74847  -1710149.43264
  20695048.229   -10074173.864 6  -6421155.81421
  21568571.3224    3049462.13945   2386656.60561
  19161521.1824  -26467067.50647 -20310815.78763
 91  4 15 23 39 29.9940000  0  5G15G 2G13G19G 6
  21915073.6584   -4803417.73745  -3651665.11561
  19047874.4404   -2240235.02947  -1717480.55164
  20682529.049   -10139970.105 6  -6472425.41421
  21573762.010     3076713.843 4   2407891.59821
  19155063.8224  -26500998.27147 -20337255.31063
 91  4 15 23 39 44.9940000  0  5G15G 2G13G19G 6
  21910733.830    -4826239.645 5  -3669448.36221
  19046094.7294   -2249595.41248  -1724774.34964
  20670022.7444  -10205685.34446  -6523631.91961
  21578954.3544    3104025.30645   2429173.16161
  19148619.2754  -26534865.11947 -20363645.02063
 91  4 15 23 39 59.9940000  0  5G15G 2G13G19G 6
  21906415.088    -4848932.747 5  -3687131.24021
  19044323.3224   -2258905.13748  -1732028.67064
  20657533.088   -10271316.283 6  -6574772.70621
  21584168.018     3131399.393 5   2450503.54221
  19142188.8074  -26568664.79147 -20389982.39463
 91  4 15 23 40 14.9940000  0  5G15G 2G13G19G 6
  21902120.463    -4871500.463 5  -3704716.43121
  19042559.8464   -2268167.84948  -1739246.36164
  20645060.486   -10336866.168 6  -6625850.35021
  21589384.9474    3158832.70645   2471880.02361
  19135768.1354  -26602400.69747 -20416270.07863
 91  4 15 23 40 29.9940000  0  5G15G 2G13G19G 6
  21897851.4864   -4893938.60645  -3722200.63661
  19040808.0254   -2277379.74748  -1746424.45664
  20632599.3934  -10402330.50446  -6676861.33661
  21594621.690     3186328.780 5   2493305.39721
  19129360.7914  -26636068.55147 -20442504.73563
 91  4 15 23 40 44.9940000  0  5G15G 2G13G19G 6
  21893607.596    -4916246.253 5  -3739583.16821
  19039064.5724   -2286539.88648  -1753562.21964
  20620163.2524  -10467708.17546  -6727804.79461
  21599857.7604    3213888.45645   2514780.40061
  19122966.5334  -26669667.37647 -20468685.60263
 91  4 15 23 40 59.9940000  0  5G15G 2G13G19G 6
  21889388.9404   -4938424.26545  -3756864.66361
  19037330.2604   -2295649.52148  -1760660.63164
  20607738.1664  -10533000.24546  -6778681.53961
  21605116.346     3241510.243 5   2536303.80121
  19116587.6974  -26703197.96847 -20494813.30263
 91  4 15 23 41 14.9940000  0  5G15G 2G13G19G 6
  21885192.5334   -4960473.83945  -3774046.10361
  19035606.1744   -2304710.01748  -1767720.74864
  20595328.0964  -10598207.65346  -6829492.31761
  21610387.1114    3269192.64345   2557874.37161
  19110219.3614  -26736661.53447 -20520888.78063
 91  4 15 23 41 29.9940000  0  5G15G 2G13G19G 6
  21881014.8614   -4982400.56245  -3791131.81461
  19033890.9714   -2313727.13048  -1774747.06764
  20582935.8074  -10663335.39046  -6880241.02961
  21615670.1504    3296930.12445   2579487.86161
  19103862.5804  -26770063.23647 -20546916.04664
 91  4 15 23 41 44.9940000  0  5G15G 2G13G19G 6
  21876870.822    -5004198.187 5  -3808116.92521
  19032183.5024   -2322695.00448  -1781735.01464
  20570559.330   -10728377.395 6  -6930922.92821
  21620958.2914    3324728.53945   2601148.85761
  19097519.4634  -26803397.05647 -20572890.41663
 91  4 15 23 41 59.9940000  0  5G15G 2G13G19G 6
  21872744.0024   -5025863.68745  -3824999.09361
  19030487.8384   -2331610.90848  -1788682.46864
  20558198.330   -10793330.714 6  -6981535.72821
  21626257.885     3352590.561 5   2622859.46021
  19091188.9634  -26836659.87047 -20598809.46963
 91  4 15 23 42 14.9940000  0  5G15G 2G13G19G 6
  21868648.6114   -5047397.26145  -3841778.44461
  19028800.9324   -2340474.98648  -1795589.53764
  20545853.0254  -10858194.99846  -7032079.13761
  21631571.588     3380515.859 5   2644619.31221
  19084873.6824  -26869851.61847 -20624673.13664
 91  4 15 23 42 29.9940000  0  5G15G 2G13G19G 6
  21864574.283    -5068804.751 5  -3858459.54221
  19027121.3614   -2349293.73648  -1802461.28364
  20533527.854   -10922976.166 6  -7082557.78821
  21636898.2914    3408498.00045   2666423.46261
  19078570.1744  -26902978.52347 -20650486.27364
 91  4 15 23 42 44.9940000  0  5G15G 2G13G19G 6
  21860524.400    -5090086.265 5  -3875042.48821
  19025452.4634   -2358067.25548  -1809297.78464
  20521214.643   -10987674.040 6  -7132971.54521
  21642230.158     3436536.772 5   2688271.73521
  19072278.1504  -26936040.33347 -20676248.68963
 91  4 15 23 42 59.9940000  0  5G15G 2G13G19G 6
  21856502.221    -5111238.316 5  -3891524.55621
  19023792.8774   -2366792.05948  -1816096.32564
  20508920.0964  -11052284.79946  -7183317.41261
  21647580.3304    3464635.50145   2710166.76661
  19065999.5654  -26969033.35447 -20701957.50463
 91  4 15 23 43 14.9940000  0  5G15G 2G13G19G 6
  21852496.807    -5132255.753 5  -3907901.74021
  19022142.2994   -2375463.16248  -1822853.02364
  20496641.6744  -11116803.13746  -7233591.26761
  21652936.8614    3492799.13645   2732112.32061
  19059734.9944  -27001952.26947 -20727608.57563
 91  4 15 23 43 29.9940000  0  5G15G 2G13G19G 6
  21848520.408    -5153145.930 5  -3924179.73521
  19020501.4474   -2384088.43848  -1829574.01164
  20484381.3464  -11181236.68146  -7283799.04161
  21658310.3614    3521019.79745   2754102.34161
  19053484.7524  -27034804.51147 -20753207.69464
 91  4 15 23 43 44.9940000  0  5G15G 2G13G19G 6
  21844572.580    -5173911.935 5  -3940360.98821
  19018868.4324   -2392671.20748  -1836261.87564
  20472136.190   -11245588.149 6  -7333942.86721
  21663687.221     3549294.163 5   2776134.19821
  19047244.4474  -27067593.18947 -20778757.28664
 91  4 15 23 43 59.9940000  0  5G15G 2G13G19G 6
  21840648.900    -5194540.537 5  -3956435.18721
  19017245.8154   -2401198.61148  -1842906.60164
  20459906.025   -11309844.149 6  -7384012.30021
  21669082.494     3577635.234 5   2798218.04521
  19041019.4794  -27100304.92647 -20804246.91963
 91  4 15 23 44 14.9940000  0  5G15G 2G13G19G 6
  21836749.1434   -5215035.53245  -3972405.26861
  19015632.6114   -2409674.48148  -1849511.17264
  20447696.283   -11374008.260 6  -7434010.14121
  21674483.815     3606038.869 5   2820350.63621
  19034808.2994  -27132943.52947 -20829679.57064
 91  4 15 23 44 29.9940000  0  5G15G 2G13G19G 6
  21832872.9944   -5235396.83845  -3988271.16261
  19014029.3854   -2418099.02448  -1856075.74364
  20435502.2684  -11438080.27746  -7483936.19961
  21679904.307     3634504.922 5   2842531.85221
  19028611.9864  -27165508.63847 -20855054.95064
 91  4 15 23 44 44.9940000  0  5G15G 2G13G19G 6
  21829022.4944   -5255629.03045  -4004036.46461
  19012435.0804   -2426476.80648  -1862603.88364
  20423328.0964  -11502064.40346  -7533793.78161
  21685326.611     3663028.584 4   2864757.95621
  19022427.8614  -27198004.66947 -20880376.49864
 91  4 15 23 44 59.9940000  0  5G15G 2G13G19G 6
  21825196.7134   -5275728.75045  -4019698.54061
  19010849.7134   -2434804.86348  -1869093.27264
  20411167.9714  -11565957.25746  -7583580.24661
  21690772.0654    3691612.92945   2887031.37161
  19016255.7294  -27230428.22447 -20905641.57764
 91  4 15 23 45 14.9940000  0  5G15G 2G13G19G 6
  21821397.8304   -5295697.39245  -4035258.48161
  19009274.2214   -2443084.63348  -1875545.03464
  20399026.010   -11629759.981 6  -7633296.48321
  21696221.885     3720256.259 5   2909350.73821
  19010102.2994  -27262780.55747 -20930851.15864
 91  4 15 23 45 29.9940000  0  5G15G 2G13G19G 6
  21817621.7364   -5315535.66745  -4050716.81361
  19007708.3304   -2451317.21148  -1881960.02964
  20386903.268   -11693473.369 6  -7682943.10821
  21701684.1114    3748957.40745   2931715.13861
  19003958.3614  -27295062.60847 -20956005.97064
 91  4 15 23 45 44.9940000  0  5G15G 2G13G19G 6
  21813870.8464   -5335245.00145  -4066074.68761
  19006150.1904   -2459504.37448  -1888339.63364
  20374796.8934  -11757098.49046  -7732520.95061
  21707155.1044    3777714.64245   2954123.25161
  18997830.1584  -27327275.64547 -20981107.01264
 91  4 15 23 45 59.9930000  0  5G15G 2G13G19G 6
  21810147.3804   -5354819.86845  -4081327.79061
  19004601.8254   -2467641.09448  -1894679.93364
  20362708.317   -11820626.720 6  -7782023.30121
  21712640.255     3806530.346 5   2976576.94021
  18991713.5524  -27359412.80847 -21006148.92664
 91  4 15 23 46 14.9930000  0  5G15G 2G13G19G 6
  21806448.9274   -5374264.58445  -4096479.43561
  19003062.1924   -2475730.44948  -1900983.31964
  20350635.974   -11884067.896 6  -7831457.81621
  21718134.1304    3835406.38545   2999077.65261
  18985609.8334  -27391480.06247 -21031136.36864
 91  4 15 23 46 29.9930000  0  5G15G 2G13G19G 6
  21802770.4894   -5393582.26846  -4111532.11861
  19001530.7084   -2483776.79348  -1907253.19664
  20338579.794   -11947422.242 6  -7880824.67521
  21723639.208     3864336.001 5   3021620.06921
  18979522.2634  -27423479.81847 -21056071.21264
 91  4 15 23 46 44.9930000  0  5G15G 2G13G19G 6
  21799122.021    -5412766.470 6  -4126480.82021
  19000009.5524   -2491773.68348  -1913484.53664
  20326540.427   -12010682.980 6  -7930118.58421
  21729153.958     3893325.530 5   3044209.18621
  18973446.1774  -27455405.32647 -21080948.20664
 91  4 15 23 46 59.9930000  0  5G15G 2G13G19G 6
  21795495.114    -5431820.278 6  -4141327.89421
  18998496.0364   -2499724.51348  -1919679.98464
  20314520.216   -12073852.987 6  -7979341.79821
  21734681.6224    3922371.32744   3066842.17261
  18967384.7784  -27487259.69547 -21105769.76164
 91  4 15 23 47 14.9930000  0  5G15G 2G13G19G 6
  21791898.4274   -5450741.38146  -4156071.54961
  18996992.1304   -2507627.26048  -1925837.96264
  20302517.067   -12136930.061 6  -8028492.59521
  21740220.716     3951475.351 4   3089520.50121
  18961335.5364  -27519040.80747 -21130534.23264
 91  4 15 23 47 29.9930000  0  5G15G 2G13G19G 6
  21788319.864    -5469529.781 5  -4170711.82321
  18995497.3804   -2515481.85848  -1931958.42664
  20290529.513   -12199913.558 6  -8077570.48221
  21745769.208     3980637.835 5   3112244.40221
  18955303.4354  -27550747.90447 -21155241.03464
 91  4 15 23 47 44.9930000  0  5G15G 2G13G19G 6
  21784769.317    -5488186.893 5  -4185249.75821
  18994011.7634   -2523289.99248  -1938042.68364
  20278562.146   -12262804.832 6  -8126576.49421
  21751331.7324    4009856.97544   3135012.43461
  18949282.7474  -27582382.48247 -21179891.32864
 91  4 15 23 47 59.9930000  0  5G15G 2G13G19G 6
  21781245.091    -5506708.558 5  -4199682.17921
  18992536.1854   -2531047.66648  -1944087.62164
  20266611.817   -12325599.643 6  -8175507.35321
  21756900.6074    4039136.66244   3157827.64661
  18943277.7394  -27613940.30547 -21204481.80564
 91  4 15 23 48 14.9930000  0  5G15G 2G13G19G 6
  21777740.9664   -5525100.25845  -4214013.34161
  18991067.1924   -2538760.68048  -1950097.75864
  20254680.247   -12388303.145 6  -8224367.05521
  21762485.3174    4068470.86045   3180685.34261
  18937286.364   -27645426.981 7 -21229016.85024
 91  4 15 23 48 29.9930000  0  5G15G 2G13G19G 6
  21774270.325    -5543361.751 5  -4228243.02621
  18989608.3574   -2546428.95548  -1956073.03664
  20242766.278   -12450915.170 6  -8273155.48121
  21768080.8414    4097859.53245   3203585.49361
  18931307.021   -27676842.038 7 -21253496.09024
 91  4 15 23 48 44.9930000  0  5G15G 2G13G19G 6
  21770821.7394   -5561487.39945  -4242366.88861
  18988159.0524   -2554046.97447  -1962009.15264
  20230868.997   -12513430.041 6  -8321868.19721
  21773682.083     4127308.268 4   3226532.42021
  18925344.5754  -27708179.67547 -21277914.99764
 91  4 15 23 48 59.9930000  0  5G15G 2G13G19G 6
  21767394.583    -5579482.069 5  -4256388.69621
  18986718.8574   -2561619.75348  -1967910.01464
  20218991.0524  -12575852.28946  -8370508.75361
  21779298.7084    4156812.18745   3249522.34061
  18919395.5444  -27739444.50747 -21302277.17564
 91  4 15 23 49 14.9930000  0  5G15G 2G13G19G 6
  21763991.9034   -5597345.47145  -4270308.20661
  18985284.6694   -2569147.12747  -1973775.50064
  20207131.122   -12638181.354 6  -8419076.68921
  21784921.755     4186371.156 5   3272555.18621
  18913460.536   -27770636.080 7 -21326582.26924
 91  4 15 23 49 29.9930000  0  5G15G 2G13G19G 6
  21760621.9194   -5615074.77045  -4284123.20961
  18983861.9274   -2576626.55947  -1979603.62964
  20195286.4824  -12700414.28146  -8467569.72061
  21790560.146     4215987.613 4   3295632.85021
  18907538.028   -27801751.634 7 -21350828.13224
 91  4 15 23 49 44.9930000  0  5G15G 2G13G19G 6
  21757272.278    -5632671.492 6  -4297834.89821
  18982448.7004   -2584059.86747  -1985395.81764
  20183461.341   -12762552.444 6  -8515988.90621
  21796206.497     4245659.786 4   3318753.88421
  18901631.2394  -27832792.57847 -21375015.84964
 91  4 15 23 49 59.9930000  0  5G15G 2G13G19G 6
  21753950.825    -5650135.616 6  -4311443.26521
  18981041.9424   -2591447.18147  -1991152.16564
  20171653.802   -12824595.789 6  -8564334.20721
  21801861.9424    4275387.19545   3341917.96361
  18895739.669   -27863758.937 7 -21399145.45524
 91  4 15 23 50 14.9930000  0  5G15G 2G13G19G 6
  21750655.216    -5667463.918 6  -4324945.79121
  18979645.5674   -2598785.27947  -1996870.16064
  20159866.474   -12886540.508 6  -8612602.64921
  21807529.1224    4305173.12144   3365127.66861
  18889860.232   -27894646.997 7 -21423214.04624
 91  4 15 23 50 29.9930000  0  5G15G 2G13G19G 6
  21747384.763    -5684655.764 6  -4338341.99721
  18978258.5524   -2606073.66047  -2002549.41564
  20148098.9744  -12948385.65646  -8660793.51161
  21813208.857     4335018.121 4   3388383.37121
  18883997.880   -27925455.998 7 -21447221.03624
 91  4 15 23 50 44.9930000  0  5G15G 2G13G19G 6
  21744136.0994   -5701712.16146  -4351632.60761
  18976881.2244   -2613313.78147  -2008191.06564
  20136348.888   -13010132.655 6  -8708907.89121
  21818896.810     4364920.414 4   3411683.74521
  18878149.8964  -27956187.19947 -21471167.39863
 91  4 15 23 50 59.9930000  0  5G15G 2G13G19G 6
  21740913.575    -5718636.518 6  -4364820.36121
  18975512.8724   -2620509.14447  -2013797.83964
  20124617.138   -13071784.599 6  -8756948.20721
  21824601.0444    4394876.48045   3435026.00961
  18872316.2474  -27986843.73247 -21495055.57664
 91  4 15 23 51 14.9930000  0  5G15G 2G13G19G 6
  21737723.333    -5735425.553 6  -4377902.64521
  18974151.8964   -2627656.63747  -2019367.31064
  20112904.989   -13133337.898 6  -8804911.65421
  21830310.7634    4424889.39244   3458412.55661
  18866497.591   -28017422.272 7 -21518882.98523
 91  4 15 23 51 29.9930000  0  5G15G 2G13G19G 6
  21734550.638    -5752079.208 6  -4390879.50421
  18972800.8414   -2634756.22447  -2024899.46164
  20101211.942   -13194792.207 6  -8852797.96021
  21836035.4824    4454959.06143   3481843.35261
  18860692.482   -28047922.311 7 -21542649.22724
 91  4 15 23 51 44.9930000  0  5G15G 2G13G19G 6
  21731409.9354   -5768600.65146  -4403753.32461
  18971457.9664   -2641811.27547  -2030396.90364
  20089533.8884  -13256150.50846  -8900609.46661
  21841766.0524    4485082.08244   3505315.71461
  18854902.4664  -28078347.00047 -21566356.74864
 91  4 15 23 51 59.9930000  0  5G15G 2G13G19G 6
  21728286.3254   -5784991.05345  -4416525.02161
  18970123.4354   -2648823.27247  -2035860.79264
  20077875.8104  -13317413.74546  -8948346.90061
  21847508.4974    4515257.14544   3528828.62461
  18849128.208   -28108697.396 7 -21590006.38723
 91  4 15 23 52 14.9930000  0  5G15G 2G13G19G 6
  21725189.271    -5801246.299 5  -4429191.43821
  18968797.9894   -2655788.08747  -2041287.92464
  20066234.817   -13378577.519 6  -8996006.82921
  21853262.9114    4545487.99744   3552385.00961
  18843367.888   -28138969.229 7 -21613594.79924
 91  4 15 23 52 29.9930000  0  5G15G 2G13G19G 6
  21722128.2084   -5817365.05746  -4441751.47561
  18967481.5524   -2662704.51747  -2046677.35264
  20054613.7474  -13439640.47446  -9043588.19561
  21859021.075     4575775.789 3   3575985.73421
  18837623.2324  -28169160.92847 -21637120.77264
 91  4 15 23 52 44.9930000  0  5G15G 2G13G19G 6
  21719082.974    -5833349.284 5  -4454206.68721
  18966174.4114   -2669574.58947  -2052030.65264
  20043013.7004  -13500604.06946  -9091092.14561
  21864801.833     4606118.413 4   3599629.22621
  18831892.950   -28199274.207 7 -21660585.63923
 91  4 15 23 52 59.9930000  0  5G15G 2G13G19G 6
  21716071.396    -5849197.510 5  -4466555.93721
  18964876.5134   -2676396.93647  -2057346.76764
  20031429.9744  -13561466.69046  -9138517.40861
  21870587.114     4636517.216 4   3623316.49921
  18826177.7784  -28229307.50347 -21683988.18264
 91  4 15 23 53 14.9930000  0  5G15G 2G13G19G 6
  21713081.1464   -5864909.94246  -4478799.35961
  18963586.5674   -2683172.33347  -2062626.29064
  20019869.4114  -13622228.64746  -9185864.23861
  21876379.0674    4666971.33744   3647046.86461
  18820476.841   -28259261.142 7 -21707328.65423
 91  4 15 23 53 29.9930000  0  5G15G 2G13G19G 6
  21710116.4664   -5880487.72946  -4490937.85261
  18962307.2474   -2689901.95747  -2067870.15264
  20008325.4894  -13682891.01446  -9233133.46261
  21882185.9744    4697479.26644   3670819.10261
  18814792.0284  -28289136.05247 -21730607.77764
 91  4 15 23 53 44.9930000  0  5G15G 2G13G19G 6
  21707173.739    -5895932.986 6  -4502973.08321
  18961034.8644   -2696587.90347  -2073079.98064
  19996801.0994  -13743455.57946  -9280326.48061
  21888001.7784    4728039.05244   3694631.79561
  18809121.052   -28318934.088 7 -21753827.00524
 91  4 15 23 53 59.9930000  0  5G15G 2G13G19G 6
  21704265.427    -5911239.937 6  -4514900.53821
  18959771.4584   -2703224.79047  -2078251.57964
  19985293.2714  -13803916.55546  -9327438.78061
  21893830.2084    4758655.76644   3718488.87161
  18803465.810   -28348649.604 7 -21776981.92724
 91  4 15 23 54 14.9930000  0  5G15G 2G13G19G 6
  21701375.692    -5926411.172 6  -4526722.21721
  18958517.7244   -2709814.85347  -2083386.68964
  19973808.5364  -13864276.03846  -9374471.99461
  21899662.560     4789326.959 4   3742388.38921
  18797827.6694  -28378284.64747 -21800074.14163
 91  4 15 23 54 29.9930000  0  5G15G 2G13G19G 6
  21698513.435    -5941447.260 5  -4538438.60021
  18957271.6854   -2716359.19147  -2088486.17464
  19962343.880   -13924534.307 6  -9421426.34421
  21905509.2084    4820051.91644   3766329.75961
  18792203.974   -28407839.627 7 -21823103.96823
 91  4 15 23 54 44.9930000  0  5G15G 2G13G19G 6
  21695677.4504   -5956346.50046  -4550048.36361
  18956035.3804   -2722856.28847  -2093548.84164
  19950895.7714  -13984689.54346  -9468300.40661
  21911369.2864    4850831.71544   3790313.90061
  18786595.685   -28437312.998 7 -21846070.21123
 91  4 15 23 54 59.9930000  0  5G15G 2G13G19G 6
  21692871.0284   -5971109.19946  -4561551.69861
  18954807.8494   -2729306.31547  -2098574.83864
  19939469.021   -14044741.732 6  -9515094.17621
  21917237.646     4881666.125 4   3814340.57021
  18781001.1854  -28466704.72947 -21868972.82963
 91  4 15 23 55 14.9930000  0  5G15G 2G13G19G 6
  21690086.1384   -5985731.74446  -4572945.85261
  18953589.3494   -2735705.88447  -2103561.51164
  19928061.0674  -14104687.07246  -9561804.68161
  21923112.333     4912558.576 4   3838412.48221
  18775424.0994  -28496011.07947 -21891808.91863
 91  4 15 23 55 29.9930000  0  5G15G 2G13G19G 6
  21687329.6464   -6000216.63846  -4584232.74261
  18952382.4354   -2742057.71047  -2108510.98664
  19916673.2474  -14164527.84246  -9608433.70761
  21929001.5524    4943506.32044   3862527.50061
  18769863.6924  -28525234.21447 -21914580.16663
 91  4 15 23 55 44.9930000  0  5G15G 2G13G19G 6
  21684601.794    -6014564.994 6  -4595413.25821
  18951181.7004   -2748362.93847  -2113424.15064
  19905305.614   -14224264.996 6  -9654982.00121
  21934900.927     4974508.011 4   3886684.54521
  18764317.239   -28554375.139 7 -21937287.35323
 91  4 15 23 55 59.9930000  0  5G15G 2G13G19G 6
  21681897.7244   -6028776.70146  -4606487.28661
  18949990.4744   -2754621.79247  -2118301.17664
  19893957.599   -14283898.617 6  -9701449.62121
  21940810.0674    5005563.29943   3910883.31261
  18758788.7244  -28583433.77747 -21959930.42163
 91  4 15 23 56 14.9930000  0  5G15G 2G13G19G 6
  21679219.5754   -6042853.51145  -4617456.19061
  18948808.1384   -2760835.88347  -2123143.31664
  19882628.091   -14343429.911 6  -9747837.50421
  21946734.302     5036670.476 4   3935122.54221
  18753274.942   -28612411.634 7 -21982510.54523
 91  4 15 23 56 29.9930000  0  5G15G 2G13G19G 6
  21676566.4584   -6056794.16546  -4628319.01461
  18947635.2084   -2767004.45747  -2127949.99664
  19871319.130   -14402857.652 6  -9794144.69821
  21952660.310     5067830.331 3   3959402.84921
  18747775.8254  -28641307.39647 -22005026.69463
 91  4 15 23 56 44.9930000  0  5G15G 2G13G19G 6
  21673938.8024   -6070598.13845  -4639075.31461
  18946469.0364   -2773126.94647  -2132720.76664
  19860030.278   -14462180.986 6  -9840370.52721
  21958599.677     5099043.215 4   3983724.43321
  18742292.5754  -28670120.24147 -22027478.23763
 91  4 15 23 56 59.9930000  0  5G15G 2G13G19G 6
  21671339.7324   -6084263.75945  -4649723.80461
  18945312.5364   -2779201.85847  -2137454.45964
  19848762.3724  -14521398.05346  -9886513.56061
  21964554.1924    5130310.33544   4008088.29161
  18736824.552   -28698848.359 7 -22049863.75823
 91  4 15 23 57 14.9930000  0  5G15G 2G13G19G 6
  21668764.9974   -6097790.85145  -4660264.38161
  18944165.3174   -2785229.13747  -2142151.03664
  19837514.739   -14580508.459 6  -9932573.48421
  21970507.630     5161631.818 3   4032494.47921
  18731374.9824  -28727491.54747 -22072183.09763
 91  4 15 23 57 29.9930000  0  5G15G 2G13G19G 6
  21666213.0754   -6111183.90845  -4670700.49561
  18943027.5754   -2791213.16747  -2146813.91364
  19826285.3174  -14639516.28246  -9978553.47961
  21976480.3644    5193002.99944   4056939.42661
  18725939.9744  -28756053.91847 -22094439.46463
 91  4 15 23 57 44.9930000  0  5G15G 2G13G19G 6
  21663690.3884   -6124445.74945  -4681034.36761
  18941896.1774   -2797157.15247  -2151445.58564
  19815073.903   -14698424.281 6 -10024455.67821
  21982462.638     5224420.872 4   4081420.77421
  18720519.6774  -28784538.17547 -22116634.95963
 91  4 15 23 57 59.9930000  0  5G15G 2G13G19G 6
  21661194.263    -6137568.441 5  -4691259.80221
  18940774.5674   -2803053.02747  -2156039.77264
  19803886.005   -14757223.869 6 -10070273.40821
  21988447.216     5255893.421 3   4105944.70221
  18715115.9424  -28812936.19247 -22138763.25563
 91  4 15 23 58 14.9930000  0  5G15G 2G13G19G 6
  21658722.989    -6150553.373 5  -4701377.87421
  18939661.0444   -2808902.33247  -2160597.67164
  19792716.614   -14815916.494 6 -10116007.79321
  21994449.0524    5287418.74343   4130509.72561
  18709726.9894  -28841249.03847 -22160825.18963
 91  4 15 23 58 29.9930000  0  5G15G 2G13G19G 6
  21656272.6384   -6163396.49345  -4711385.45861
  18938557.4274   -2814701.23347  -2165116.28864
  19781568.3174  -14874497.93046 -10161655.53461
  22000455.2004    5319000.79544   4155118.97661
  18704357.364   -28869472.621 7 -22182817.56423
 91  4 15 23 58 44.9930000  0  5G15G 2G13G19G 6
  21653860.7394   -6176101.57445  -4721285.48561
  18937462.9354   -2820453.48647  -2169598.55864
  19770441.9974  -14932971.88946 -10207219.52661
  22006476.3104    5350635.50943   4179769.28361
  18699002.271   -28897610.530 7 -22204743.18423
 91  4 15 23 58 59.9930000  0  5G15G 2G13G19G 6
  21651465.3104   -6188669.42245  -4731078.57961
  18936377.1924   -2826160.16347  -2174045.32064
  19759333.6854  -14991339.19146 -10252700.41661
  22012510.4274    5382321.67243   4204459.65861
  18693664.380   -28925663.531 7 -22226602.64023
 91  4 15 23 59 14.9930000  0  5G15G 2G13G19G 6
  21649104.4744   -6201101.09645  -4740765.56561
  18935299.2324   -2831822.57347  -2178457.58564
  19748248.935   -15049600.655 6 -10298098.82821
  22018552.1534    5414058.03244   4229189.14961
  18688341.1224  -28953632.50947 -22248396.62163
 91  4 15 23 59 29.9930000  0  5G15G 2G13G19G 6
  21646764.4114   -6213393.57445  -4750344.09161
  18934230.3104   -2837437.55747  -2182832.89964
  19737181.5914  -15107752.78346 -10343412.04661
  22024598.075     5445847.703 4   4253960.17821
  18683036.286   -28981514.054 7 -22270122.47623
 91  4 15 23 59 44.9930000  0  5G15G 2G13G19G 6
  21644452.3104   -6225545.45245  -4759813.05761
  18933171.8414   -2843004.01847  -2187170.40164
  19726135.6304  -15165794.14146 -10388638.95161
  22030655.419     5477691.480 4   4278773.36121
  18677746.810   -29009306.867 7 -22291779.18623
 91  4 15 23 59 59.9930000  0  5G15G 2G13G19G 6
  21642162.2004   -6237563.88945  -4769178.04961
  18932120.4974   -2848528.99747  -2191475.57764
  19715112.1854  -15223731.32746 -10433784.68661
  22036726.763     5509582.264 4   4303623.18721
  18672473.630   -29037017.506 7 -22313371.87123
 91  4 16  0  0 14.9930000  0  5G15G 2G13G19G 6
  21639903.6534   -6249444.07345  -4778435.31261
  18931077.0054   -2854007.79447  -2195744.76664
  19704106.5284  -15281559.49146 -10478845.46861
  22042804.1614    5541524.55743   4328513.17261
  18667218.435   -29064641.251 7 -22334896.84123
 91  4 16  0  0 29.9930000  0  5G15G 2G13G19G 6
  21637669.6144   -6261189.94845  -4787587.90061
  18930043.2084   -2859444.37647  -2199981.06364
  19693122.3174  -15339282.38646 -10523824.22261
  22048891.286     5573514.287 4   4353440.08121
  18661976.185   -29092181.639 7 -22356356.86123
 91  4 16  0  0 44.9930000  0  5G15G 2G13G19G 6
  21635461.138    -6272795.194 5  -4796630.90121
  18929018.1854   -2864832.71047  -2204179.76464
  19682160.1854  -15396893.33946 -10568715.75061
  22054990.0604    5605557.32744   4378408.54361
  18656753.521   -29119632.491 7 -22377747.10723
 91  4 16  0  0 59.9930000  0  5G15G 2G13G19G 6
  21633278.6694   -6284260.32145  -4805564.72961
  18928001.2244   -2870173.47648  -2208341.40064
  19671219.2714  -15454392.84746 -10613520.44461
  22061095.4584    5637653.08943   4403418.04461
  18651546.2864  -29146993.89547 -22399067.66163
 91  4 16  0  1 14.9930000  0  5G15G 2G13G19G 6
  21631124.8804   -6295586.09645  -4814389.98761
  18926994.8644   -2875467.37847  -2212466.52064
  19660298.9664  -15511781.26046 -10658238.55861
  22067211.208     5669800.552 3   4428467.88821
  18646355.9504  -29174266.41947 -22420318.94864
 91  4 16  0  1 29.9930000  0  5G15G 2G13G19G 6
  21628993.692    -6306773.756 5  -4823107.60321
  18925995.0444   -2880715.64947  -2216556.08464
  19649396.7864  -15569059.88946 -10702871.13361
  22073340.2554    5701998.40344   4453557.01961
  18641182.310   -29201451.247 7 -22441501.90923
 91  4 16  0  1 44.9930000  0  5G15G 2G13G19G 6
  21626888.6924   -6317825.83345  -4831719.58361
  18925004.7244   -2885920.81547  -2220612.05664
  19638518.1694  -15626230.58046 -10747419.60661
  22079478.349     5734243.831 4   4478683.18221
  18636026.763   -29228550.312 7 -22462618.03723
 91  4 16  0  1 59.9930000  0  5G15G 2G13G19G 6
  21624815.708    -6328740.648 5  -4840224.62321
  18924022.5754   -2891081.37647  -2224633.27464
  19627661.1694  -15683291.76446 -10791882.74161
  22085625.9584    5766538.50043   4503847.68461
  18630886.989   -29255562.052 7 -22483666.12223
 91  4 16  0  2 14.9930000  0  5G15G 2G13G19G 6
  21622764.7084   -6339515.88245  -4848620.84261
  18923049.9584   -2896195.31448  -2228618.16064
  19616823.1694  -15740240.73246 -10836258.43261
  22091779.7944    5798884.51344   4529052.21161
  18625763.185   -29282483.864 7 -22504644.13224
 91  4 16  0  2 29.9930000  0  5G15G 2G13G19G 6
  21620740.739    -6350152.591 5  -4856909.13721
  18922085.9114   -2901263.82548  -2232567.65064
  19606007.271   -15797078.634 6 -10880547.58021
  22097942.755     5831280.457 4   4554295.64521
  18620655.864   -29309316.760 7 -22525552.85824
 91  4 16  0  2 44.9930000  0  5G15G 2G13G19G 6
  21618741.950    -6360652.323 5  -4865090.70821
  18921129.6924   -2906288.58848  -2236483.05264
  19595210.3724  -15853806.85346 -10924751.26961
  22104119.919     5863724.308 4   4579576.49321
  18615566.396   -29336062.204 7 -22546393.43823
 91  4 16  0  2 59.9930000  0  5G15G 2G13G19G 6
  21616769.1534   -6371017.12745  -4873167.12861
  18920181.4894   -2911271.55847  -2240365.88764
  19584436.6854  -15910427.09546 -10968870.80861
  22110300.2864    5896214.00343   4604892.97961
  18610494.4424  -29362721.94747 -22567167.23963
 91  4 16  0  3 14.9930000  0  5G15G 2G13G19G 6
  21614826.841    -6381244.855 5  -4881136.75321
  18919241.3494   -2916210.44947  -2244214.37364
  19573682.0604  -15966936.75446 -11012904.18361
  22116490.4114    5928751.57843   4630246.76061
  18605437.474   -29389293.589 7 -22587872.38824
 91  4 16  0  3 29.9930000  0  5G15G 2G13G19G 6
  21612901.349    -6391333.742 5  -4888998.20421
  18918311.0364   -2921103.42247  -2248027.08464
  19562953.8414  -16023333.56646 -11056849.64161
  22122695.997     5961338.910 4   4655639.29921
  18600399.146   -29415774.755 7 -22608507.04123
 91  4 16  0  3 44.9930000  0  5G15G 2G13G19G 6
  21611008.6774   -6401284.44145  -4896751.98961
  18917387.7634   -2925951.58647  -2251804.87264
  19552240.4584  -16079618.51146 -11100707.92361
  22128905.724     5993974.609 3   4681069.61221
  18595375.536   -29442166.311 7 -22629071.86423
 91  4 16  0  3 59.9930000  0  5G15G 2G13G19G 6
  21609142.263    -6411097.741 5  -4904398.70921
  18916473.8334   -2930755.98147  -2255548.55864
  19541552.317   -16135792.126 6 -11144479.45421
  22135125.6854    6026657.76443   4706536.87461
  18590371.372   -29468468.895 7 -22649567.36023
 91  4 16  0  4 14.9930000  0  5G15G 2G13G19G 6
  21607302.763    -6420771.757 5  -4911936.87921
  18915567.3724   -2935514.44347  -2259256.44964
  19530882.7324  -16191852.00346 -11188162.35761
  22141348.294     6059390.231 3   4732042.54921
  18585382.708   -29494680.166 7 -22669991.70123
 91  4 16  0  4 29.9930000  0  5G15G 2G13G19G 6
  21605489.0994   -6430309.54045  -4919368.92761
  18914671.1074   -2940230.04547  -2262930.93864
  19520235.1694  -16247801.06746 -11231758.91061
  22147594.513     6092168.931 3   4757584.21921
  18580411.825   -29520802.867 7 -22690347.03023
 91  4 16  0  4 44.9930000  0  5G15G 2G13G19G 6
  21603700.021    -6439707.336 5  -4926691.85621
  18913781.1074   -2944899.18747  -2266569.23064
  19509612.3494  -16303635.39946 -11275266.06161
  22153835.075     6124997.216 3   4783164.54521
  18575458.630   -29546833.269 7 -22710630.43723
 91  4 16  0  4 59.9930000  0  5G15G 2G13G19G 6
  21601936.146    -6448966.922 6  -4933907.08421
  18912900.5214   -2949524.06847  -2270173.02964
  19499006.7864  -16359357.05346 -11318685.41961
  22160092.458     6157872.898 3   4808781.80521
  18570523.3494  -29572773.27547 -22730843.40363
 91  4 16  0  5 14.9930000  0  5G15G 2G13G19G 6
  21600199.7164   -6458086.31146  -4941013.06661
  18912031.2714   -2954102.55547  -2273740.68064
  19488425.1384  -16414963.13146 -11362014.70761
  22166359.528     6190798.053 3   4834437.66321
  18565605.1384  -29598620.25647 -22750983.88263
 91  4 16  0  5 29.9930000  0  5G15G 2G13G19G 6
  21598494.450    -6467066.907 5  -4948010.91521
  18911168.0754   -2958635.89747  -2277273.14964
  19477865.919   -16470454.663 6 -11405254.74321
  22172635.810     6223771.028 3   4860130.77221
  18560704.036   -29624375.352 7 -22771052.76223
 91  4 16  0  5 44.9930000  0  5G15G 2G13G19G 6
  21596813.435    -6475911.614 5  -4954902.88521
  18910313.3964   -2963127.02447  -2280772.73364
  19467327.5674  -16525834.54946 -11448407.79261
  22178916.9894    6256788.69244   4885858.62661
  18555818.661   -29650041.245 7 -22791052.13323
 91  4 16  0  5 59.9930000  0  5G15G 2G13G19G 6
  21595152.8644   -6484614.13445  -4961684.02961
  18909467.5054   -2967570.12647  -2284234.88864
  19456810.5914  -16581096.49346 -11491468.92061
  22185210.2634    6289856.97843   4911625.96661
  18550953.716   -29675611.695 7 -22810977.13523
 91  4 16  0  6 14.9930000  0  5G15G 2G13G19G 6
  21593521.0674   -6493177.58845  -4968356.78761
  18908630.4034   -2971968.13747  -2287661.90764
  19446317.3104  -16636243.50347 -11534440.49961
  22191513.2554    6322972.81743   4937430.36561
  18546105.4504  -29701089.50147 -22830829.94563
 91  4 16  0  6 29.9930000  0  5G15G 2G13G19G 6
  21591922.5134   -6501601.17845  -4974920.58961
  18907802.3104   -2976320.21247  -2291053.13164
  19435845.5524  -16691274.28447 -11577321.50961
  22197825.302     6356136.802 3   4963272.28921
  18541273.794   -29726473.595 7 -22850609.73823
 91  4 16  0  6 44.9930000  0  5G15G 2G13G19G 6
  21590341.1774   -6509881.82945  -4981373.05361
  18906984.5364   -2980623.51447  -2294406.35164
  19425396.7554  -16746185.50547 -11620109.35361
  22204145.4424    6389351.73344   4989153.90561
  18536463.341   -29751760.684 7 -22870313.94023
 91  4 16  0  6 59.9930000  0  5G15G 2G13G19G 6
  21588794.0134   -6518023.02445  -4987716.83361
  18906174.1774   -2984881.27247  -2297724.08864
  19414970.1384  -16800980.30047 -11662806.47861
  22210474.2864    6422614.16243   5015072.57661
  18531668.114   -29776953.792 7 -22889944.90823
 91  4 16  0  7 14.9930000  0  5G15G 2G13G19G 6
  21587269.982    -6526024.238 5  -4993951.51921
  18905371.7714   -2989093.26147  -2301006.15264
  19404564.4974  -16855658.11847 -11705412.44961
  22216809.9974    6455924.05442   5041028.14161
  18526892.286   -29802052.555 7 -22909502.36323
 91  4 16  0  7 29.9930000  0  4G15G 2G13G 6
  21585777.138    -6533889.902 5  -5000080.60421
  18904577.3414   -2993263.87547  -2304255.97864
  19394181.0134  -16910223.21047 -11747930.58861
  18522133.942   -29827060.996 7 -22928989.44023
 91  4 16  0  7 44.9930000  0  4G15G 2G13G 6
  21584305.4744   -6541618.60745  -5006102.93661
  18903793.2714   -2997391.74847  -2307472.50264
  19383817.364   -16964673.850 6 -11790359.54221
  18517392.349   -29851977.447 7 -22948404.83523
 91  4 16  0  7 59.9930000  0  4G15G 2G13G 6
  21582860.919    -6549205.483 5  -5012014.76821
  18903016.4504   -3001472.22547  -2310652.09964
  19373478.8414  -17019004.97347 -11832695.36961
  18512668.825   -29876796.890 7 -22967744.64123
 91  4 16  0  8 14.9930000  0  4G15G 2G13G 6
  21581445.9034   -6556653.52845  -5017818.43661
  18902247.3174   -3005508.22447  -2313797.02964
  19363162.7324  -17073219.33347 -11874940.20361
  18507964.044   -29901522.124 7 -22987011.03623
 91  4 16  0  8 29.9930000  0  4G15G 2G13G 6
  21580058.005    -6563960.404 5  -5023512.09621
  18901488.9584   -3009497.20847  -2316905.33164
  19352868.8414  -17127314.23847 -11917091.96461
  18503276.349   -29926150.348 7 -23006201.84023
 91  4 16  0  8 44.9930000  0  4G15G 2G13G 6
  21578691.091    -6571126.697 5  -5029096.17121
  18900738.3724   -3013440.16747  -2319977.76664
  19342596.552   -17181290.128 6 -11959150.97721
  18498608.849   -29950682.235 7 -23025317.57723
 91  4 16  0  8 59.9930000  0  4G15G 2G13G 6
  21577352.544    -6578155.309 5  -5034572.97021
  18899995.9894   -3017339.94447  -2323016.54864
  19332347.1144  -17235149.87047 -12001119.49461
  18493958.849   -29975120.295 7 -23044360.20323
 91  4 16  0  9 14.9930000  0  4G15G 2G13G 6
  21576042.802    -6585046.959 5  -5039943.07821
  18899263.3724   -3021197.08947  -2326022.11664
  19322120.2084  -17288893.64247 -12042997.64161
  18489325.997   -29999465.020 7 -23063330.09723
 91  4 16  0  9 29.9930000  0  4G15G 2G13G 6
  21574757.7394   -6591795.65545  -5045201.76661
  18898536.8574   -3025005.62347  -2328989.80564
  19311916.6534  -17342515.26247 -12084780.59961
  18484713.560   -30023710.000 7 -23082222.27123
 91  4 16  0  9 44.9930000  0  4G15G 2G13G 6
  21573502.646    -6598405.263 5  -5050352.06821
  18897822.3494   -3028769.48647  -2331922.68764
  19301736.239   -17396018.190 7 -12126471.08121
  18480116.396   -30047858.930 7 -23101039.59923
 91  4 16  0  9 59.9930000  0  4G15G 2G13G 6
  21572265.2084   -6604879.96145  -5055397.24561
  18897113.5364   -3032493.19747  -2334824.27764
  19291575.435   -17449406.730 7 -12168072.42921
  18475538.060   -30071915.939 7 -23119785.30023
 91  4 16  0 10 14.9930000  0  4G15G 2G13G 6
  21571062.474    -6611210.958 5  -5060330.47021
  18896415.2004   -3036167.82747  -2337687.62664
  19281440.427   -17502671.931 7 -12209577.66621
  18470979.919   -30095871.996 7 -23138452.33923
 91  4 16  0 10 29.9930000  0  4G15G 2G13G 6
  21569887.325    -6617405.860 5  -5065157.64921
  18895721.0674   -3039801.03047  -2340518.69364
  19271325.239   -17555820.692 7 -12250992.17321
  18466438.763   -30119734.455 7 -23157046.44423
 91  4 16  0 10 44.9930000  0  4G15G 2G13G 6
  21568730.6534   -6623462.61145  -5069877.18461
  18895040.0994   -3043390.76947  -2343315.89164
  19261235.044   -17608850.957 7 -12292314.34621
  18461915.653   -30143500.954 7 -23175565.77623
 91  4 16  0 10 59.9930000  0  4G15G 2G13G 6
  21567606.005    -6629377.994 6  -5074486.55521
  18894363.8414   -3046933.79547  -2346076.69064
  19251166.271   -17661759.469 7 -12333541.64821
  18457413.161   -30167168.009 7 -23194007.62123
 91  4 16  0 11 14.9930000  0  4G15G 2G13G 6
  21566506.5364   -6635155.72945  -5078988.65561
  18893698.3174   -3050433.81647  -2348803.97664
  19241120.841   -17714549.575 7 -12374676.68621
  18452927.442   -30190739.162 7 -23212374.73523
 91  4 16  0 11 29.9930000  0  4G15G 2G13G 6
  21565433.677    -6640796.010 5  -5083383.65121
  18893039.9274   -3053891.10147  -2351497.96064
  19231098.255   -17767221.134 7 -12415719.34921
  18448461.216   -30214214.350 7 -23230667.07423
 91  4 16  0 11 44.9930000  0  4G15G 2G13G 6
  21564382.2714   -6646300.02345  -5087672.49561
  18892391.5754   -3057306.80747  -2354159.54564
  19221097.669   -17819775.219 7 -12456670.47521
  18444011.692   -30237594.407 7 -23248885.28323
 91  4 16  0 11 59.9930000  0  4G15G 2G13G 6
  21563362.841    -6651660.407 5  -5091849.39521
  18891751.5604   -3060673.67647  -2356783.07964
  19211119.802   -17872204.232 7 -12497524.14621
  18439581.294   -30260871.897 7 -23267023.57023
 91  4 16  0 12 14.9930000  0  4G15G 2G13G 6
  21562373.232    -6656883.730 5  -5095919.50821
  18891118.2864   -3063998.31347  -2359373.70064
  19201166.614   -17924514.377 7 -12538285.18921
  18435169.896   -30284053.046 7 -23285086.78523
 91  4 16  0 12 29.9930000  0  4G15G 2G13G 6
  21561403.0754   -6661969.02545  -5099882.03661
  18890493.3574   -3067279.54747  -2361930.50664
  19191235.216   -17976704.415 7 -12578952.64921
  18430777.036   -30307136.565 7 -23303073.92723
 91  4 16  0 12 44.9930000  0  4G15G 2G13G 6
  21560459.833    -6666915.899 5  -5103736.71421
  18889876.7244   -3070517.26347  -2364453.39664
  19181326.114   -18028774.082 7 -12619526.30421
  18426403.208   -30330121.958 7 -23320984.60223
 91  4 16  0 12 59.9930000  0  4G15G 2G13G 6
  21559545.997    -6671727.161 5  -5107485.73521
  18889269.5364   -3073714.00747  -2366944.36864
  19171440.599   -18080725.494 7 -12660007.82221
  18422049.060   -30353011.642 7 -23338820.70323
 91  4 16  0 13 14.9930000  0  4G15G 2G13G 6
  21558653.6384   -6676399.90745  -5111126.82561
  18888669.3174   -3076866.96547  -2369401.21964
  19161576.732   -18132555.690 7 -12700394.88321
  18417711.474   -30375802.499 7 -23356579.79323
 91  4 16  0 13 29.9930000  0  4G15G 2G13G 6
  21557794.3414   -6680931.84045  -5114658.19161
  18888077.7784   -3079973.88547  -2371822.19464
  19151737.474   -18184262.256 7 -12740685.61221
  18413392.513   -30398492.006 7 -23374259.91423
 91  4 16  0 13 44.9930000  0  4G15G 2G13G 6
  21556960.5524   -6685326.59345  -5118082.69461
  18887493.8964   -3083038.26247  -2374210.02264
  19141921.317   -18235848.496 7 -12780882.58021
  18409094.247   -30421083.434 7 -23391863.60124
 91  4 16  0 13 59.9930000  0  4G15G 2G13G 6
  21556150.060    -6689581.058 5  -5121397.85221
  18886920.0214   -3086056.94547  -2376562.24364
  19132126.161   -18287310.866 7 -12820983.02821
  18404815.349   -30443573.473 7 -23409388.28823
 91  4 16  0 14 14.9930000  0  4G15G 2G13G 6
  21555363.8414   -6693696.06345  -5124604.31361
  18886354.8104   -3089031.05247  -2378879.72664
  19122357.3414  -18338650.18447 -12860987.59061
  18400553.239   -30465962.761 7 -23426834.46923
 91  4 16  0 14 29.9930000  0  4G15G 2G13G 6
  21554607.325    -6697672.872 5  -5127703.08121
  18885796.7944   -3091961.65047  -2381163.30464
  19112610.5214  -18389867.54847 -12900897.12461
  18396312.325   -30488252.286 7 -23444202.91323
 91  4 16  0 14 44.9930000  0  4G15G 2G13G 6
  21553880.802    -6701512.656 5  -5130695.10221
  18885247.4424   -3094850.00047  -2383413.97064
  19102888.0134  -18440963.77047 -12940712.26961
  18392089.294   -30510443.051 7 -23461494.40023
 91  4 16  0 14 59.9930000  0  4G15G 2G13G 6
  21553170.130    -6705214.598 5  -5133579.71521
  18884704.8494   -3097695.00747  -2385630.85764
  19093185.7324  -18491937.66547 -12980432.09061
  18387887.044   -30532533.725 7 -23478707.89724
 91  4 16  0 15 14.9930000  0  4G15G 2G13G 6
  21552498.7864   -6708775.14545  -5136354.17461
  18884172.8334   -3100493.53447  -2387811.53364
  19083510.5524  -18542785.63847 -13020053.79361
  18383701.153   -30554520.763 7 -23495840.63223
 91  4 16  0 15 29.9920000  0  4G15G 2G13G 6
  21551845.1724   -6712194.01445  -5139018.22861
  18883649.4694   -3103245.04947  -2389955.57264
  19073860.0634  -18593503.67147 -13059574.24461
  18379538.399   -30576402.179 7 -23512891.07023
 91  4 16  0 15 44.9920000  0  4G15G 2G13G 6
  21551218.9924   -6715479.60845  -5141578.43061
  18883132.5164   -3105957.93647  -2392069.50564
  19064231.3284  -18644106.34547 -13099004.80661
  18375391.969   -30598188.588 7 -23529867.47223
 91  4 16  0 15 59.9920000  0  4G15G 2G13G 6
  21550622.7194   -6718622.63945  -5144027.53461
  18882626.0634   -3108622.83647  -2394146.05864
  19054626.016   -18694581.072 7 -13138335.66821
  18371266.078   -30619869.227 7 -23546761.45923
 91  4 16  0 16 14.9920000  0  4G15G 2G13G 6
  21550048.2194   -6721622.39045  -5146364.93861
  18882128.1094   -3111239.15247  -2396184.74164
  19045044.2344  -18744926.87147 -13177566.05961
  18367161.352   -30641443.208 7 -23563572.33723
 91  4 16  0 16 29.9920000  0  4G15G 2G13G 6
  21549503.5864   -6724482.84545  -5148593.91161
  18881638.9844   -3113810.88647  -2398188.69664
  19035488.1174  -18795147.42047 -13216698.86461
  18363075.024   -30662914.269 7 -23580303.01323
 91  4 16  0 16 44.9920000  0  4G15G 2G13G 6
  21548986.3674   -6727203.89345  -5150714.20661
  18881158.7664   -3116337.88847  -2400157.78764
  19025954.6174  -18845242.35147 -13255733.77761
  18359008.852   -30684281.848 7 -23596953.05523
 91  4 16  0 16 59.9920000  0  4G15G 2G13G 6
  21548498.086    -6729785.726 5
  18880686.2274   -3118820.19147
  19016446.3444  -18895211.63447 -13294670.78861
  18354962.000   -30705545.965 7 -23613522.48023
 91  4 16  0 17 14.9920000  0  4G15G 2G13G 6
  21548031.1494   -6732234.45045
  18880220.5314   -3121263.84047
  19006960.524   -18945061.241 7 -13333514.54021
  18350934.570   -30726712.342 7 -23630015.74523
 91  4 16  0 17 29.9920000  0  4G15G 2G13G 6
  21547592.297    -6734541.145 5  -5156431.53121
  18879763.7034   -3123660.26047  -2405863.55164
  18997498.867   -18994782.252 7 -13372258.08521
  18346928.070   -30747772.180 7 -23646426.00023
 91  4 16  0 17 44.9920000  0  4G15G 2G13G 6
  21547178.9614   -6736712.09045  -5158123.16561
  18879316.8444   -3126015.15547  -2407698.53864
  18988060.0704  -19044380.48747 -13410905.96361
  18342939.555   -30768731.158 7 -23662757.64723
 91  4 16  0 17 59.9920000  0  4G15G 2G13G 6
  21546792.5784   -6738745.21945  -5159707.37761
  18878876.4304   -3128326.38447  -2409499.49964
  18978644.883   -19093853.391 7 -13449456.17421
  18338970.328   -30789586.829 7 -23679008.80323
 91  4 16  0 18 14.9920000  0  4G15G 2G13G 6
  21546433.8134   -6740642.98745  -5161186.13861
  18878442.8444   -3130596.58147  -2411268.49064
  18969255.4534  -19143203.48147 -13487910.69861
  18335021.274   -30810341.442 7 -23695181.21623
 91  4 16  0 18 29.9920000  0  4G15G 2G13G 6
  21546097.6494   -6742401.87245  -5162556.70061
  18878020.6094   -3132822.27847  -2413002.80364
  18959886.7974  -19192426.68247 -13526266.33761
  18331090.422   -30830991.335 7 -23711272.02323
 91  4 16  0 18 44.9920000  0  4G15G 2G13G 6
  21545785.289    -6744016.809 5  -5163815.10021
  18877606.4454   -3134998.28047  -2414698.39564
  18950545.7894  -19241517.77047 -13564519.03761
  18327183.055   -30851531.023 7 -23727276.96323
 91  4 16  0 18 59.9920000  0  4G15G 2G13G 6
  21545511.4454   -6745490.34145  -5164963.30561
  18877200.5704   -3137127.32447  -2416357.39364
  18941227.875   -19290479.272 7 -13602670.76121
  18323294.469   -30871962.947 7 -23743197.92923
 91  4 16  0 19 14.9920000  0  4G15G 2G13G 6
  21545252.547    -6746827.647 5  -5166005.36721
  18876805.7894   -3139214.44047  -2417983.72564
  18931935.6494  -19339316.00447 -13640725.26361
  18319426.531   -30892291.962 7 -23759038.70623
 91  4 16  0 19 29.9920000  0  4G15G 2G13G 6
  21545029.6334   -6748029.33945  -5166941.69561
  18876415.5554   -3141260.23247  -2419577.85364
  18922667.2664  -19388028.37447 -13678682.86161
  18315577.320   -30912518.292 7 -23774799.46823
 91  4 16  0 19 44.9920000  0  4G15G 2G13G 6
  21544820.625    -6749086.750 5  -5167765.62521
  18876035.2814   -3143255.82447  -2421132.86264
  18913422.1804  -19436607.25747 -13716536.44361
  18311748.742   -30932633.213 7 -23790473.42123
 91  4 16  0 19 59.9920000  0  4G15G 2G13G 6
  21544648.4064   -6750004.73545  -5168480.93461
  18875664.0084   -3145205.97847  -2422652.47064
  18904201.8444  -19485057.19747 -13754289.54761
  18307941.461   -30952640.961 7 -23806063.86023
 91  4 16  0 20 14.9920000  0  4G15G 2G13G 6
  21544501.2504   -6750785.07845  -5169089.02761
  18875302.4924   -3147112.52447  -2424138.09764
  18895006.1644  -19533379.92247 -13791943.52261
  18304154.7744  -30972543.31447 -23821572.17263
 91  4 16  0 20 29.9920000  0  4G15G 2G13G 6
  21544380.805    -6751427.663 5  -5169589.76221
  18874948.0704   -3148975.27247  -2425589.59164
  18885834.8994  -19581575.00247 -13829498.03761
  18300386.797   -30992339.620 7 -23836997.85323
 91  4 16  0 20 44.9920000  0  4G15G 2G13G 6
  21544280.156    -6751931.376 5  -5169982.26121
  18874601.3754   -3150792.86047  -2427005.89664
  18876687.6334  -19629640.81947 -13866951.82761
  18296640.742   -31012028.563 7 -23852339.87523
 91  4 16  0 20 59.9920000  0  4G15G 2G13G 6
  21544209.6174   -6752295.35345  -5170265.87761
  18874264.9844   -3152564.79247  -2428386.63064
  18867566.2344  -19677576.62247 -13904304.30361
  18292913.320   -31031609.001 7 -23867597.34323
 91  4 16  0 21 14.9920000  0  4G15G 2G13G 6
  21544170.0244   -6752522.46145  -5170442.80961
  18873934.8754   -3154293.98147  -2429734.04864
  18858467.7894  -19725385.48547 -13941557.87462
  18289209.703   -31051083.886 7 -23882772.56523
 91  4 16  0 21 29.9920000  0  4G15G 2G13G 6
  21544151.867    -6752610.772 5
  18873616.2034   -3155978.29847  -2431046.50764
  18849394.8754  -19773064.72247 -13978710.43362
  18285522.211   -31070450.803 7 -23897863.65623
 91  4 16  0 21 44.9920000  0  4G15G 2G13G 6
  21544162.984    -6752559.293 6
  18873303.8444   -3157616.25347  -2432322.83764
  18840346.4384  -19820612.88947 -14015760.85861
  18281858.797   -31089708.108 7 -23912869.33323
 91  4 16  0 21 59.9920000  0  4G15G 2G13G 6
  21544201.2894   -6752370.29846
  18872999.7034   -3159210.06347  -2433564.77564
  18831323.438   -19868031.947 7 -14052710.68521
  18278213.524   -31108857.876 7 -23927791.22023
 91  4 16  0 22 14.9920000  0  4G15G 2G13G 6
  21544264.3054   -6752041.47945
  18872705.0704   -3160757.80947  -2434770.81064
  18822324.8524  -19915319.65447 -14089558.15862
  18274591.172   -31127897.723 7 -23942627.45123
 91  4 16  0 22 29.9920000  0  4G15G 2G13G 6
  21544351.8914   -6751571.39746  -5169701.69761
  18872420.8284   -3162257.75547  -2435939.60964
  18813351.5164  -19962474.15547 -14126301.83961
  18270989.9064  -31146825.81447 -23957376.60263
 91  4 16  0 22 44.9920000  0  4G15G 2G13G 6
  21544465.6954   -6750963.81646  -5169228.24261
  18872142.2584   -3163713.70347  -2437074.10764
  18804403.1094  -20009499.13547 -14162944.59161
  18267407.7814  -31165645.64647 -23972041.39563
 91  4 16  0 22 59.9920000  0  4G15G 2G13G 6
  21544611.2424   -6750216.34146  -5168645.77461
  18871875.0394   -3165123.15747  -2438172.39064
  18795480.1024  -20056391.82447 -14199484.26661
  18263847.6094  -31184354.55047 -23986619.75263
 91  4 16  0 23 14.9920000  0  4G15G 2G13G 6
  21544777.0164   -6749332.97645  -5167957.44261
  18871615.9694   -3166489.92247  -2439237.40464
  18786581.211   -20103155.801 7 -14235923.64421
  18260308.0944  -31202956.19947 -24001114.53263
 91  4 16  0 23 29.9920000  0  4G15G 2G13G 6
  21544975.1024   -6748311.72845  -5167161.68861
  18871362.6414   -3167812.03247  -2440267.62264
  18777707.180   -20149789.021 7 -14272261.13722
  18256790.4384  -31221448.30747 -24015523.95663
 91  4 16  0 23 44.9920000  0  4G15G 2G13G 6
  21545190.524    -6747153.522 5  -5166259.21921
  18871119.4064   -3169090.43847  -2441263.78464
  18768856.7194  -20196292.48747 -14308497.51861
  18253291.1564  -31239831.68247 -24029848.65563
 91  4 16  0 23 59.9920000  0  4G15G 2G13G 6
  21545441.3444   -6745858.50046  -5165250.09161
  18870885.4534   -3170325.06347  -2442225.83264
  18760031.1254  -20242665.70547 -14344632.40961
  18249813.188   -31258106.029 7 -24044088.39123
 91  4 16  0 24 14.9920000  0  4G15G 2G13G 6
  21545712.250    -6744425.646 5  -5164133.52321
  18870655.6804   -3171514.75347  -2443152.86164
  18751233.055   -20288907.157 7 -14380664.62722
  18246357.8204  -31276269.80047 -24058241.96763
 91  4 16  0 24 29.9920000  0  4G15G 2G13G 6
  21546010.6644   -6742855.69345  -5162910.19961
  18870439.9224   -3172660.29347  -2444045.49764
  18742460.117   -20335017.679 7 -14416594.81921
  18242922.4454  -31294323.68747 -24072309.92263
 91  4 16  0 24 44.9920000  0  4G15G 2G13G 6
  21546334.7114   -6741147.95846  -5161579.51261
  18870230.7504   -3173761.01247  -2444903.20064
  18733709.445   -20380996.618 7 -14452422.48021
  18239506.781   -31312266.800 7 -24086291.55223
 91  4 16  0 24 59.9920000  0  4G15G 2G13G 6
  21546683.9384   -6739302.20246  -5160141.24361
  18870029.6334   -3174816.35847  -2445725.55164
  18724985.617   -20426842.933 7 -14488146.79621
  18236114.5944  -31330098.38747 -24100186.28263
 91  4 16  0 25 14.9920000  0  4G15G 2G13G 6
  21547062.820    -6737319.874 5  -5158596.55621
  18869840.2744   -3175827.73347  -2446513.63764
  18716285.602   -20472557.836 7 -14523768.72021
  18232741.633   -31347819.600 7 -24113995.00923
 91  4 16  0 25 29.9920000  0  4G15G 2G13G 6
  21547465.0244   -6735200.86845  -5156945.40061
  18869654.9774   -3176794.75647  -2447267.16564
  18707609.852   -20518140.949 7 -14559287.95321
  18229390.477   -31365429.908 7 -24127717.31323
 91  4 16  0 25 44.9920000  0  4G15G 2G13G 6
  21547894.320    -6732941.379 5  -5155184.73521
  18869478.7744   -3177714.02347  -2447983.48164
  18698962.820   -20563588.614 7 -14594701.63921
  18226061.516   -31382925.532 7 -24141350.25323
 91  4 16  0 25 59.9920000  0  4G15G 2G13G 6
  21548350.6954   -6730547.13345  -5153319.09761
  18869311.5554   -3178591.04847  -2448666.87764
  18690339.055   -20608906.410 7 -14630014.12021
  18222753.8754  -31400311.90247 -24154898.06763
 91  4 16  0 26 14.9920000  0  4G15G 2G13G 6
  21548833.5314   -6728015.37245  -5151346.28461
  18869153.0474   -3179422.61647  -2449314.85364
  18681741.125   -20654090.887 7 -14665222.72321
  18219464.531   -31417585.635 7 -24168358.10723
 91  4 16  0 26 29.9920000  0  4G15G 2G13G 6
  21549342.9534   -6725345.43045  -5149265.85261
  18869003.3914   -3180208.09047  -2449926.91364
  18673168.078   -20699141.087 7 -14700326.69521
  18216199.4694  -31434745.93747 -24181729.75863
 91  4 16  0 26 44.9920000  0  4G15G 2G13G 6
  21549876.3834   -6722541.13146  -5147080.68561
  18868861.8754   -3180951.22747  -2450505.98664
  18664619.195   -20744060.704 7 -14735328.91521
  18212955.4924  -31451796.26847 -24195015.72363
 91  4 16  0 26 59.9920000  0  4G15G 2G13G 6
  21550436.094    -6719598.400 6  -5144787.59621
  18868730.8674   -3181647.85347  -2451048.81364
  18656097.680   -20788845.554 7 -14770226.11921
  18209731.719   -31468732.364 7 -24208212.67223
 91  4 16  0 27 14.9920000  0  4G15G 2G13G 6
  21551024.039    -6716518.116 5  -5142387.34921
  18868604.3444   -3182299.05647  -2451556.25064
  18647600.570   -20833496.353 7 -14805018.87221
  18206532.0004  -31485554.76047 -24221321.01763
 91  4 16  0 27 29.9920000  0  4G15G 2G13G 6
  21551632.844    -6713299.064 5  -5139879.05121
  18868492.1954   -3182903.43147  -2452027.19364
  18639130.344   -20878011.410 7 -14839705.84721
  18203351.0864  -31502261.91647 -24234339.57463
 91  4 16  0 27 44.9920000  0  4G15G 2G13G 6
  21552275.0244   -6709948.31745  -5137268.13261
  18868383.0944   -3183467.57347  -2452466.79664
  18630682.914   -20922397.558 7 -14874292.38022
  18200193.6884  -31518860.54447 -24247273.55863
 91  4 16  0 27 59.9920000  0  4G15G 2G13G 6
  21552935.414    -6706462.608 5  -5134551.98121
  18868283.2424   -3183988.55147  -2452872.75264
  18622262.063   -20966651.316 7 -14908775.74622
  18197055.2744  -31535347.14347 -24260120.24763
 91  4 16  0 28 14.9920000  0  4G15G 2G13G 6
  21553623.0084   -6702840.81545  -5131729.77361
  18868194.8134   -3184465.07347  -2453244.07564
  18613866.070   -21010771.464 7 -14943155.00121
  18193939.445   -31551720.460 7 -24272878.66423
 91  4 16  0 28 29.9920000  0  4G15G 2G13G 6
  21554343.531    -6699080.665 5  -5128799.78021
  18868113.6884   -3184894.41147  -2453578.62964
  18605496.734   -21054755.294 7 -14977428.03321
  18190846.414   -31567977.658 7 -24285546.59823
 91  4 16  0 28 44.9920000  0  4G15G 2G13G 6
  21555084.6804   -6695182.88145  -5125762.55461
  18868039.9694   -3185277.35947  -2453877.03864
  18597152.906   -21098603.152 7 -15011595.11921
  18187775.953   -31584119.058 7 -24298124.29923
 91  4 16  0 28 59.9920000  0  4G15G 2G13G 6
  21555847.969    -6691152.181 5  -5122621.73521
  18867975.4614   -3185618.61447  -2454142.95564
  18588833.297   -21142319.727 7 -15045659.90222
  18184724.836   -31600149.392 7 -24310615.45523
 91  4 16  0 29 14.9920000  0  4G15G 2G13G 6
  21556638.4454   -6686984.92445  -5119374.55861
  18867918.3204   -3185914.31547  -2454373.37864
  18580540.094   -21185901.012 7 -15079619.26522
  18181695.6954  -31616064.41947 -24323016.76363
 91  4 16  0 29 29.9920000  0  4G15G 2G13G 6
  21557459.117    -6682683.440 5  -5116022.78721
  18867871.4844   -3186166.70747  -2454570.05464
  18572269.813   -21229348.828 7 -15113474.63022
  18178688.609   -31631866.190 7 -24335329.81923
 91  4 16  0 29 44.9920000  0  4G15G 2G13G 6
  21558303.6954   -6678247.05045  -5112565.85361
  18867832.2274   -3186375.05147  -2454732.40664
  18564028.750   -21272662.811 7 -15147225.70722
  18175703.0554  -31647553.87147 -24347553.97763
 91  4 16  0 29 59.9920000  0  4G15G 2G13G 6
  21559172.961    -6673678.187 5  -5109005.70721
  18867799.1954   -3186541.57947
  18555812.125   -21315844.736 7 -15180873.87922
  18172739.0944  -31663129.36247 -24359690.71263
 91  4 16  0 30 14.9920000  0  4G15G 2G13G 6
  21560071.3914   -6668970.93045  -5105337.70261
  18867773.9064   -3186660.36547
  18547621.117   -21358888.682 7 -15214414.54422
  18169796.844   -31678586.671 7 -24371735.35423
 91  4 16  0 30 29.9920000  0  4G15G 2G13G 6
  21560991.5004   -6664127.29945  -5101563.43561
  18867762.0864   -3186733.29947
  18539456.672   -21401796.451 7 -15247849.09322
  18166878.320   -31693927.509 7 -24383689.24023
 91  4 16  0 30 44.9920000  0  4G15G 2G13G 6
  21561939.0864   -6659144.30845  -5097680.61861
  18867755.7894   -3186757.40948
  18531317.984   -21444564.809 7 -15281175.01122
  18163981.406   -31709148.638 7 -24395549.84823
 91  4 16  0 30 59.9920000  0  4G15G 2G13G 6
  21562910.4064   -6654030.06545  -5093695.50261
  18867758.7194   -3186740.21147
  18523203.609   -21487201.190 7 -15314398.08522
  18161107.242   -31724257.502 7 -24407322.97523
 91  4 16  0 31 14.9920000  0  4G15G 2G13G 6
  21563915.047    -6648779.238 5  -5089603.97521
  18867773.1494   -3186676.46747
  18515115.508   -21529700.307 7 -15347514.20422
  18158255.391   -31739248.533 7 -24419004.28623
 91  4 16  0 31 29.9920000  0  4G15G 2G13G 6
  21564936.399    -6643393.001 5  -5085406.93921
  18867794.1644   -3186567.37247
  18507054.469   -21572063.162 7 -15380524.14022
  18155424.828   -31754122.769 7 -24430594.58623
 91  4 16  0 31 44.9920000  0  4G15G 2G13G 6
  21565987.6254   -6637874.00345  -5081106.41761
  18867824.742    -3186415.384 8
  18499018.602   -21614291.990 7 -15413429.64822
  18152615.7814  -31768882.45147 -24442095.62763
 91  4 16  0 31 59.9920000  0  4G15G 2G13G 6
  21567061.0314   -6632218.54945  -5076699.56461
  18867862.0864   -3186216.46147
  18491009.344   -21656382.595 7 -15446227.44922
  18149829.453   -31783523.412 7 -24453504.15823
 91  4 16  0 32 14.9920000  0  4G15G 2G13G 6
  21568167.633    -6626428.345 5  -5072187.73221
  18867906.3834   -3185972.39448  -2454418.69464
  18483025.438   -21698336.781 7 -15478918.94922
  18147064.9924  -31798047.28447 -24464821.45063
 91  4 16  0 32 29.9920000  0  4G15G 2G13G 6
  21569288.891    -6620506.025 5  -5067572.97521
  18867963.7814   -3185685.48247  -2454195.13064
  18475067.055   -21740156.633 7 -15511505.77522
  18144323.7974  -31812456.04647 -24476049.05263
 91  4 16  0 32 44.9920000  0  4G15G 2G13G 6
  21570443.617    -6614449.353 5  -5062853.49921
  18868024.3134   -3185353.35348  -2453936.33364
  18467135.586   -21781839.749 7 -15543986.04822
  18141604.328   -31826747.218 7 -24487185.01723
 91  4 16  0 32 59.9920000  0  4G15G 2G13G 6
  21571624.1494   -6608261.46045  -5058031.75061
  18868093.1564   -3184979.27047  -2453644.84064
  18459228.547   -21823389.103 7 -15576362.09322
  18138906.3364  -31840923.79147 -24498231.68763
 91  4 16  0 33 14.9920000  0  4G15G 2G13G 6
  21572828.899    -6601940.036 5  -5053105.91621
  18868174.5554   -3184560.65347  -2453318.65164
  18451348.078   -21864802.114 7 -15608631.89722
  18136230.5244  -31854983.01947 -24509186.92363
 91  4 16  0 33 29.9920000  0  4G15G 2G13G 6
  21574056.1414   -6595483.34545  -5048074.74061
  18868265.9844   -3184095.88447  -2452956.49964
  18443494.047   -21906076.891 7 -15640793.98422
  18133576.7274  -31868923.08647 -24520049.30163
 91  4 16  0 33 44.9920000  0  4G15G 2G13G 6
  21575309.5474   -6588890.95845  -5042937.85061
  18868361.0944   -3183584.08647  -2452557.69964
  18435664.219   -21947212.797 7 -15672847.86222
  18130949.8834  -31882743.19847 -24530818.21163
 91  4 16  0 33 59.9920000  0  4G15G 2G13G 6
  21576588.2974   -6582168.30645  -5037699.45261
  18868465.1254   -3183030.48747  -2452126.32564
  18427863.281   -21988215.000 7 -15704797.56022
  18128340.2274  -31896448.34647 -24541497.54363
 91  4 16  0 34 14.9920000  0  4G15G 2G13G 6
  21577895.8754   -6575313.13545  -5032357.82061
  18868580.2894   -3182432.87247  -2451660.65364
  18420087.438   -22029080.924 7 -15736641.05722
  18125754.1494  -31910035.89147 -24552085.23163
 91  4 16  0 34 29.9920000  0  4G15G 2G13G 6
  21579223.5944   -6568325.30345  -5026912.71561
  18868703.6564   -3181790.95747  -2451160.46464
  18412335.391   -22069810.224 7 -15768378.10222
  18123191.7664  -31923505.51947 -24562581.04063
 91  4 16  0 34 44.9920000  0  4G15G 2G13G 6
  21580579.7424   -6561200.89045  -5021361.19161
  18868832.6024   -3181100.67547  -2450622.58963
  18404612.2504  -22110398.66947 -15800005.38862
  18120651.5474  -31936853.08047 -24572981.73163
 91  4 16  0 34 59.9920000  0  4G15G 2G13G 6
  21581957.617    -6553940.397 5  -5015703.68621
  18868973.7974   -3180362.27448  -2450047.21064
  18396914.930   -22150846.512 7 -15831523.11322
  18118134.7114  -31950078.52847 -24583287.26863
 91  4 16  0 35 14.9920000  0  4G15G 2G13G 6
  21583366.5244   -6546547.83545  -5009943.28961
  18869123.7664   -3179579.41348  -2449437.19064
  18389244.039   -22191157.278 7 -15862934.03122
  18115640.9614  -31963185.44047 -24593500.44163
 91  4 16  0 35 29.9920000  0  4G15G 2G13G 6
  21584800.977    -6539024.963 5  -5004081.33921
  18869281.2344   -3178753.82647  -2448793.88364
  18381598.4224  -22231332.55047 -15894239.36762
  18113168.6414  -31976175.31047 -24603622.41563
 91  4 16  0 35 44.9920000  0  4G15G 2G13G 6
  21586253.5554   -6531371.90045  -4998117.91261
  18869445.1644   -3177885.49247  -2448117.26364
  18373979.188   -22271372.148 7 -15925438.98122
  18110718.1414  -31989047.86247 -24613652.96563
 91  4 16  0 35 59.9920000  0  4G15G 2G13G 6
  21587737.5164   -6523586.85045  -4992051.64561
  18869620.0554   -3176972.34347  -2447405.72464
  18366385.938   -22311274.348 7 -15956531.53222
  18108292.5314  -32001801.02847 -24623590.49363
 91  4 16  0 36 14.9920000  0  4G15G 2G13G 6
  21589241.0634   -6515669.19545  -4985882.04261
  18869805.0474   -3176013.88248  -2446658.87763
  18358819.6494  -22351038.28547 -15987516.35162
  18105888.2194  -32014434.11447 -24633434.45063
 91  4 16  0 36 29.9920000  0  4G15G 2G13G 6
  21590777.078    -6507618.443 5  -4979608.70421
  18869993.4384   -3175009.36347  -2445876.13863
  18351279.539   -22390663.058 7 -16018392.72722
  18103506.8284  -32026946.18047 -24643184.10463
 91  4 16  0 36 44.9920000  0  4G15G 2G13G 6
  21592329.633    -6499437.605 5  -4973234.03321
  18870192.5634   -3173961.73647  -2445059.80963
  18343764.9064  -22430151.55647 -16049162.91662
  18101150.0004  -32039339.98747 -24652841.61263
 91  4 16  0 36 59.9920000  0  4G15G 2G13G 6
  21593911.453    -6491122.931 5  -4966755.11121
  18870400.4304   -3172866.87047  -2444206.67063
  18336277.9064  -22469499.78647 -16079823.80162
  18098813.8054  -32051611.27547 -24662403.64763
 91  4 16  0 37 14.9920000  0  4G15G 2G13G 6
  21595522.891    -6482678.204 5  -4960174.83521
  18870618.1644   -3171728.12147  -2443319.34063
  18328814.1954  -22508710.67247 -16110377.67662
  18096502.2974  -32063763.34147 -24671872.78763
 91  4 16  0 37 29.9920000  0  4G15G 2G13G 6
  21597153.3134   -6474101.98345  -4953492.07561
  18870842.0474   -3170544.36047  -2442396.93664
  18321379.766   -22547782.957 7 -16140823.53622
  18094212.5314  -32075794.62147 -24681247.80663
 91  4 16  0 37 44.9920000  0  4G15G 2G13G 6
  21598810.5634   -6465394.29645  -4946706.85661
  18871077.3444   -3169315.26147  -2441439.20563
  18313969.3444  -22586716.40547 -16171161.21762
  18091944.7344  -32087704.67947 -24690528.36363
 91  4 16  0 37 59.9920000  0  4G15G 2G13G 6
  21600492.328    -6456556.791 5  -4939820.47221
  18871319.0084   -3168042.44947  -2440447.40563
  18306587.4224  -22625512.38447 -16201391.78562
  18089701.8284  -32099495.05447 -24699715.66763
 91  4 16  0 38 14.9920000  0  4G15G 2G13G 6
  21602198.3994   -6447585.81645  -4932830.11161
  18871570.5004   -3166721.85447  -2439418.37463
  18299232.195   -22664166.805 7 -16231512.04222
  18087482.3054  -32111161.49147 -24708806.39163
 91  4 16  0 38 29.9920000  0  4G15G 2G13G 6
  21603929.0004   -6438482.90045  -4925736.96061
  18871830.6954   -3165354.91547  -2438353.23463
  18291903.7814  -22702681.38147 -16261523.33062
  18085285.3674  -32122705.45847 -24717801.68763
 91  4 16  0 38 44.9920000  0  4G15G 2G13G 6
  21605685.750    -6429249.385 5  -4918542.03421
  18872101.1254   -3163943.19947  -2437253.20364
  18284600.6414  -22741057.27447 -16291426.55562
  18083110.4144  -32134128.10647 -24726702.44663
 91  4 16  0 38 59.9920000  0  4G15G 2G13G 6
  21607470.5244   -6419885.48745  -4911245.52761
  18872377.1884   -3162486.21847  -2436117.89563
  18277323.3594  -22779294.08547 -16321221.40762
  18080961.5084  -32145429.15847 -24735508.45263
 91  4 16  0 39 14.9920000  0  4G15G 2G13G 6
  21609278.6644   -6410389.73345  -4903846.20861
  18872662.8594   -3160982.37147  -2434946.06963
  18270075.274   -22817390.193 7 -16350906.61722
  18078833.9064  -32156606.50647 -24744218.07063
 91  4 16  0 39 29.9920000  0  4G15G 2G13G 6
  21611110.3134   -6400761.98745  -4896344.03361
  18872958.3754   -3159431.26647  -2433737.42863
  18262852.422   -22855345.156 7 -16380481.84422
  18076730.2504  -32167659.74447 -24752830.98163
 91  4 16  0 39 44.9920000  0  4G15G 2G13G 6
  21612963.8834   -6391008.19645  -4888743.66761
  18873262.3524   -3157838.85647  -2432496.59663
  18255655.8994  -22893164.73347 -16409951.58362
  18074648.4844  -32178594.69147 -24761351.71763
 91  4 16  0 39 59.9920000  0  4G15G 2G13G 6
  21614845.750    -6381124.156 5  -4881041.89621
  18873572.6094   -3156200.88847  -2431220.26163
  18248485.0784  -22930844.63247 -16439312.47362
  18072591.0164  -32189406.91147 -24769776.82163
 91  4 16  0 40 14.9920000  0  4G15G 2G13G 6
  21616749.617    -6371111.894 5  -4873240.18621
  18873894.3674   -3154519.06847  -2429909.75663
  18241340.7974  -22968386.35847 -16468565.70162
  18070557.1494  -32200098.03547 -24778107.56263
 91  4 16  0 40 29.9920000  0  4G15G 2G13G 6
  21618682.664    -6360969.507 5  -4865337.04721
  18874220.9224   -3152791.20147  -2428563.37263
  18234224.4144  -23005787.81947 -16497709.63662
  18068547.3674  -32210665.56847 -24786342.00263
 91  4 16  0 40 44.9920000  0  4G15G 2G13G 6
  21620636.758    -6350698.350 5  -4857333.53821
  18874557.3594   -3151018.64447  -2427182.16463
  18227131.8364  -23043050.17447 -16526745.17062
  18066559.0864  -32221110.72647 -24794481.07863
 91  4 16  0 40 59.9920000  0  4G15G 2G13G 6
  21622615.2744   -6340296.84945  -4849228.41361
  18874905.6804   -3149199.78247  -2425764.87663
  18220069.0704  -23080171.84047 -16555671.07862
  18064595.1644  -32231431.92447 -24802523.56863
 91  4 16  0 41 14.9920000  0  4G15G 2G13G 6
  21624616.375    -6329769.590 5  -4841025.40121
  18875259.6884   -3147338.93547  -2424314.87363
  18213030.4384  -23117156.93047 -16584490.56462
  18062653.8994  -32241633.19547 -24810472.60663
 91  4 16  0 41 29.9920000  0  4G15G 2G13G 6
  21626647.891    -6319109.917 5  -4832719.21921
  18875621.695    -3145429.062 7  -2422826.66923
  18206021.5314  -23153998.57947 -16613198.27762
  18060736.7114  -32251707.23247 -24818322.50063
 91  4 16  0 41 44.9920000  0  4G15G 2G13G 6
  21628702.328    -6308321.428 5  -4824312.63621
  18875994.5474   -3143473.58947  -2421302.92663
  18199036.1724  -23190700.22447 -16641796.89762
  18058843.5244  -32261657.55847 -24826076.00063
 91  4 16  0 41 59.9920000  0  4G15G 2G13G 6
  21630777.4454   -6297406.74545  -4815807.70061
  18876375.0084   -3141474.98947  -2419745.57963
  18192077.6334  -23227264.33347 -16670288.34562
  18056971.8674  -32271486.51647 -24833734.92563
 91  4 16  0 42 14.9920000  0  4G15G 2G13G 6
  21632878.5634   -6286358.14645  -4807198.40261
  18876765.609    -3139424.994 7  -2418148.19323
  18185147.6414  -23263682.53447 -16698666.10162
  18055127.7274  -32281185.73747 -24841292.75863
 91  4 16  0 42 29.9920000  0  3G 2G13G 6
  18877163.3364   -3137329.59747  -2416515.42063
  18178244.7974  -23299960.42447 -16726934.52762
  18053304.9224  -32290760.93947 -24848753.95463
 91  4 16  0 42 44.9920000  0  3G 2G13G 6
  18877571.2894   -3135188.84447  -2414847.31263
  18171368.3594  -23336098.03547 -16755093.64362
  18051507.2504  -32300212.05247 -24856118.45663
 91  4 16  0 42 59.9920000  0  3G 2G13G 6
  18877988.7744   -3133002.22447  -2413143.46263
  18164517.2424  -23372095.01147 -16783143.17362
  18049731.8364  -32309538.45047 -24863385.78063
 91  4 16  0 43 14.9920000  0  3G 2G13G 6
  18878411.672    -3130769.784 7  -2411403.90923
  18157693.9454  -23407951.12347 -16811082.93362
  18047980.9694  -32318739.85347 -24870555.70263
 91  4 16  0 43 29.9920000  0  3G 2G13G 6
  18878844.7744   -3128490.15747  -2409627.58763
  18150899.3754  -23443665.11047 -16838911.95862
  18046254.0244  -32327814.83947 -24877627.12063
 91  4 16  0 43 44.9920000  0  3G 2G13G 6
  18879287.961    -3126168.545 7  -2407818.55423
  18144128.0944  -23479242.05547 -16866634.19162
  18044549.6724  -32336768.61947 -24884604.09363
 91  4 16  0 43 59.9920000  0  3G 2G13G 6
  18879739.6254   -3123798.06347  -2405971.43863
  18137384.2814  -23514675.32847 -16894244.47262
  18042870.9064  -32345594.17247 -24891481.14363
 91  4 16  0 44 14.9920000  0  3G 2G13G 6
  18880197.149    -3121382.683 7  -2404089.33923
  18130669.8444  -23549968.77847 -16921745.80462
  18041214.4924  -32354295.35847 -24898261.28763
 91  4 16  0 44 29.9920000  0  3G 2G13G 6
  18880667.461    -3118919.665 7  -2402170.11723
  18123979.3134  -23585119.53847 -16949135.95162
  18039583.5314  -32362869.22447 -24904942.22363
 91  4 16  0 44 44.9920000  0  3G 2G13G 6
  18881145.7274   -3116407.58247  -2400212.66063
  18117318.1094  -23620126.26047 -16976413.85362
  18037975.6174  -32371314.44647 -24911522.91663
 91  4 16  0 44 59.9920000  0  3G 2G13G 6
  18881631.9924   -3113847.92147  -2398218.13063
  18110683.945   -23654990.286 7 -17003580.57122
  18036392.9454  -32379632.25847 -24918004.32663
 91  4 16  0 45 14.9920000  0  3G 2G13G 6
  18882128.563    -3111243.461 7  -2396188.69423
  18104075.8834  -23689714.35647 -17030638.22962
  18034833.5314  -32387825.13547 -24924388.38763
 91  4 16  0 45 29.9920000  0  3G 2G13G 6
  18882632.2664   -3108594.03447  -2394124.21663
  18097495.1174  -23724298.28747 -17057586.68962
  18033298.8054  -32395892.71247 -24930674.81163
 91  4 16  0 45 44.9910000  0  3G 2G13G 6
  18883146.847    -3105897.345 7  -2392022.92223
  18090941.3704  -23758737.32347 -17084422.24662
  18031787.1124  -32403832.08547 -24936861.33863
 91  4 16  0 45 59.9910000  0  3G 2G13G 6
  18883667.323    -3103153.516 7  -2389884.88223
  18084415.0894  -23793036.33547 -17111148.69262
  18030301.7374  -32411644.74747 -24942949.12463
 91  4 16  0 46 14.9910000  0  3G 2G13G 6
  18884197.378    -3100359.668 7  -2387707.87323
  18077914.6984  -23827190.01247 -17137761.88862
  18028840.9174  -32419326.91747 -24948935.23363
 91  4 16  0 46 29.9910000  0  3G 2G13G 6
  18884740.0584   -3097518.51547  -2385494.00463
  18071442.6284  -23861201.20547 -17164264.06062
  18027401.8784  -32426881.02647 -24954821.55563
 91  4 16  0 46 44.9910000  0  3G 2G13G 6
  18885288.886    -3094628.574 7  -2383242.11323
  18064998.5974  -23895068.43247 -17190654.05362
  18025989.0264  -32434305.69347 -24960607.00263
 91  4 16  0 46 59.9910000  0  3G 2G13G 6
  18885849.034    -3091692.545 7  -2380954.31623
  18058579.823   -23928794.164 7 -17216933.78622
  18024600.1054  -32441603.38547 -24966293.51663
 91  4 16  0 47 14.9910000  0  3G 2G13G 6
  18886416.159    -3088708.139 7  -2378628.82023
  18052188.9644  -23962376.38647 -17243101.69862
  18023237.1984  -32448771.81047 -24971879.30663
 91  4 16  0 47 29.9910000  0  3G 2G13G 6
  18886993.7764   -3085676.53047  -2376266.54063
  18045825.206   -23995816.184 7 -17269158.62822
  18021896.6834  -32455812.00547 -24977365.17463
 91  4 16  0 47 44.9910000  0  3G 2G13G 6
  18887578.925    -3082600.839 7  -2373869.90823
  18039490.503   -24029116.259 7 -17295106.68422
  18020580.7374  -32462726.97247 -24982753.45863
 91  4 16  0 47 59.9910000  0  3G 2G13G 6
  18888172.175    -3079476.650 7  -2371435.50023
  18033179.5114  -24062272.59947 -17320942.73562
  18019289.6834  -32469512.09247 -24988040.56663
 91  4 16  0 48 14.9910000  0  3G 2G13G 6
  18888778.0424   -3076305.49547  -2368964.48163
  18026896.4644  -24095286.82947 -17346668.05162
  18018021.3944  -32476169.05647 -24993227.81363
 91  4 16  0 48 29.9910000  0  3G 2G13G 6
  18889388.792    -3073087.707 7  -2366457.12723
  18020642.581   -24128159.154 7 -17372282.79222
  18016782.0504  -32482697.88347 -24998315.20863
 91  4 16  0 48 44.9910000  0  3G 2G13G 6
  18890010.237    -3069820.853 7  -2363911.53923
  18014414.550   -24160887.008 7 -17397784.96622
  18015563.3864  -32489095.95747 -25003300.72263
 91  4 16  0 48 59.9910000  0  3G 2G13G 6
  18890640.5664   -3066508.12547  -2361330.20663
  18008213.245   -24193473.498 7 -17423176.98022
  18014368.3554  -32495366.52547 -25008186.87863
 91  4 16  0 49 14.9910000  0  3G 2G13G 6
  18891281.3004   -3063149.33547  -2358712.98363
  18002039.566   -24225918.422 7 -17448458.68222
  18013200.4414  -32501509.22047 -25012973.39663
 91  4 16  0 49 29.9910000  0  3G 2G13G 6
  18891927.659    -3059745.323 7  -2356060.51723
  17995892.870   -24258222.644 7 -17473630.75122
  18012056.9724  -32507524.64947 -25017660.74363
 91  4 16  0 49 44.9910000  0  3G 2G13G 6
  18892585.378    -3056290.524 7  -2353368.47923
  17989772.4804  -24290380.54347 -17498688.80062
  18010937.9254  -32513407.11947 -25022244.48663
